[[{"header":{"parameterUnit":"m.s-1","parameterCategory":1,"la1":31.0,"la2":29.5877,"lo1":-88.7671,"lo2":-86.6584,"dy":0.0162,"dx":0.0185,"nx":115,"ny":88,"refTime":"2023-03-03T18:00:00:Z","depth":0,"parameterNumber":2,"parameterNumberName":"U-component_of_WINDS"},"data":[0.0,0.0,0.0,0.0,0.0,0.0,0.0,0.0,0.0,0.0,0.0,0.0,0.0,0.0,0.0,0.0,0.0,0.0,0.0,0.0,0.0,0.0,0.0,0.0,0.0,0.0,0.0,0.0,0.0,0.0,0.0,0.0,0.0,0.0,0.0,0.0,0.0,0.0,0.0,0.0,0.0,0.0,0.0,0.0,0.0,0.0,0.0,0.0,0.0,0.0,0.0,0.0,0.0,0.0,0.0,0.0,0.0,0.0,0.0,0.0,0.0,0.0,0.0,0.0,0.0,0.0,0.0,0.0,0.0,0.0,0.0,0.0,0.0,0.0,0.0,0.0,0.0,0.0,0.0,0.0,0.0,0.0,0.0,0.0,0.0,0.0,0.0,0.0,0.0,0.0,0.0,0.0,0.0,0.0,0.0,0.0,0.0,0.0,0.0,0.0,0.0,0.0,0.0,0.0,0.0,0.0,0.0,0.0,0.0,0.0,0.0,0.0,0.0,0.0,0.0,0.0,0.0,0.0,0.0,0.0,0.0,0.0,0.0,0.0,0.0,0.0,0.0,0.0,0.0,0.0,0.0,0.0,0.0,0.0,0.0,0.0,0.0,0.0,0.0,0.0,0.0,0.0,0.0,0.0,0.0,0.0,0.0,0.0,0.0,0.0,0.0,0.0,0.0,0.0,0.0,0.0,0.0,0.0,0.0,0.0,0.0,0.0,0.0,0.0,0.0,0.0,0.0,0.0,0.0,0.0,0.0,0.0,0.0,0.0,0.0,0.0,0.0,0.0,0.0,0.0,0.0,0.0,0.0,0.0,0.0,0.0,0.0,0.0,0.0,0.0,0.0,0.0,0.0,0.0,0.0,0.0,0.0,0.0,0.0,0.0,0.0,0.0,0.0,0.0,0.0,0.0,0.0,0.0,0.0,0.0,0.0,0.0,0.0,0.0,0.0,0.0,0.0,0.0,0.0,0.0,0.0,0.0,0.0,0.0,0.0,0.0,0.0,0.0,0.0,0.0,0.0,0.0,0.0,0.0,0.0,0.0,0.0,0.0,0.0,0.0,0.0,0.0,0.0,0.0,0.0,0.0,0.0,0.0,0.0,0.0,0.0,0.0,0.0,0.0,0.0,0.0,0.0,0.0,0.0,0.0,0.0,0.0,0.0,0.0,0.0,0.0,0.0,0.0,0.0,0.0,0.0,0.0,0.0,0.0,0.0,0.0,0.0,0.0,0.0,0.0,0.0,0.0,0.0,0.0,0.0,0.0,0.0,0.0,0.0,0.0,0.0,0.0,0.0,0.0,0.0,0.0,0.0,0.0,0.0,0.0,0.0,0.0,0.0,0.0,0.0,0.0,0.0,0.0,0.0,0.0,0.0,0.0,0.0,0.0,0.0,0.0,0.0,0.0,0.0,0.0,0.0,0.0,0.0,0.0,0.0,0.0,0.0,0.0,0.0,0.0,0.0,0.0,0.0,0.0,0.0,0.0,0.0,0.0,0.0,0.0,0.0,0.0,0.0,0.0,0.0,0.0,0.0,0.0,0.0,0.0,0.0,0.0,0.0,0.0,0.0,0.0,0.0,0.0,0.0,0.0,0.0,0.0,0.0,0.0,0.0,0.0,0.0,0.0,0.0,0.0,0.0,0.0,0.0,0.0,0.0,0.0,0.0,0.0,0.0,0.0,0.0,0.0,0.0,0.0,0.0,0.0,0.0,0.0,0.0,0.0,0.0,0.0,0.0,0.0,0.0,0.0,0.0,0.0,0.0,0.0,0.0,0.0,0.0,0.0,0.0,0.0,0.0,0.0,0.0,0.0,0.0,0.0,0.0,0.0,0.0,0.0,0.0,0.0,0.0,0.0,0.0,0.0,0.0,0.0,0.0,0.0,0.0,0.0,0.0,0.0,0.0,0.0,0.0,0.0,0.0,0.0,0.0,0.0,0.0,0.0,0.0,0.0,0.0,0.0,0.0,0.0,0.0,0.0,0.0,0.0,0.0,0.0,0.0,0.0,0.0,0.0,0.0,0.0,0.0,0.0,0.0,0.0,0.0,0.0,0.0,0.0,0.0,0.0,0.0,0.0,0.0,0.0,0.0,0.0,0.0,0.0,0.0,0.0,0.0,0.0,0.0,0.0,0.0,0.0,0.0,0.0,0.0,0.0,0.0,0.0,0.0,0.0,0.0,0.0,0.0,0.0,0.0,0.0,0.0,0.0,0.0,0.0,0.0,0.0,0.0,0.0,0.0,0.0,0.0,0.0,0.0,0.0,0.0,0.0,0.0,0.0,0.0,0.0,0.0,0.0,0.0,0.0,0.0,0.0,0.0,0.0,0.0,0.0,0.0,0.0,0.0,0.0,0.0,0.0,0.0,0.0,0.0,0.0,0.0,0.0,0.0,0.0,0.0,0.0,0.0,0.0,0.0,0.0,0.0,0.0,0.0,0.0,0.0,0.0,0.0,0.0,0.0,0.0,0.0,0.0,0.0,0.0,0.0,0.0,0.0,0.0,0.0,0.0,0.0,0.0,0.0,0.0,0.0,0.0,0.0,0.0,0.0,0.0,0.0,0.0,0.0,0.0,0.0,0.0,0.0,0.0,0.0,0.0,0.0,0.0,0.0,0.0,0.0,0.0,0.0,0.0,0.0,0.0,0.0,0.0,0.0,0.0,0.0,0.0,0.0,0.0,0.0,0.0,0.0,0.0,0.0,0.0,0.0,0.0,0.0,0.0,0.0,0.0,0.0,0.0,0.0,0.0,0.0,0.0,0.0,0.0,0.0,0.0,0.0,0.0,0.0,0.0,0.0,0.0,0.0,0.0,0.0,0.0,0.0,0.0,0.0,0.0,0.0,0.0,0.0,0.0,0.0,0.0,0.0,0.0,0.0,0.0,0.0,0.0,0.0,0.0,0.0,0.0,0.0,0.0,0.0,0.0,0.0,0.0,0.0,0.0,0.0,0.0,0.0,0.0,0.0,0.0,0.0,0.0,0.0,0.0,0.0,0.0,0.0,0.0,0.0,0.0,0.0,0.0,0.0,0.0,0.0,0.0,0.0,0.0,0.0,0.0,0.0,0.0,0.0,0.0,0.0,0.0,0.0,0.0,0.0,0.0,0.0,0.0,0.0,0.0,0.0,0.0,0.0,0.0,0.0,0.0,0.0,0.0,0.0,0.0,0.0,0.0,0.0,0.0,0.0,0.0,0.0,0.0,0.0,0.0,0.0,0.0,0.0,0.0,0.0,0.0,0.0,0.0,0.0,0.0,0.0,0.0,0.0,0.0,0.0,0.0,0.0,0.0,0.0,0.0,0.0,0.0,0.0,0.0,0.0,0.0,0.0,0.0,0.0,0.0,0.0,0.0,0.0,0.0,0.0,0.0,0.0,0.0,0.0,0.0,0.0,0.0,0.0,0.0,0.0,0.0,0.0,0.0,0.0,0.0,0.0,0.0,0.0,0.0,0.0,0.0,0.0,0.0,0.0,0.0,0.0,0.0,0.0,0.0,0.0,0.0,0.0,0.0,0.0,0.0,0.0,0.0,0.0,0.0,0.0,0.0,0.0,0.0,0.0,0.0,0.0,0.0,0.0,0.0,0.0,0.0,0.0,0.0,0.0,0.0,0.0,0.0,0.0,0.0,0.0,0.0,0.0,0.0,0.0,0.0,0.0,0.0,0.0,0.0,0.0,0.0,0.0,0.0,0.0,0.0,0.0,0.0,0.0,0.0,0.0,0.0,0.0,0.0,0.0,0.0,0.0,0.0,0.0,0.0,0.0,0.0,0.0,0.0,0.0,0.0,0.0,0.0,0.0,0.0,0.0,0.0,0.0,0.0,0.0,0.0,0.0,0.0,0.0,0.0,0.0,0.0,0.0,0.0,0.0,0.0,0.0,0.0,0.0,0.0,0.0,0.0,0.0,0.0,0.0,0.0,0.0,0.0,0.0,0.0,0.0,0.0,0.0,0.0,0.0,0.0,0.0,0.0,0.0,0.0,0.0,0.0,0.0,0.0,0.0,0.0,0.0,0.0,0.0,0.0,0.0,0.0,0.0,0.0,0.0,0.0,0.0,0.0,0.0,0.0,0.0,0.0,0.0,0.0,0.0,0.0,0.0,0.0,0.0,0.0,0.0,0.0,0.0,0.0,0.0,0.0,0.0,0.0,0.0,0.0,0.0,0.0,0.0,0.0,0.0,0.0,0.0,0.0,0.0,0.0,0.0,0.0,0.0,0.0,0.0,0.0,0.0,0.0,0.0,0.0,0.0,0.0,0.0,0.0,0.0,0.0,1.8796,0.0,0.0,0.0,0.0,0.0,0.0,0.0,0.0,0.0,0.0,0.0,0.0,0.0,0.0,0.0,0.0,0.0,0.0,0.0,0.0,0.0,0.0,0.0,0.0,0.0,0.0,0.0,0.0,0.0,0.0,0.0,0.0,0.0,0.0,0.0,0.0,0.0,0.0,0.0,0.0,0.0,0.0,0.0,0.0,0.0,0.0,0.0,0.0,0.0,0.0,0.0,0.0,0.0,0.0,0.0,0.0,0.0,0.0,0.0,0.0,0.0,0.0,0.0,0.0,0.0,0.0,0.0,0.0,0.0,0.0,0.0,0.0,0.0,0.0,0.0,0.0,0.0,0.0,0.0,0.0,0.0,0.0,0.0,0.0,0.0,0.0,0.0,0.0,0.0,0.0,0.0,0.0,0.0,0.0,0.0,0.0,0.0,0.0,0.0,0.0,0.0,0.0,0.0,0.0,0.0,0.0,0.0,0.0,0.0,0.0,1.8272,1.8997,1.7774,1.7737,1.9029,0.0,0.0,0.0,0.0,0.0,0.0,0.0,0.0,0.0,0.0,0.0,0.0,0.0,0.0,0.0,0.0,0.0,0.0,0.0,0.0,0.0,0.0,0.0,0.0,0.0,0.0,0.0,0.0,0.0,0.0,0.0,0.0,0.0,0.0,0.0,0.0,0.0,0.0,0.0,0.0,0.0,0.0,0.0,0.0,0.0,0.0,0.0,0.0,0.0,0.0,0.0,0.0,0.0,0.0,0.0,0.0,0.0,0.0,0.0,0.0,0.0,0.0,0.0,0.0,0.0,0.0,0.0,0.0,0.0,0.0,0.0,0.0,0.0,0.0,0.0,0.0,0.0,0.0,0.0,0.0,0.0,0.0,0.0,0.0,0.0,0.0,0.0,0.0,0.0,0.0,0.0,0.0,0.0,0.0,0.0,0.0,0.0,0.0,0.0,0.0,0.0,0.0,0.0,0.0,0.0,0.0,0.0,0.0,0.0,0.0,0.0,0.0,1.7615,1.7563,1.9014,0.0,0.0,0.0,0.0,0.0,0.0,0.0,0.0,0.0,0.0,0.0,0.0,0.0,0.0,0.0,0.0,0.0,0.0,0.0,0.0,0.0,0.0,0.0,0.0,0.0,0.0,0.0,0.0,0.0,0.0,0.0,0.0,0.0,0.0,0.0,0.0,0.0,0.0,0.0,0.0,0.0,0.0,0.0,0.0,0.0,0.0,0.0,0.0,0.0,0.0,0.0,0.0,0.0,0.0,0.0,0.0,0.0,0.0,0.0,0.0,0.0,0.0,0.0,0.0,0.0,0.0,0.0,0.0,0.0,0.0,0.0,0.0,0.0,0.0,0.0,0.0,0.0,0.0,0.0,0.0,0.0,0.0,0.0,0.0,0.0,0.0,0.0,0.0,0.0,0.0,0.0,0.0,0.0,0.0,0.0,0.0,0.0,0.0,0.0,0.0,0.0,0.0,0.0,0.0,0.0,0.0,0.0,0.0,0.0,0.0,1.8765,1.8822,1.8801,0.0,1.9087,0.0,0.0,0.0,0.0,0.0,0.0,0.0,0.0,0.0,0.0,0.0,0.0,0.0,0.0,0.0,0.0,0.0,0.0,0.0,0.0,0.0,0.0,0.0,0.0,0.0,0.0,0.0,0.0,0.0,0.0,0.0,0.0,0.0,0.0,0.0,0.0,0.0,0.0,0.0,0.0,0.0,0.0,0.0,0.0,0.0,0.0,0.0,0.0,0.0,0.0,0.0,0.0,0.0,0.0,0.0,0.0,0.0,0.0,0.0,0.0,0.0,0.0,0.0,0.0,0.0,0.0,0.0,0.0,0.0,0.0,0.0,0.0,0.0,0.0,0.0,0.0,0.0,0.0,0.0,0.0,0.0,0.0,0.0,0.0,0.0,0.0,0.0,0.0,0.0,0.0,0.0,0.0,0.0,0.0,0.0,0.0,0.0,0.0,0.0,0.0,0.0,0.0,0.0,0.0,0.0,0.0,0.0,0.0,0.0,0.0,1.888,1.8889,1.9026,1.9116,0.0,0.0,0.0,0.0,0.0,0.0,0.0,0.0,0.0,0.0,0.0,0.0,0.0,0.0,0.0,0.0,0.0,0.0,0.0,0.0,0.0,0.0,0.0,0.0,0.0,0.0,0.0,0.0,0.0,0.0,0.0,0.0,0.0,0.0,0.0,0.0,0.0,0.0,0.0,0.0,0.0,0.0,0.0,0.0,0.0,0.0,0.0,0.0,0.0,0.0,0.0,0.0,0.0,0.0,0.0,0.0,0.0,0.0,0.0,0.0,0.0,0.0,0.0,0.0,0.0,0.0,0.0,0.0,0.0,0.0,0.0,0.0,0.0,0.0,0.0,0.0,0.0,0.0,0.0,0.0,0.0,0.0,0.0,0.0,0.0,0.0,0.0,0.0,0.0,0.0,0.0,0.0,0.0,0.0,0.0,0.0,0.0,0.0,0.0,0.0,0.0,0.0,0.0,0.0,0.0,0.0,0.0,0.0,0.0,0.0,1.878,1.9093,1.9022,1.904,1.9064,1.9116,0.0,0.0,0.0,0.0,0.0,0.0,0.0,0.0,0.0,0.0,0.0,0.0,0.0,0.0,0.0,0.0,0.0,0.0,0.0,0.0,0.0,0.0,0.0,0.0,0.0,0.0,0.0,0.0,0.0,0.0,0.0,0.0,0.0,0.0,0.0,0.0,0.0,0.0,0.0,0.0,0.0,0.0,0.0,0.0,0.0,0.0,0.0,0.0,0.0,0.0,0.0,0.0,0.0,0.0,0.0,0.0,0.0,0.0,0.0,0.0,0.0,0.0,0.0,0.0,0.0,0.0,0.0,0.0,0.0,0.0,0.0,0.0,0.0,0.0,0.0,0.0,0.0,0.0,0.0,0.0,0.0,0.0,0.0,0.0,0.0,0.0,0.0,0.0,0.0,0.0,0.0,0.0,0.0,0.0,0.0,0.0,0.0,0.0,0.0,0.0,0.0,0.0,0.0,0.0,0.0,0.0,0.0,0.0,1.8205,1.9128,1.9466,1.913,1.9055,1.9003,0.0,0.0,0.0,0.0,0.0,0.0,0.0,0.0,0.0,0.0,0.0,0.0,0.0,0.0,0.0,0.0,0.0,0.0,0.0,0.0,0.0,0.0,0.0,0.0,0.0,0.0,0.0,0.0,0.0,0.0,0.0,0.0,0.0,0.0,0.0,0.0,0.0,0.0,0.0,0.0,0.0,0.0,0.0,0.0,0.0,0.0,0.0,0.0,0.0,0.0,0.0,0.0,0.0,0.0,0.0,0.0,0.0,0.0,0.0,0.0,0.0,0.0,0.0,0.0,0.0,0.0,0.0,0.0,0.0,0.0,0.0,0.0,0.0,0.0,0.0,0.0,0.0,0.0,0.0,0.0,0.0,0.0,0.0,0.0,0.0,0.0,0.0,0.0,0.0,0.0,0.0,0.0,0.0,0.0,0.0,0.0,0.0,0.0,0.0,0.0,0.0,0.0,0.0,0.0,0.0,0.0,0.0,0.0,0.0,1.9146,1.9488,1.9505,1.9145,1.9078,1.8904,0.0,0.0,0.0,0.0,0.0,0.0,0.0,0.0,0.0,0.0,0.0,0.0,0.0,0.0,0.0,0.0,0.0,0.0,0.0,0.0,0.0,0.0,0.0,0.0,0.0,0.0,0.0,0.0,0.0,0.0,0.0,0.0,0.0,0.0,0.0,0.0,0.0,0.0,0.0,0.0,0.0,0.0,0.0,0.0,0.0,0.0,0.0,0.0,0.0,0.0,0.0,0.0,0.0,0.0,0.0,0.0,0.0,0.0,0.0,0.0,0.0,0.0,0.0,0.0,0.0,0.0,0.0,0.0,0.0,0.0,0.0,0.0,0.0,0.0,0.0,0.0,0.0,0.0,0.0,0.0,0.0,0.0,0.0,0.0,0.0,0.0,0.0,0.0,0.0,0.0,0.0,0.0,0.0,0.0,0.0,0.0,0.0,0.0,0.0,0.0,0.0,0.0,0.0,0.0,0.0,0.0,0.0,0.0,0.0,1.943,0.0,1.8925,1.898,1.887,1.8783,0.0,0.0,0.0,0.0,0.0,0.0,0.0,0.0,0.0,0.0,0.0,0.0,0.0,0.0,0.0,0.0,0.0,0.0,0.0,0.0,0.0,0.0,0.0,0.0,0.0,0.0,0.0,0.0,0.0,0.0,0.0,0.0,0.0,0.0,0.0,0.0,0.0,0.0,0.0,0.0,0.0,0.0,0.0,0.0,0.0,0.0,0.0,0.0,0.0,0.0,0.0,0.0,0.0,0.0,0.0,0.0,0.0,0.0,0.0,0.0,0.0,0.0,0.0,0.0,0.0,0.0,0.0,0.0,0.0,0.0,0.0,0.0,0.0,0.0,0.0,0.0,0.0,0.0,0.0,0.0,0.0,0.0,0.0,0.0,0.0,0.0,0.0,0.0,0.0,0.0,0.0,0.0,0.0,0.0,0.0,0.0,0.0,0.0,0.0,0.0,0.0,0.0,0.0,0.0,0.0,0.0,0.0,0.0,1.9607,1.9015,1.7916,1.7881,1.8721,1.8444,1.8672,0.0,0.0,0.0,0.0,0.0,0.0,0.0,0.0,0.0,0.0,0.0,0.0,0.0,0.0,0.0,0.0,0.0,0.0,0.0,0.0,0.0,0.0,0.0,0.0,0.0,0.0,0.0,0.0,0.0,0.0,0.0,0.0,0.0,0.0,0.0,0.0,0.0,0.0,0.0,0.0,0.0,0.0,0.0,0.0,0.0,0.0,0.0,0.0,0.0,0.0,0.0,0.0,0.0,0.0,0.0,0.0,0.0,0.0,0.0,0.0,0.0,0.0,0.0,0.0,0.0,0.0,0.0,0.0,0.0,0.0,0.0,0.0,0.0,0.0,0.0,0.0,0.0,0.0,0.0,0.0,0.0,0.0,0.0,0.0,0.0,0.0,0.0,0.0,0.0,0.0,0.0,0.0,0.0,0.0,0.0,0.0,0.0,0.0,0.0,0.0,0.0,0.0,0.0,0.0,0.0,0.0,0.0,0.0,0.0,2.2317,2.0041,1.9405,2.058,1.9284,1.8673,0.0,0.0,0.0,0.0,0.0,0.0,0.0,0.0,0.0,0.0,0.0,0.0,0.0,0.0,0.0,0.0,0.0,0.0,0.0,0.0,0.0,0.0,0.0,0.0,0.0,0.0,0.0,0.0,0.0,0.0,0.0,0.0,0.0,0.0,0.0,0.0,0.0,0.0,0.0,0.0,0.0,0.0,0.0,0.0,0.0,0.0,0.0,0.0,0.0,0.0,0.0,0.0,0.0,0.0,0.0,0.0,0.0,0.0,0.0,0.0,0.0,0.0,0.0,0.0,0.0,0.0,0.0,0.0,0.0,0.0,0.0,0.0,0.0,0.0,0.0,0.0,0.0,0.0,0.0,0.0,0.0,0.0,0.0,0.0,0.0,0.0,0.0,0.0,0.0,0.0,0.0,0.0,0.0,0.0,0.0,0.0,0.0,0.0,0.0,0.0,0.0,0.0,0.0,0.0,0.0,0.0,0.0,0.0,0.0,2.4788,2.098,1.9626,2.1084,2.0015,1.9516,1.9756,0.0,0.0,0.0,0.0,0.0,0.0,0.0,0.0,0.0,0.0,0.0,0.0,0.0,0.0,0.0,0.0,0.0,0.0,0.0,0.0,0.0,0.0,0.0,0.0,0.0,0.0,0.0,0.0,0.0,0.0,0.0,0.0,0.0,0.0,0.0,0.0,0.0,0.0,0.0,0.0,0.0,0.0,0.0,0.0,0.0,0.0,0.0,0.0,0.0,0.0,0.0,0.0,0.0,0.0,0.0,0.0,0.0,0.0,0.0,0.0,0.0,0.0,0.0,0.0,0.0,0.0,0.0,0.0,0.0,0.0,0.0,0.0,0.0,0.0,0.0,0.0,0.0,0.0,0.0,0.0,0.0,0.0,0.0,0.0,0.0,0.0,0.0,0.0,0.0,0.0,0.0,0.0,0.0,0.0,0.0,0.0,0.0,0.0,0.0,0.0,0.0,0.0,0.0,0.0,0.0,0.0,0.0,0.0,2.6627,2.1205,1.9137,2.064,2.0767,2.1054,0.0,0.0,0.0,0.0,0.0,0.0,0.0,0.0,0.0,0.0,0.0,0.0,0.0,0.0,0.0,0.0,0.0,0.0,0.0,0.0,0.0,0.0,0.0,0.0,0.0,0.0,0.0,0.0,0.0,0.0,0.0,0.0,0.0,0.0,0.0,0.0,0.0,0.0,0.0,0.0,0.0,0.0,0.0,0.0,0.0,0.0,0.0,0.0,0.0,0.0,0.0,0.0,0.0,0.0,0.0,0.0,0.0,0.0,0.0,0.0,0.0,0.0,0.0,0.0,0.0,0.0,0.0,0.0,0.0,0.0,0.0,0.0,0.0,0.0,0.0,0.0,0.0,0.0,0.0,0.0,0.0,0.0,0.0,0.0,0.0,0.0,0.0,0.0,0.0,0.0,0.0,0.0,0.0,0.0,0.0,0.0,0.0,0.0,0.0,0.0,0.0,0.0,0.0,0.0,0.0,0.0,0.0,0.0,0.0,2.5783,2.4357,2.3881,2.4461,2.3797,2.2927,0.0,0.0,0.0,0.0,0.0,0.0,0.0,0.0,0.0,0.0,0.0,0.0,0.0,0.0,0.0,0.0,0.0,0.0,0.0,0.0,0.0,0.0,0.0,0.0,0.0,0.0,0.0,0.0,0.0,0.0,0.0,0.0,0.0,0.0,0.0,0.0,0.0,0.0,0.0,0.0,0.0,0.0,0.0,0.0,0.0,0.0,0.0,0.0,0.0,0.0,0.0,0.0,0.0,0.0,0.0,0.0,0.0,0.0,0.0,0.0,0.0,0.0,0.0,0.0,0.0,0.0,0.0,0.0,0.0,0.0,0.0,0.0,0.0,0.0,0.0,0.0,0.0,0.0,0.0,0.0,0.0,0.0,0.0,0.0,0.0,0.0,0.0,0.0,0.0,0.0,0.0,0.0,0.0,0.0,0.0,0.0,0.0,0.0,0.0,0.0,0.0,0.0,0.0,0.0,0.0,0.0,0.0,0.0,2.4619,2.6122,2.6355,2.6882,2.7782,2.6688,2.5127,0.0,0.0,0.0,0.0,0.0,0.0,0.0,0.0,0.0,0.0,0.0,0.0,0.0,0.0,0.0,0.0,0.0,0.0,0.0,0.0,0.0,0.0,0.0,0.0,0.0,0.0,0.0,0.0,0.0,0.0,0.0,0.0,0.0,0.0,0.0,0.0,0.0,0.0,0.0,0.0,0.0,0.0,0.0,0.0,0.0,0.0,0.0,0.0,0.0,0.0,0.0,0.0,0.0,0.0,0.0,0.0,0.0,0.0,0.0,0.0,0.0,0.0,0.0,0.0,0.0,0.0,0.0,0.0,0.0,0.0,0.0,0.0,0.0,0.0,0.0,0.0,0.0,0.0,0.0,0.0,0.0,0.0,0.0,0.0,0.0,0.0,0.0,0.0,0.0,0.0,0.0,0.0,0.0,0.0,0.0,0.0,0.0,0.0,0.0,0.0,0.0,0.0,0.0,0.0,0.0,0.0,0.0,0.0,2.5804,2.6779,2.7606,2.8764,3.0205,2.9088,2.7257,0.0,0.0,0.0,0.0,0.0,0.0,0.0,0.0,0.0,0.0,0.0,0.0,0.0,0.0,0.0,0.0,0.0,0.0,0.0,0.0,0.0,0.0,0.0,0.0,0.0,0.0,0.0,0.0,0.0,0.0,0.0,0.0,0.0,0.0,0.0,0.0,0.0,0.0,0.0,0.0,0.0,0.0,0.0,0.0,0.0,0.0,0.0,0.0,0.0,0.0,0.0,0.0,0.0,0.0,0.0,0.0,0.0,0.0,0.0,0.0,0.0,0.0,0.0,0.0,0.0,0.0,0.0,0.0,0.0,0.0,0.0,0.0,0.0,0.0,0.0,0.0,0.0,0.0,0.0,0.0,0.0,0.0,0.0,0.0,0.0,0.0,0.0,0.0,0.0,0.0,0.0,0.0,0.0,0.0,0.0,0.0,0.0,0.0,0.0,0.0,0.0,0.0,0.0,0.0,0.0,0.0,0.0,0.0,2.4984,2.6855,2.8993,3.0259,3.0516,2.9173,2.8119,0.0,0.0,0.0,0.0,0.0,0.0,0.0,0.0,0.0,0.0,0.0,0.0,0.0,0.0,0.0,0.0,0.0,0.0,0.0,0.0,0.0,0.0,0.0,0.0,0.0,0.0,0.0,0.0,0.0,0.0,0.0,0.0,0.0,0.0,0.0,0.0,0.0,0.0,0.0,0.0,0.0,0.0,0.0,0.0,0.0,0.0,0.0,0.0,1.5881,0.0,0.0,0.0,0.0,0.0,0.0,0.0,0.0,0.0,0.0,0.0,0.0,0.0,0.0,0.0,0.0,0.0,0.0,0.0,0.0,0.0,0.0,0.0,0.0,0.0,0.0,0.0,0.0,0.0,0.0,0.0,0.0,0.0,0.0,0.0,0.0,0.0,0.0,0.0,0.0,0.0,0.0,0.0,0.0,0.0,0.0,0.0,0.0,0.0,0.0,0.0,0.0,0.0,0.0,0.0,0.0,0.0,0.0,0.0,2.4985,2.6503,2.8651,3.0117,3.0645,2.887,2.8009,0.0,0.0,0.0,0.0,0.0,0.0,0.0,0.0,0.0,0.0,0.0,0.0,0.0,0.0,0.0,0.0,0.0,0.0,0.0,0.0,0.0,0.0,0.0,0.0,0.0,0.0,0.0,0.0,0.0,0.0,0.0,0.0,0.0,0.0,0.0,0.0,0.0,0.0,0.0,0.0,0.0,0.0,0.0,0.0,0.0,0.0,0.0,0.0,0.0,0.0,0.0,0.0,0.0,0.0,0.0,0.0,0.0,0.0,0.0,0.0,0.0,0.0,0.0,0.0,0.0,0.0,0.0,0.0,0.0,0.0,0.0,0.0,0.0,0.0,0.0,0.0,0.0,0.0,0.0,0.0,0.0,0.0,0.0,0.0,0.0,0.0,0.0,0.0,0.0,0.0,0.0,0.0,0.0,0.0,0.0,0.0,0.0,0.0,0.0,0.0,0.0,0.0,0.0,0.0,0.0,0.0,0.0,2.3759,2.5328,2.6138,2.7922,2.9485,3.0706,2.8722,2.7926,2.8487,0.0,0.0,0.0,0.0,0.0,0.0,0.0,0.0,0.0,0.0,0.0,0.0,0.0,0.0,0.0,0.0,0.0,0.0,0.0,0.0,0.0,0.0,0.0,0.0,0.0,0.0,0.0,0.0,0.0,0.0,0.0,0.0,0.0,0.0,0.0,0.0,0.0,0.0,1.6805,1.7749,0.0,0.0,0.0,0.0,0.0,0.0,0.0,0.0,1.5715,0.0,0.0,0.0,0.0,0.0,0.0,0.0,0.0,0.0,0.0,0.0,0.0,0.0,0.0,0.0,0.0,0.0,0.0,0.0,0.0,0.0,0.0,0.0,0.0,0.0,0.0,0.0,0.0,0.0,0.0,0.0,0.0,0.0,0.0,0.0,0.0,0.0,0.0,0.0,0.0,0.0,0.0,0.0,0.0,0.0,0.0,0.0,0.0,0.0,0.0,0.0,0.0,0.0,0.0,0.0,0.0,2.1153,2.3729,2.5438,2.6198,2.8508,2.9832,3.0101,2.9456,2.94,2.9939,0.0,0.0,0.0,0.0,0.0,0.0,0.0,0.0,0.0,0.0,0.0,0.0,0.0,0.0,0.0,0.0,0.0,0.0,0.0,0.0,0.0,0.0,0.0,0.0,0.0,0.0,0.0,0.0,0.0,0.0,0.0,0.0,0.0,0.0,0.0,0.0,0.0,0.0,0.0,1.7501,1.7822,0.0,0.0,0.0,0.0,0.0,0.0,0.0,0.0,1.6093,0.0,0.0,0.0,0.0,0.0,0.0,0.0,0.0,0.0,0.0,0.0,0.0,0.0,0.0,0.0,0.0,0.0,0.0,0.0,0.0,0.0,0.0,0.0,0.0,0.0,0.0,0.0,0.0,0.0,0.0,0.0,0.0,0.0,0.0,0.0,0.0,0.0,0.0,0.0,0.0,0.0,0.0,0.0,0.0,0.0,0.0,0.0,0.0,0.0,0.0,0.0,0.0,0.0,0.0,0.0,2.2264,2.3373,2.4517,2.5741,2.8073,2.9344,2.9516,2.9105,2.9383,0.0,0.0,0.0,0.0,0.0,0.0,0.0,0.0,0.0,0.0,0.0,0.0,0.0,0.0,0.0,0.0,0.0,0.0,0.0,0.0,0.0,0.0,0.0,0.0,0.0,0.0,0.0,0.0,0.0,0.0,0.0,0.0,0.0,0.0,0.0,0.0,0.0,0.0,0.0,0.0,1.7665,1.8058,1.7656,0.0,0.0,0.0,0.0,0.0,0.0,1.6589,1.6853,0.0,0.0,0.0,0.0,0.0,0.0,0.0,0.0,0.0,0.0,0.0,0.0,0.0,0.0,0.0,0.0,0.0,0.0,0.0,0.0,0.0,0.0,0.0,0.0,0.0,0.0,0.0,0.0,0.0,0.0,0.0,0.0,0.0,0.0,0.0,0.0,0.0,0.0,0.0,0.0,0.0,0.0,0.0,0.0,0.0,0.0,0.0,0.0,0.0,0.0,0.0,0.0,0.0,0.0,0.0,2.3389,2.3393,2.3958,2.5346,2.7532,2.8889,2.9104,2.8657,2.9052,0.0,0.0,0.0,0.0,0.0,0.0,0.0,0.0,0.0,0.0,0.0,0.0,0.0,0.0,0.0,0.0,0.0,0.0,0.0,0.0,0.0,0.0,0.0,0.0,0.0,0.0,0.0,0.0,0.0,0.0,0.0,0.0,0.0,0.0,0.0,0.0,0.0,0.0,0.0,0.0,0.0,1.8315,1.7866,1.7889,0.0,0.0,0.0,0.0,1.6731,1.7464,0.0,0.0,0.0,0.0,0.0,0.0,0.0,0.0,0.0,0.0,0.0,0.0,0.0,0.0,0.0,0.0,0.0,0.0,0.0,0.0,0.0,0.0,0.0,0.0,0.0,0.0,0.0,0.0,0.0,0.0,0.0,0.0,0.0,0.0,0.0,0.0,0.0,0.0,0.0,0.0,0.0,0.0,0.0,0.0,0.0,0.0,0.0,0.0,0.0,0.0,0.0,0.0,0.0,0.0,0.0,0.0,2.3458,2.4382,2.4993,2.5405,2.7642,2.8951,2.9104,2.8641,2.9052,0.0,0.0,0.0,0.0,0.0,0.0,0.0,0.0,0.0,0.0,0.0,0.0,0.0,0.0,0.0,0.0,0.0,0.0,0.0,0.0,0.0,0.0,0.0,0.0,0.0,0.0,0.0,0.0,0.0,0.0,0.0,0.0,0.0,0.0,0.0,0.0,0.0,0.0,0.0,0.0,0.0,1.8156,1.8386,1.8576,1.8479,0.0,0.0,1.8313,1.7269,1.8069,0.0,0.0,0.0,0.0,0.0,0.0,0.0,0.0,0.0,0.0,0.0,0.0,0.0,0.0,0.0,0.0,0.0,0.0,0.0,0.0,0.0,0.0,0.0,0.0,0.0,0.0,0.0,0.0,0.0,0.0,0.0,0.0,0.0,0.0,0.0,0.0,0.0,0.0,0.0,0.0,0.0,0.0,0.0,0.0,0.0,0.0,0.0,0.0,0.0,0.0,0.0,0.0,0.0,0.0,0.0,2.1835,2.4027,2.3918,2.4297,2.5313,2.7294,2.8591,2.9074,2.8375,2.896,0.0,0.0,0.0,0.0,0.0,0.0,0.0,0.0,0.0,0.0,0.0,0.0,0.0,0.0,0.0,0.0,0.0,0.0,0.0,0.0,0.0,0.0,0.0,0.0,0.0,0.0,0.0,0.0,0.0,0.0,0.0,0.0,0.0,0.0,0.0,0.0,0.0,0.0,0.0,0.0,0.0,0.0,1.896,1.9405,0.0,0.0,0.0,1.9915,1.9152,0.0,0.0,0.0,0.0,0.0,0.0,0.0,0.0,0.0,0.0,0.0,0.0,0.0,0.0,0.0,0.0,0.0,0.0,0.0,0.0,0.0,0.0,0.0,0.0,0.0,0.0,0.0,0.0,0.0,0.0,0.0,0.0,0.0,0.0,0.0,0.0,0.0,0.0,0.0,0.0,0.0,0.0,0.0,0.0,0.0,0.0,0.0,0.0,0.0,0.0,0.0,0.0,0.0,0.0,0.0,0.0,0.0,2.4517,2.3493,2.3649,2.5283,2.7003,2.8304,2.9058,2.8324,0.0,0.0,0.0,0.0,0.0,0.0,0.0,0.0,0.0,0.0,0.0,0.0,0.0,0.0,0.0,0.0,0.0,0.0,0.0,0.0,0.0,0.0,0.0,0.0,0.0,0.0,0.0,1.7109,0.0,0.0,0.0,0.0,0.0,0.0,0.0,0.0,0.0,0.0,0.0,0.0,0.0,0.0,1.9356,1.946,2.0161,2.0429,0.0,0.0,2.1119,2.0527,2.0119,1.9737,0.0,0.0,0.0,0.0,0.0,0.0,0.0,0.0,0.0,0.0,0.0,0.0,0.0,0.0,0.0,0.0,0.0,0.0,0.0,0.0,0.0,0.0,0.0,0.0,0.0,0.0,0.0,0.0,0.0,0.0,0.0,0.0,0.0,0.0,0.0,0.0,0.0,0.0,0.0,0.0,0.0,0.0,0.0,0.0,0.0,0.0,0.0,0.0,0.0,0.0,0.0,0.0,0.0,0.0,2.2002,2.446,2.3493,2.3664,2.5269,2.7003,2.8288,2.9058,2.879,2.9554,0.0,0.0,0.0,0.0,0.0,0.0,0.0,0.0,0.0,0.0,0.0,0.0,0.0,0.0,0.0,0.0,0.0,0.0,0.0,0.0,0.0,0.0,0.0,0.0,0.0,0.0,0.0,0.0,0.0,0.0,0.0,0.0,0.0,0.0,0.0,0.0,0.0,0.0,0.0,0.0,0.0,2.0329,1.9744,2.075,2.1268,0.0,2.1009,2.1265,2.0585,2.0573,2.0525,2.0241,0.0,0.0,0.0,0.0,0.0,0.0,0.0,0.0,0.0,0.0,0.0,0.0,0.0,0.0,0.0,0.0,0.0,0.0,0.0,0.0,0.0,0.0,0.0,0.0,0.0,0.0,0.0,0.0,0.0,0.0,0.0,0.0,0.0,0.0,0.0,0.0,0.0,0.0,0.0,0.0,0.0,0.0,0.0,0.0,0.0,0.0,0.0,0.0,0.0,0.0,0.0,0.0,0.0,2.2448,2.4737,2.3931,2.4104,2.5298,2.6738,2.7993,2.9074,2.8573,2.9302,0.0,0.0,0.0,0.0,0.0,0.0,0.0,0.0,0.0,0.0,0.0,0.0,0.0,0.0,0.0,0.0,0.0,0.0,0.0,0.0,0.0,0.0,0.0,0.0,0.0,0.0,0.0,0.0,1.8385,1.8837,1.9749,0.0,0.0,0.0,0.0,0.0,0.0,0.0,0.0,0.0,0.0,2.0253,2.0637,2.1426,0.0,0.0,2.1974,2.2431,2.1896,2.1265,2.0803,2.0764,2.0054,0.0,0.0,0.0,0.0,0.0,0.0,0.0,0.0,0.0,0.0,0.0,0.0,0.0,0.0,0.0,0.0,0.0,0.0,0.0,0.0,0.0,0.0,0.0,0.0,0.0,0.0,0.0,0.0,0.0,0.0,0.0,0.0,0.0,0.0,0.0,0.0,0.0,0.0,0.0,0.0,0.0,0.0,0.0,0.0,0.0,0.0,0.0,0.0,0.0,0.0,0.0,0.0,2.3506,2.5444,2.4617,2.463,2.5545,2.6657,2.7745,2.8779,2.8493,2.9307,0.0,0.0,0.0,0.0,0.0,0.0,0.0,0.0,0.0,0.0,0.0,0.0,0.0,0.0,0.0,0.0,0.0,0.0,0.0,0.0,0.0,0.0,0.0,0.0,0.0,0.0,0.0,0.0,1.9094,1.952,2.002,0.0,0.0,0.0,0.0,0.0,0.0,0.0,0.0,0.0,0.0,2.0497,2.1139,2.2212,2.2843,2.2523,2.3336,2.38,2.3311,2.2088,2.1192,2.1143,0.0,0.0,0.0,0.0,0.0,0.0,0.0,0.0,0.0,0.0,0.0,0.0,0.0,0.0,0.0,0.0,0.0,0.0,0.0,0.0,0.0,0.0,0.0,0.0,0.0,0.0,0.0,0.0,0.0,0.0,2.7072,0.0,0.0,0.0,0.0,0.0,0.0,0.0,0.0,0.0,0.0,0.0,0.0,0.0,0.0,0.0,0.0,0.0,0.0,0.0,0.0,0.0,0.0,2.5243,2.6692,2.5458,2.5223,2.6164,2.6842,2.7545,2.8304,2.881,2.9667,3.0907,0.0,0.0,0.0,0.0,0.0,0.0,0.0,0.0,0.0,0.0,0.0,0.0,0.0,0.0,0.0,0.0,0.0,0.0,0.0,0.0,0.0,0.0,0.0,0.0,0.0,0.0,2.0259,2.0367,1.9959,0.0,0.0,0.0,0.0,0.0,0.0,0.0,0.0,0.0,0.0,2.0512,2.1416,2.1059,2.3084,2.4445,2.4474,2.5056,2.5254,2.4637,2.3101,2.1872,0.0,0.0,0.0,0.0,0.0,0.0,0.0,0.0,0.0,0.0,0.0,0.0,0.0,0.0,0.0,0.0,0.0,0.0,0.0,0.0,0.0,0.0,0.0,0.0,0.0,0.0,0.0,2.9817,2.9708,0.0,0.0,0.0,0.0,0.0,0.0,0.0,0.0,0.0,0.0,0.0,3.0234,2.9827,0.0,0.0,0.0,0.0,0.0,0.0,0.0,0.0,0.0,0.0,0.0,0.0,2.5763,2.6721,2.6025,2.5775,2.6223,2.6944,2.766,2.8304,2.8826,2.982,3.1309,0.0,0.0,0.0,0.0,0.0,0.0,0.0,0.0,0.0,0.0,0.0,0.0,0.0,0.0,0.0,0.0,0.0,0.0,0.0,0.0,0.0,0.0,0.0,0.0,0.0,2.0337,0.0,0.0,0.0,0.0,0.0,0.0,0.0,0.0,0.0,0.0,0.0,2.0091,2.0093,2.0345,2.0616,2.0822,2.1623,2.2289,0.0,0.0,0.0,0.0,0.0,0.0,0.0,0.0,0.0,0.0,0.0,0.0,0.0,0.0,1.7754,1.6751,1.6263,1.5861,1.5684,0.0,0.0,0.0,0.0,0.0,0.0,0.0,0.0,0.0,0.0,0.0,0.0,0.0,0.0,3.1054,0.0,3.1022,0.0,0.0,0.0,0.0,0.0,0.0,0.0,0.0,3.0264,3.0148,3.0338,2.993,3.0002,0.0,3.0645,3.0426,0.0,0.0,0.0,0.0,0.0,0.0,0.0,0.0,2.6586,2.7084,2.6745,2.6667,2.6916,2.7639,2.8248,2.8743,2.9224,3.0084,3.1298,3.1548,3.188,0.0,0.0,0.0,0.0,0.0,0.0,0.0,0.0,0.0,0.0,0.0,0.0,0.0,0.0,0.0,0.0,0.0,0.0,0.0,0.0,0.0,0.0,0.0,2.1874,0.0,0.0,0.0,0.0,0.0,0.0,0.0,0.0,0.0,2.0887,2.0237,1.9934,2.0249,2.0137,2.0144,2.0547,0.0,0.0,0.0,0.0,0.0,0.0,0.0,2.2328,2.1815,2.1832,2.1938,2.1761,2.1304,2.0888,2.0819,0.0,0.0,1.7026,1.6333,1.5869,1.5879,1.5996,1.6055,1.5908,1.5742,1.5596,0.0,0.0,0.0,0.0,0.0,0.0,0.0,0.0,3.1205,3.1131,0.0,3.0825,0.0,0.0,0.0,0.0,0.0,3.0988,0.0,0.0,2.9389,2.9415,3.0031,3.016,3.0174,3.0245,3.0881,3.0778,2.9987,2.974,0.0,0.0,0.0,0.0,0.0,0.0,2.7781,2.781,2.7766,2.7915,2.8237,2.8773,2.9262,2.9604,3.0038,3.0482,3.0962,3.2159,3.2951,3.3048,3.3064,0.0,0.0,0.0,0.0,0.0,0.0,0.0,0.0,0.0,0.0,0.0,0.0,0.0,0.0,0.0,0.0,0.0,0.0,0.0,0.0,2.2561,0.0,0.0,0.0,0.0,0.0,0.0,0.0,0.0,0.0,0.0,2.1476,2.0535,1.986,1.9896,0.0,0.0,0.0,0.0,2.3271,2.3852,2.4572,2.4862,2.478,2.389,2.2959,2.24,0.0,0.0,2.3055,2.2151,2.133,2.1095,1.9745,1.8545,1.8065,1.7246,1.668,1.6699,1.6982,1.7178,1.6807,1.6348,1.5977,3.3181,0.0,0.0,0.0,0.0,3.2941,3.3033,3.2505,3.2945,3.3136,3.3088,3.2917,0.0,0.0,0.0,0.0,0.0,0.0,3.2655,3.2528,3.2401,3.2229,3.2073,3.2134,3.2195,3.2195,3.2387,3.209,3.1396,3.0896,3.088,3.1206,0.0,0.0,0.0,0.0,2.9073,2.9058,2.8861,2.8668,2.8697,2.9024,2.9426,2.9704,2.9627,3.014,3.1356,3.155,3.2482,3.4264,3.3486,0.0,0.0,0.0,0.0,0.0,0.0,0.0,0.0,0.0,0.0,0.0,0.0,0.0,0.0,0.0,0.0,0.0,0.0,0.0,2.354,2.5019,2.5521,0.0,0.0,0.0,0.0,0.0,0.0,0.0,0.0,0.0,2.2623,2.1781,2.1287,0.0,0.0,2.1498,2.135,2.1686,2.2018,2.224,2.2339,0.0,2.2515,2.2748,2.282,2.2385,2.2412,2.2494,2.2478,2.1753,2.1151,2.1112,1.9668,1.8449,1.826,1.7385,1.6748,1.6675,1.6836,1.6885,1.6758,1.6621,1.6514,3.4603,3.3523,3.3461,3.3283,3.3028,3.375,3.3706,3.3191,3.3591,3.3769,3.3735,3.3593,3.3662,3.3833,3.3521,0.0,0.0,0.0,3.3506,3.3436,3.35,3.3372,3.3129,3.3161,3.3223,3.3238,3.3476,3.3206,3.2522,3.2404,3.2267,3.2046,0.0,0.0,3.0908,3.006,2.9493,2.9304,2.9272,2.9285,2.93,2.9776,2.9985,2.9924,2.9997,3.0492,3.1357,3.1726,3.2734,3.4496,3.4071,3.3549,0.0,0.0,0.0,0.0,0.0,0.0,0.0,0.0,0.0,0.0,0.0,2.1506,2.1354,0.0,0.0,0.0,2.1494,2.2583,2.4786,2.5865,0.0,0.0,0.0,0.0,0.0,0.0,0.0,2.4198,2.417,2.4019,2.3513,2.3249,2.2847,2.2122,2.1864,2.1693,2.1589,0.0,2.1568,2.1782,2.1763,2.1781,2.2121,2.258,2.2845,2.2533,2.2565,2.242,2.1851,2.14,2.0933,2.0311,1.9393,1.851,1.8268,1.7665,1.7168,1.7031,1.7129,1.7236,1.7236,1.7236,1.7246,3.6237,3.5729,3.5517,3.518,3.4651,3.4554,3.4241,3.3814,3.3829,3.3737,3.3642,3.3535,3.3724,3.4006,3.4538,0.0,3.3977,3.3877,3.3583,3.3184,3.3354,3.3431,3.3493,3.3617,3.3664,3.3679,3.4262,3.417,3.3464,3.3906,3.3813,3.3037,3.1101,3.0176,3.0233,2.99,2.9522,2.908,2.9522,2.9828,2.9958,3.0705,3.0807,3.016,3.0865,3.1252,3.1174,3.2413,3.3371,3.3984,3.4497,3.4284,3.3245,0.0,0.0,0.0,0.0,0.0,0.0,0.0,0.0,0.0,0.0,0.0,0.0,0.0,0.0,2.2374,2.2923,0.0,2.5186,2.5772,0.0,0.0,0.0,2.6814,2.7162,2.5884,2.5199,2.5816,0.0,0.0,2.4142,2.4645,2.4279,2.2053,2.1452,2.1292,2.1468,2.165,2.1807,2.2309,2.2372,2.256,2.2877,2.304,2.2944,2.2689,2.269,2.2297,2.1388,2.1008,2.0473,1.9309,1.8967,1.8731,1.8183,1.8037,1.7949,1.7627,1.7822,1.8057,1.8096,1.8115,1.8056,3.7389,3.7689,3.7635,3.7045,3.6043,3.644,3.6544,3.6492,3.6477,3.6477,3.638,3.577,3.4955,3.4006,3.4589,3.4515,3.3991,3.4398,3.4625,3.4688,3.4753,3.4832,3.4976,3.504,3.5026,3.504,3.5175,3.4906,3.4215,3.4334,3.408,3.3376,3.2792,3.2196,3.1574,3.1028,3.0646,3.0406,3.0646,3.0675,3.0602,3.0689,3.0629,3.0469,3.0733,3.113,3.1566,3.2093,3.261,3.3214,3.3475,3.3435,3.3147,3.2813,0.0,0.0,0.0,0.0,0.0,0.0,0.0,0.0,0.0,2.4746,2.4608,0.0,2.5172,0.0,2.6216,2.6565,2.6379,2.82,0.0,0.0,2.92,2.9481,2.8119,2.7695,2.7311,2.6668,2.5512,2.4694,2.4849,2.463,2.4149,2.3282,2.3195,2.3111,2.3119,2.288,2.2786,2.284,2.2852,2.2987,2.304,2.303,2.2909,2.2739,2.2543,2.2161,2.1262,2.0688,2.0031,1.9177,1.8586,1.832,1.8408,1.8416,1.8584,1.874,1.8662,1.8594,1.8906,1.8975,1.8846,3.9394,3.9723,3.9723,3.9305,3.8631,3.8078,3.7853,3.7823,3.7539,3.7404,3.7389,3.6909,3.6276,3.5525,3.5466,3.5385,3.5124,3.5037,3.5148,3.5359,3.5359,3.5374,3.5489,3.5489,3.5489,3.5489,3.5489,3.531,3.4966,3.4951,3.4592,3.3948,3.3871,3.3434,3.2657,3.2211,3.1836,3.1616,3.1107,3.0918,3.111,3.0788,3.0713,3.0974,3.0848,3.1117,3.1723,3.1959,3.2379,3.2989,3.3457,3.3537,3.3238,3.3038,3.2586,0.0,0.0,0.0,0.0,0.0,0.0,0.0,0.0,0.0,0.0,0.0,2.7155,2.8298,2.8282,2.8372,2.8774,2.9882,3.0458,3.0347,3.0637,3.0648,3.0117,2.8986,2.8264,2.816,2.6452,2.532,2.5476,2.528,2.4735,2.3866,2.3752,2.3685,2.3491,2.3205,2.3125,2.3125,2.3125,2.3125,2.3125,2.3017,2.2848,2.2408,2.2149,2.169,2.0549,1.989,1.9375,1.8721,1.8269,1.8076,1.8311,1.8455,1.8769,1.9068,1.8883,1.8711,1.8909,1.8957,1.8769,4.1429,4.1504,4.1504,4.1549,4.1489,3.9664,3.8856,3.8721,3.8063,3.7689,3.7539,3.7539,3.7494,3.7375,3.6701,3.6447,3.6582,3.58,3.5598,3.5759,3.5669,3.5624,3.5639,3.5564,3.5489,3.5489,3.5489,3.5489,3.5489,3.5489,3.519,3.4637,3.4592,3.4322,3.3707,3.3413,3.3063,3.2503,3.156,3.1281,3.1642,3.1119,3.1032,3.1467,3.111,3.1112,3.1611,3.1837,3.2194,3.2798,3.3547,3.3768,3.3349,3.315,3.2826,0.0,3.1955,0.0,0.0,0.0,0.0,0.0,0.0,0.0,0.0,2.8588,2.9426,3.0499,2.975,2.9818,3.1214,3.1055,3.1275,3.222,3.1383,3.1156,3.1891,3.0209,2.9133,2.9671,2.8048,2.6758,2.63,2.6299,2.5686,2.4466,2.4227,2.4041,2.3441,2.3203,2.3125,2.3125,2.3125,2.3125,2.3078,2.3078,2.2775,2.2063,2.1753,2.1049,1.9552,1.9239,1.8869,1.831,1.8184,1.8262,1.8301,1.8643,1.8975,1.9531,1.9193,1.8843,1.8784,1.8629,1.8355,4.1683,4.2162,4.2254,4.2476,4.288,4.1998,4.1309,4.0771,4.0113,3.923,3.8212,3.8212,3.7898,3.7419,3.7216,3.7225,3.7225,3.7037,3.7045,3.703,3.6537,3.6297,3.6267,3.5759,3.5489,3.5489,3.5489,3.5489,3.5489,3.5489,3.5444,3.531,3.531,3.517,3.4922,0.0,0.0,0.0,3.3337,3.3258,3.2367,3.2222,3.1946,3.154,3.1409,0.0,3.0831,3.0984,3.1102,3.1235,3.2154,0.0,0.0,0.0,0.0,0.0,0.0,0.0,0.0,0.0,0.0,0.0,3.1832,3.1297,3.0765,3.1347,3.1404,3.056,3.1225,3.1461,3.0726,3.2042,3.2582,3.1668,3.2222,3.2289,3.1374,3.2299,3.2244,2.9382,2.9099,2.8782,2.7767,2.7222,2.6634,2.605,2.5975,2.5586,2.4632,2.3679,2.3163,2.3125,2.3125,2.3125,2.3125,2.3017,2.2592,2.1877,2.1502,2.0816,1.9505,1.9385,1.9328,1.8665,1.8809,1.9258,1.9883,1.9873,1.9883,2.0703,2.0094,1.9597,1.9507,1.9011,1.8471,4.2536,0.0,4.2851,4.303,0.0,4.2985,4.2656,4.2267,4.1309,4.0307,3.9364,3.9035,3.8706,3.8377,3.8048,3.7898,3.7883,3.7554,3.7404,3.7389,3.709,3.6941,3.6941,3.6611,3.6447,3.6447,3.6447,3.6447,3.6432,3.6447,3.6297,3.5983,3.5983,3.5753,3.5374,3.5133,3.4596,3.3718,3.4185,3.3973,3.3006,3.2687,3.2498,3.2469,3.2179,0.0,0.0,0.0,0.0,0.0,0.0,0.0,0.0,0.0,0.0,3.4156,3.3777,3.3616,3.3891,3.363,3.347,3.3456,3.347,3.305,3.209,3.232,3.2241,3.1561,3.2385,3.2702,3.2027,3.2819,3.3053,3.2361,3.2469,3.229,3.1723,3.2495,3.2355,3.0394,2.9855,2.949,2.8573,2.7961,2.741,2.6967,2.6866,2.6565,2.5686,2.4443,2.3489,2.314,2.3125,2.3125,2.3065,2.275,2.2382,2.1794,2.1308,2.0555,1.9637,1.9575,1.9515,1.9046,1.915,1.9512,2.0068,2.0215,2.0449,2.0905,2.0227,1.9587,1.9577,1.8948,1.824,4.3569,4.3658,4.3554,4.3509,4.3509,4.3374,4.3344,4.3254,0.0,0.0,0.0,4.0008,3.9694,3.9559,3.9005,3.8676,3.8542,3.8003,3.7778,3.7764,3.7629,3.7584,3.7584,3.7479,3.7404,3.7404,3.7404,3.7404,3.7404,3.7404,3.715,3.6701,3.6641,3.6372,3.5732,3.5053,3.4727,3.4777,3.4574,3.4186,3.363,3.3122,3.305,3.3536,3.2962,3.2875,3.3267,3.2902,3.2922,3.3419,3.3275,3.3338,3.3918,3.3401,3.3366,3.382,3.3747,3.3862,3.437,3.4414,3.4414,3.4414,3.4414,3.3964,3.2919,3.2861,3.2846,3.2846,3.3325,3.3645,3.363,3.3496,3.3297,3.3087,3.2434,3.2001,3.1723,3.1723,3.1355,3.0781,3.0154,2.9648,2.9126,2.8712,2.8197,2.772,2.762,2.7256,2.6452,2.5109,2.3891,2.3288,2.3125,2.3065,2.2871,2.2494,2.1981,2.1411,2.0863,2.0366,1.987,1.9733,1.9604,1.9468,1.9492,1.9853,2.0215,2.0615,2.0937,2.1367,2.0198,1.9307,1.9431,1.8775,1.791,4.4496,4.4975,4.4407,4.4182,4.4137,4.3569,4.3344,4.3269,4.2536,4.1848,4.1235,4.1145,4.0786,4.0262,4.0157,3.9813,3.929,3.9185,3.914,0.0,3.8527,3.8257,3.8227,3.7674,3.7404,3.7404,3.7404,3.7404,3.7404,3.7419,3.736,3.73,3.7285,3.7103,3.6625,3.5248,3.4752,3.5281,3.4714,3.4409,3.4283,3.4182,3.392,3.3485,3.3383,3.3108,3.2672,3.2571,3.2556,3.2658,3.3258,3.3665,3.3768,3.4142,3.4464,3.4551,3.4351,3.4327,3.4399,3.4414,3.4414,3.4414,3.4414,3.4327,3.4167,3.4153,3.4153,3.4138,3.4196,3.4283,3.4283,3.4206,3.3604,3.2434,3.216,3.1576,3.0355,3.0228,3.0139,2.9998,2.9858,2.977,2.9591,2.9528,2.9239,2.8812,2.8524,2.8147,2.6779,2.546,2.433,2.3414,2.3125,2.2871,2.2433,2.2175,2.1537,2.0303,2.0409,2.0176,1.9364,1.977,2.0019,1.9844,2.0371,2.0977,2.1455,2.165,2.1836,2.2094,2.0798,1.9641,1.9638,1.8502,1.7439,4.502,4.5244,4.496,4.4646,4.4257,4.3614,4.3344,4.3314,4.3015,4.2506,4.1908,4.1534,4.1205,4.095,4.0935,4.0771,4.0487,4.0487,4.0487,4.0427,3.9798,3.9484,3.9424,3.8811,3.8497,3.8512,3.8497,3.8497,3.8512,3.8497,3.8317,3.7943,3.7461,3.7089,3.6866,3.6032,3.5662,3.5851,3.4907,3.4414,3.4414,3.4414,3.4283,3.3993,3.3978,3.3848,3.3558,3.3543,3.3543,3.3543,3.3551,3.3733,3.4083,3.4068,3.4199,3.452,3.4481,3.4414,3.4414,3.4414,3.4269,3.3935,3.3906,3.3906,3.3906,3.4211,3.4414,3.4414,3.4414,3.4414,3.4346,3.3687,3.2875,3.216,3.1368,3.0583,2.9934,2.9779,2.9779,2.9779,2.9779,2.9779,2.9779,2.9779,2.9578,2.9051,2.8925,2.8486,2.7482,2.6653,2.5523,2.3942,2.3269,2.2812,2.2185,2.1416,2.0896,2.0368,2.0292,2.0182,1.9795,2.0257,2.0523,2.0586,2.1006,2.1465,2.206,2.2227,2.2412,2.2562,2.1244,2.0162,1.9749,1.8509,1.7404,4.5618,4.5738,4.5589,4.514,4.4496,4.3988,4.3778,4.3763,4.3629,4.3269,4.2746,4.2117,4.1743,4.1609,4.1594,4.1534,4.1399,4.1384,4.1384,4.1324,4.0861,4.0576,4.0427,4.0053,3.9666,3.9501,3.9666,3.9783,3.9679,3.9798,3.9604,3.8979,3.821,3.7686,3.7487,3.7036,3.6748,3.646,3.5415,3.4835,3.4835,3.4704,3.4617,3.4632,3.4486,3.4414,3.4414,3.4414,3.4414,3.4385,3.3804,3.3688,3.4138,3.3732,3.363,3.3964,3.4124,3.4138,3.3993,3.3978,3.3833,3.3499,3.334,3.3383,3.3674,3.3978,3.4196,3.4211,3.4095,3.4113,3.3962,3.2946,3.2001,3.1796,3.0784,3.0075,2.9856,2.9779,2.9779,2.9779,2.9779,2.9779,2.9779,2.9779,2.9553,2.9076,2.8925,2.8712,2.8185,2.7632,2.649,2.4884,2.3615,2.2767,2.2025,2.1039,2.0446,2.0485,2.0142,2.0043,2.0219,2.0556,2.0957,2.1084,2.1406,2.1787,2.2363,2.2598,2.2668,2.2591,2.1284,2.0034,1.9389,1.8311,1.7333,4.6561,4.698,4.6471,4.5843,4.5214,4.511,4.505,4.4975,4.4481,4.4197,4.3988,4.3449,4.2806,4.2327,4.2267,4.1968,4.1474,4.1399,4.1429,4.1444,4.1324,4.1084,4.0739,4.101,4.0562,3.9728,4.0636,4.0801,4.0367,4.0861,4.1069,4.0814,4.0144,3.9595,3.9132,3.8047,3.7434,3.7215,3.6504,3.6141,3.6098,3.5575,3.527,3.527,3.4719,3.4414,3.4414,3.4414,3.4414,3.437,3.3804,3.3499,3.3558,3.3565,3.3253,3.2803,3.3253,3.3311,3.2803,3.2687,3.2948,3.3354,3.2948,3.3093,3.408,3.3819,3.3558,3.3521,3.3386,3.3353,3.3297,3.2506,3.1783,3.118,3.0833,3.0545,2.9921,2.9779,2.9779,2.9779,2.9779,2.9779,2.9779,2.9754,2.9541,2.9101,2.8963,2.8775,2.8285,2.7711,2.6813,2.5399,2.4246,2.2846,2.1497,2.0885,2.0339,1.9624,1.9503,1.9687,2.0015,2.0486,2.0987,2.1299,2.1816,2.2266,2.2549,2.2697,2.2698,2.2013,2.0962,1.9687,1.8141,1.7419,1.7333,4.7055,4.7279,4.701,4.6516,4.5903,4.5469,4.508,4.4721,4.487,4.4676,4.4317,4.4018,4.3554,4.2955,4.294,4.2776,4.2551,4.2536,4.2536,4.2491,4.2162,4.1771,4.1501,4.1368,4.1205,4.0965,4.1265,4.125,4.107,4.1204,4.108,4.0834,4.0462,4.0,3.9466,3.8908,3.8306,3.7839,3.7564,3.7418,3.7317,3.6431,3.5735,3.5372,3.5111,3.4791,3.4457,3.4414,3.4414,3.437,3.3804,3.363,3.3993,3.3311,3.2962,3.3035,3.2962,3.2962,3.3079,3.273,3.2788,3.3493,3.2875,3.2774,3.3144,3.2709,3.2145,3.1931,3.2563,3.3087,3.2563,3.1856,3.1254,3.0882,3.0545,3.0126,2.9856,2.9779,2.9779,2.9779,2.9779,2.9779,2.9729,2.949,2.9352,2.9302,2.9189,2.8837,2.8512,2.7916,2.6819,2.5427,2.4261,2.3086,2.1527,2.077,2.0317,1.9926,1.991,2.0099,2.0112,2.0355,2.0869,2.1465,2.1963,2.2441,2.2842,2.2417,2.2059,2.1329,2.0331,1.8964,1.7598,1.7326,1.7333,4.7309,4.7309,4.7309,4.7025,4.6561,4.6067,4.5574,4.5185,4.5454,4.5289,4.484,4.4496,4.4047,4.3629,4.3419,4.3344,4.3344,4.3344,4.3344,4.3284,4.2836,4.2581,4.2354,4.2025,4.1938,4.2136,4.1891,4.1784,4.1754,4.1614,4.1396,4.1116,4.0876,4.0397,3.9959,3.9644,3.9131,3.8536,3.8478,3.8391,3.8101,3.7302,3.6533,3.5952,3.572,3.5314,3.4719,3.4675,3.4588,3.4414,3.3819,3.3674,3.4066,3.3108,3.2643,3.2832,3.2338,3.2266,3.2875,3.2498,3.2535,3.3019,3.2522,3.2256,3.2208,3.1626,3.0971,3.0606,3.142,3.1771,3.1384,3.0585,3.0141,3.008,2.9606,2.9327,2.9302,2.934,2.9352,2.9515,2.9503,2.9628,2.9691,2.9465,2.9327,2.9402,2.9315,2.9051,2.8812,2.8157,2.709,2.5634,2.4489,2.3132,2.1672,2.1047,2.0524,2.0278,2.0244,2.0206,2.0262,2.0525,2.0918,2.1641,2.1953,2.2175,2.2351,2.2013,2.1239,2.0692,1.9604,1.8241,1.7419,1.7333,1.7333,4.7309,4.7309,4.7309,4.7279,4.7234,4.7174,4.7145,4.6845,4.6501,4.6232,4.5978,4.4885,4.4317,4.4212,4.3658,4.3344,4.3344,4.3344,4.3344,4.3329,4.3314,4.3284,4.3205,4.3001,4.2808,4.2772,4.2723,4.2651,4.2636,4.257,4.2534,4.2231,4.1646,4.1244,4.0909,4.0321,3.977,3.9218,3.9146,3.8884,3.8333,3.8173,3.7796,3.723,3.6591,3.5967,3.5372,3.5369,3.5038,3.4428,3.3804,3.3499,3.3499,3.2919,3.2324,3.1772,3.1119,3.1047,3.17,3.1681,3.1846,3.2249,3.1822,3.1595,3.1926,3.1073,3.036,3.0118,2.9768,2.9566,2.9437,2.898,2.8457,2.8445,2.8321,2.8273,2.8247,2.836,2.8448,2.8875,2.9101,2.9327,2.9729,2.9779,2.949,2.9327,2.944,2.9528,2.89,2.813,2.7198,2.6228,2.4781,2.3145,2.1533,2.1156,2.0897,2.0658,2.0417,2.0189,2.0522,2.0906,2.1311,2.1846,2.2373,2.2419,2.1957,2.1338,2.052,1.9704,1.8519,1.752,1.7333,1.7333,1.7239,4.7309,4.7309,4.7309,4.7309,4.7309,4.7309,4.707,4.6711,4.689,4.6711,4.6217,4.5334,4.4945,4.49,4.4257,4.3718,4.3359,4.3344,4.3344,4.331,4.3617,4.356,4.3375,4.3797,4.3847,4.3573,4.3779,4.3622,4.3104,4.3075,4.2787,4.2272,4.2024,4.1607,4.112,4.0858,4.0423,3.9842,3.977,3.9654,3.9363,3.9044,3.8725,3.8478,3.7506,3.6446,3.547,3.5427,3.5067,3.4443,3.3804,3.3645,3.3964,3.347,3.3021,3.2745,3.2179,3.228,3.3042,3.2105,3.1848,3.2665,3.1834,3.1225,3.1284,3.0713,2.9992,2.9412,2.853,2.8081,2.8074,2.8028,2.8109,2.8109,2.8097,2.8072,2.8109,2.8122,2.8323,2.885,2.9227,2.9591,2.9691,2.9779,2.9704,2.9541,2.9666,2.9503,2.8923,2.7999,2.7056,2.5972,2.4788,2.345,2.2293,2.1714,2.1422,2.1189,2.0933,2.0737,2.0894,2.1007,2.1416,2.1816,2.2461,2.2282,2.1514,2.024,1.9521,1.8519,1.7426,1.7333,1.7333,1.7138,1.6951,4.7309,4.7309,4.7309,4.7309,4.7309,4.7309,4.7055,4.6711,4.7013,4.6954,4.6576,4.5848,4.555,4.5514,4.4863,4.4325,4.3841,4.3826,4.3811,4.3856,4.4109,4.4048,4.3838,4.4255,4.4564,4.4564,4.4449,4.406,4.3595,4.3277,4.2956,4.2426,4.2208,4.1889,4.1482,4.1424,4.1091,4.0554,4.0423,4.0336,4.006,3.9509,3.9204,3.9044,3.8159,3.7099,3.604,3.5996,3.5575,3.4806,3.4298,3.4095,3.4066,3.3703,3.3369,3.3137,3.2759,3.2833,3.3403,3.2443,3.1845,3.2354,3.1636,3.0975,3.0699,3.0129,2.9525,2.8882,2.8015,2.7293,2.7306,2.7457,2.757,2.757,2.757,2.757,2.7582,2.757,2.7908,2.8561,2.9315,2.9704,2.9779,2.9779,2.9779,2.9779,2.9779,2.9591,2.9135,2.8252,2.7209,2.6199,2.5172,2.4108,2.3095,2.2449,2.1911,2.1603,2.1187,2.1078,2.1163,2.1282,2.1423,2.1792,2.1768,2.1581,2.0748,1.9397,1.8334,1.7512,1.7239,1.7232,1.7138,1.685,1.6487,4.7309,4.7309,4.7309,4.7309,4.7309,4.7309,4.7309,4.7163,4.7004,4.7061,4.6969,4.6304,4.6047,4.6058,4.5322,4.4956,4.4911,4.4941,4.4897,4.4807,4.4659,4.4604,4.4505,4.4511,4.4934,4.5661,4.4659,4.4138,4.3964,4.3556,4.3137,4.2919,4.2426,4.2179,4.2092,4.202,4.1729,4.1236,4.1091,4.08,4.0147,3.9668,3.9392,3.9276,3.8609,3.7941,3.7331,3.723,3.6577,3.5517,3.5285,3.4801,3.3877,3.3769,3.334,3.2962,3.2658,3.2579,3.2436,3.2302,3.1789,3.1269,3.093,3.0543,2.9974,2.9429,2.9051,2.8887,2.8132,2.7394,2.7356,2.7067,2.6728,2.6559,2.664,2.6653,2.659,2.6634,2.6929,2.8059,2.9101,2.9729,2.9779,2.9779,2.9779,2.9779,2.9779,2.9767,2.9589,2.8743,2.8016,2.7082,2.5705,2.4426,2.3761,2.3132,2.2501,2.1917,2.1476,2.1168,2.1302,2.1481,2.1525,2.1745,2.0989,2.0748,1.9892,1.8603,1.7971,1.7333,1.7232,1.7044,1.6763,1.6386,1.5852,4.7309,4.7309,4.7309,4.7309,4.7309,4.7309,4.7309,4.7309,4.7207,4.7133,4.6852,4.639,4.6167,4.6051,4.5758,4.5584,4.5442,4.5623,4.5417,4.4855,4.4934,4.5009,4.4966,4.5215,4.555,4.5785,4.549,4.5053,4.4632,4.4371,4.411,4.3645,4.3021,4.2731,4.2658,4.231,4.1961,4.1831,4.1787,4.1671,4.1424,4.0829,4.051,4.0394,3.9465,3.8797,3.8594,3.7781,3.691,3.604,3.5604,3.5238,3.4922,3.5183,3.5096,3.4574,3.4486,3.3998,3.3002,3.2429,3.1771,3.1005,3.0482,3.0062,2.9869,2.9628,2.9503,2.9453,2.8837,2.8411,2.8323,2.7921,2.7281,2.6609,2.6521,2.6546,2.6609,2.7092,2.7682,2.8122,2.9101,2.9716,2.9779,2.9779,2.9779,2.9779,2.9779,2.9779,2.9521,2.8493,2.7545,2.7023,2.5766,2.4629,2.4013,2.3464,2.294,2.2295,2.1784,2.1469,2.1551,2.1475,2.1582,2.1124,2.0421,1.9728,1.8864,1.8149,1.7512,1.7044,1.6857,1.6574,1.6292,1.5763,1.5255,4.7309,4.7309,4.7309,4.7309,4.7309,4.7309,4.7309,4.7309,4.7193,4.7031,4.6736,4.6542,4.6352,4.6179,4.6092,4.599,4.5845,4.6064,4.5697,4.5229,4.5303,4.5419,4.5345,4.5634,4.588,4.588,4.588,4.5663,4.5256,4.4995,4.469,4.4269,4.3674,4.321,4.3007,4.2629,4.2353,4.2136,4.2078,4.2092,4.1961,4.1439,4.1091,4.0945,4.0089,3.9465,3.9175,3.8405,3.7593,3.6765,3.6069,3.5735,3.5749,3.6054,3.6025,3.5517,3.5006,3.4313,3.2959,3.2033,3.1355,3.0558,3.0075,2.9792,2.9779,2.9779,2.9779,2.9716,2.9239,2.8925,2.8837,2.8423,2.7708,2.6879,2.6791,2.6735,2.6735,2.7243,2.7708,2.7984,2.8762,2.9327,2.9478,2.9716,2.9767,2.9779,2.9779,2.9474,2.9077,2.8083,2.7357,2.6621,2.5541,2.4743,2.4231,2.3835,2.3412,2.2768,2.215,2.197,2.1919,2.1534,2.1334,2.0316,1.9447,1.8932,1.8149,1.7785,1.7232,1.6951,1.6473,1.6001,1.5547,1.5114,1.4613,4.7309,4.7309,4.7309,4.7309,4.7309,4.7309,4.7309,4.7222,4.7019,4.677,4.6608,4.6564,4.6535,4.6462,4.63,4.6107,4.6135,4.6016,4.5941,4.5825,4.5793,4.5779,4.5793,4.5851,4.588,4.588,4.588,4.5851,4.575,4.5285,4.4937,4.4879,4.4342,4.3761,4.334,4.3065,4.2687,4.2295,4.215,4.2092,4.2078,4.1541,4.1207,4.1192,4.0539,3.9944,3.9552,3.9175,3.8492,3.7404,3.6722,3.646,3.6388,3.6373,3.6272,3.5565,3.4768,3.3695,3.2459,3.1708,3.0929,3.0188,3.002,2.9817,2.9804,2.9779,2.9779,2.9767,2.9352,2.9026,2.895,2.8649,2.8072,2.7507,2.7193,2.6892,2.6634,2.6992,2.7381,2.7595,2.826,2.8963,2.8988,2.9414,2.9474,2.9599,2.9394,2.8697,2.8041,2.7285,2.6686,2.5893,2.499,2.4585,2.398,2.387,2.3551,2.323,2.2611,2.2327,2.1885,2.1353,2.0718,1.9676,1.8748,1.8133,1.7692,1.7326,1.6951,1.6574,1.6001,1.5337,1.4883,1.4564,1.4266,4.7309,4.7309,4.7309,4.7309,4.7309,4.7309,4.7309,4.7309,4.7019,4.6799,4.677,4.6653,4.6491,4.6314,4.6225,4.6135,4.597,4.597,4.588,4.588,4.588,4.588,4.588,4.588,4.588,4.588,4.588,4.588,4.588,4.5677,4.559,4.5605,4.498,4.456,4.4313,4.3471,4.2948,4.2702,4.2295,4.2107,4.2063,4.1932,4.1831,4.1773,4.1178,4.0771,4.0495,3.9668,3.8609,3.7476,3.7607,3.7476,3.7128,3.7316,3.6993,3.5946,3.5536,3.4534,3.2901,3.2214,3.1576,3.0767,3.047,3.0218,2.9817,2.9792,2.9792,2.9767,2.9616,2.9541,2.9528,2.9377,2.9013,2.8473,2.7519,2.6766,2.6747,2.6942,2.7419,2.7846,2.8172,2.8612,2.8973,2.8741,2.8456,2.8597,2.8126,2.7321,2.6703,2.598,2.5284,2.4966,2.4292,2.3971,2.377,2.374,2.3649,2.3487,2.3047,2.2601,2.1873,2.0994,2.0128,1.9139,1.8218,1.7598,1.7326,1.6951,1.6574,1.613,1.539,1.4698,1.4445,1.4102,1.4038,4.7033,4.7121,4.7121,4.7207,4.7309,4.7207,4.7121,4.7106,4.6844,4.6624,4.6491,4.6462,4.6314,4.6135,4.6046,4.6046,4.588,4.588,4.588,4.588,4.588,4.588,4.588,4.588,4.588,4.588,4.588,4.588,4.588,4.588,4.588,4.5822,4.5503,4.5184,4.4806,4.4226,4.3471,4.3036,4.2615,4.2368,4.2121,4.2092,4.2078,4.2034,4.1671,4.1424,4.1004,3.9871,3.8826,3.8275,3.8173,3.8028,3.7692,3.7595,3.7116,3.6079,3.5397,3.4176,3.2935,3.2329,3.1771,3.1203,3.0984,3.0796,3.0507,3.0294,3.0131,3.0156,2.9942,2.9804,2.9741,2.9591,2.9289,2.8825,2.7858,2.7168,2.7155,2.7457,2.7588,2.7656,2.7779,2.7924,2.8402,2.7591,2.7459,2.7372,2.6933,2.6115,2.5406,2.4637,2.3959,2.3694,2.357,2.3361,2.3395,2.3509,2.3332,2.3209,2.2485,2.2284,2.1443,2.0359,1.943,1.8419,1.7785,1.7145,1.6857,1.6508,1.6001,1.5409,1.4692,1.4255,1.3976,1.3857,1.3773,4.6756,4.6829,4.6844,4.7019,4.7121,4.7019,4.6829,4.6799,4.6653,4.6358,4.6122,4.6091,4.6046,4.588,4.597,4.588,4.588,4.588,4.588,4.588,4.588,4.588,4.588,4.588,4.588,4.588,4.588,4.588,4.588,4.588,4.588,4.5866,4.5837,4.5576,4.5155,4.4864,4.424,4.3471,4.3021,4.2687,4.2324,4.2179,4.2092,4.2078,4.2049,4.1758,4.1134,4.0176,3.9329,3.9136,3.8518,3.8142,3.7933,3.7246,3.6543,3.5764,3.4619,3.3524,3.2758,3.2123,3.1719,3.165,3.1574,3.1461,3.1298,3.0959,3.0633,3.052,3.0156,2.9942,2.9729,2.9352,2.9024,2.8799,2.8313,2.8163,2.8027,2.7952,2.7656,2.701,2.728,2.6882,2.6665,2.6314,2.6279,2.6394,2.569,2.4715,2.4094,2.3479,2.2907,2.2517,2.2562,2.2757,2.2932,2.3182,2.2955,2.2726,2.1683,2.111,2.0373,1.9414,1.8556,1.7792,1.7426,1.6951,1.648,1.5967,1.5512,1.4906,1.4389,1.4038,1.3674,1.3696,1.3604,4.6756,4.6683,4.6668,4.6683,4.6771,4.6683,4.6668,4.658,4.6403,4.621,4.6106,4.6031,4.597,4.588,4.588,4.588,4.588,4.588,4.588,4.588,4.588,4.588,4.588,4.588,4.588,4.588,4.588,4.588,4.588,4.588,4.588,4.588,4.588,4.5822,4.5619,4.5155,4.4806,4.4327,4.3544,4.3036,4.2774,4.2353,4.2136,4.2092,4.2092,4.2049,4.1802,4.112,4.0147,3.9153,3.8423,3.7806,3.726,3.6936,3.6132,3.509,3.4479,3.3778,3.3115,3.2786,3.2692,3.2579,3.224,3.1976,3.1838,3.1486,3.1047,3.0733,3.0495,3.0218,2.9752,2.9679,2.9142,2.8578,2.8361,2.8041,2.7498,2.7215,2.7227,2.709,2.6581,2.6173,2.6634,2.536,2.5225,2.5176,2.4451,2.3307,2.2776,2.2457,2.2118,2.173,2.1938,2.222,2.2304,2.2441,2.2313,2.1858,2.0908,1.9928,1.9273,1.888,1.8156,1.7699,1.7333,1.6857,1.619,1.5737,1.5395,1.47,1.4089,1.3865,1.364,1.3534,1.3414,4.6403,4.6403,4.6403,4.6506,4.6594,4.6491,4.6403,4.6417,4.6135,4.6046,4.606,4.597,4.588,4.588,4.588,4.588,4.588,4.588,4.588,4.588,4.588,4.588,4.588,4.588,4.588,4.588,4.588,4.588,4.588,4.588,4.588,4.588,4.588,4.588,4.588,4.5503,4.5198,4.4806,4.4269,4.3761,4.3427,4.2847,4.231,4.215,4.2092,4.1912,4.1365,4.0739,3.9841,3.8768,3.7886,3.7046,3.6336,3.5896,3.5277,3.4634,3.3907,3.3654,3.324,3.3081,3.3043,3.3081,3.2754,3.2629,3.239,3.2064,3.1549,3.1072,3.0641,3.0223,2.9295,2.8633,2.8291,2.8051,2.781,2.7568,2.7221,2.6964,2.6799,2.6714,2.6142,2.5791,2.5382,2.46,2.4127,2.4234,2.3428,2.2422,2.2216,2.1865,2.1614,2.1386,2.152,2.1599,2.1703,2.1662,2.1466,2.0917,2.0065,1.9157,1.8218,1.8056,1.7878,1.7512,1.7138,1.6567,1.5947,1.5519,1.506,1.4257,1.3745,1.3677,1.3539,1.3429,1.3151,4.6046,4.6121,4.6135,4.6314,4.6417,4.6225,4.6135,4.6135,4.597,4.597,4.588,4.588,4.588,4.588,4.588,4.588,4.588,4.588,4.588,4.588,4.588,4.588,4.588,4.588,4.588,4.588,4.588,4.588,4.588,4.588,4.588,4.588,4.588,4.588,4.588,4.5866,4.5619,4.5155,4.4835,4.4531,4.4095,4.3485,4.2806,4.2048,4.176,4.1269,4.0533,3.9927,3.9126,3.8101,3.7017,3.6112,3.5354,3.4868,3.423,3.423,3.3581,3.3253,3.3167,3.3081,3.3081,3.3081,3.3056,3.3056,3.2918,3.2591,3.2114,3.1442,3.0848,2.9696,2.8467,2.781,2.7232,2.6987,2.6905,2.6823,2.6741,2.6659,2.6251,2.6075,2.5633,2.5292,2.4797,2.4116,2.3597,2.308,2.2366,2.1772,2.1589,2.1349,2.1205,2.1171,2.1313,2.1298,2.1368,2.1184,2.0947,2.0159,1.933,1.8603,1.7598,1.7318,1.7225,1.7138,1.6763,1.6204,1.5606,1.5118,1.4471,1.3733,1.3549,1.3636,1.3474,1.329,1.2876,4.6046,4.597,4.5985,4.597,4.597,4.597,4.597,4.597,4.588,4.588,4.588,4.588,4.588,4.588,4.588,4.588,4.588,4.588,4.588,4.588,4.588,4.588,4.588,4.588,4.588,4.588,4.588,4.588,4.588,4.588,4.588,4.588,4.588,4.588,4.588,4.588,4.5837,4.5561,4.5227,4.4893,4.4661,4.3878,4.2955,4.1795,4.1241,4.0374,3.9651,3.9278,3.8668,3.7303,3.6542,3.5518,3.4628,3.436,3.4056,3.3569,3.324,3.3081,3.3081,3.3081,3.3081,3.3081,3.3081,3.3081,3.3056,3.2955,3.2469,3.1593,3.0388,2.8958,2.7452,2.7033,2.6659,2.6246,2.6008,2.5746,2.5274,2.52,2.5348,2.5505,2.5105,2.4765,2.4386,2.4022,2.3608,2.3103,2.2457,2.1824,2.1436,2.1205,2.0974,2.0987,2.1125,2.1119,2.1211,2.0961,2.0606,1.9545,1.8788,1.8334,1.7505,1.6756,1.648,1.6462,1.6272,1.5688,1.5114,1.4686,1.4242,1.3735,1.3717,1.3689,1.3291,1.2876,1.2332,4.597,4.588,4.588,4.588,4.588,4.588,4.588,4.588,4.588,4.588,4.588,4.588,4.588,4.588,4.588,4.588,4.588,4.588,4.588,4.588,4.588,4.588,4.588,4.588,4.588,4.588,4.588,4.588,4.588,4.588,4.588,4.588,4.588,4.588,4.588,4.588,4.588,4.5793,4.5561,4.5387,4.5182,4.4047,4.2587,4.1674,4.0461,3.9414,3.8675,3.8509,3.7938,3.6818,3.6134,3.5327,3.4603,3.4085,3.3887,3.3242,3.3081,3.3081,3.3081,3.3081,3.3081,3.3081,3.3081,3.3081,3.3081,3.3018,3.2548,3.1369,2.9834,2.8289,2.7278,2.6411,2.5752,2.5541,2.5285,2.4998,2.4636,2.4571,2.4849,2.519,2.4849,2.4657,2.4542,2.4126,2.3608,2.3083,2.2572,2.2005,2.1433,2.1181,2.1006,2.0829,2.0841,2.0699,2.058,2.0123,1.9995,1.909,1.8404,1.7953,1.75,1.6788,1.6184,1.5873,1.5557,1.5215,1.4937,1.4548,1.4151,1.3827,1.3836,1.3698,1.3028,1.255,1.2005,4.588,4.588,4.588,4.588,4.588,4.588,4.588,4.588,4.588,4.588,4.588,4.588,4.588,4.588,4.588,4.588,4.588,4.588,4.588,4.588,4.588,4.588,4.588,4.588,4.588,4.588,4.588,4.588,4.588,4.588,4.588,4.588,4.588,4.588,4.588,4.588,4.588,4.588,4.588,4.588,4.5111,4.3545,4.1911,4.121,3.9788,3.8565,3.7638,3.7533,3.7163,3.6531,3.5898,3.5328,3.4889,3.4361,3.3809,3.3332,3.3156,3.3093,3.3081,3.3081,3.3081,3.3081,3.3081,3.3081,3.2982,3.2747,3.2117,3.0635,2.9097,2.7745,2.6867,2.5749,2.5263,2.5259,2.5155,2.484,2.4902,2.4856,2.4887,2.4923,2.4702,2.4502,2.443,2.4224,2.3834,2.3246,2.2737,2.2281,2.176,2.1441,2.1222,2.079,2.0529,2.0352,1.9948,1.9179,1.8937,1.8567,1.8119,1.7779,1.7318,1.6766,1.6192,1.5639,1.4989,1.4654,1.4529,1.4349,1.4065,1.3827,1.3859,1.3567,1.2852,1.2219,1.1787,4.588,4.588,4.588,4.588,4.588,4.588,4.588,4.588,4.588,4.588,4.588,4.588,4.588,4.588,4.588,4.588,4.588,4.588,4.588,4.588,4.588,4.588,4.588,4.588,4.588,4.588,4.588,4.588,4.588,4.588,4.588,4.588,4.588,4.588,4.588,4.588,4.588,4.5895,4.5895,4.5398,4.4386,4.2733,4.1248,4.0147,3.9002,3.8026,3.7049,3.6772,3.6546,3.6402,3.5855,3.5554,3.5366,3.4926,3.4387,3.3847,3.3407,3.3081,3.3093,3.3081,3.3006,3.2993,3.3006,3.3068,3.2735,3.2202,3.1321,2.9822,2.8599,2.7575,2.6684,2.5962,2.5751,2.573,2.5647,2.5585,2.5606,2.5238,2.5269,2.5351,2.5201,2.4686,2.4374,2.4237,2.3907,2.3412,2.2942,2.2506,2.2024,2.1582,2.1366,2.0957,1.9991,1.9661,1.9495,1.8675,1.838,1.8115,1.8044,1.7719,1.748,1.7051,1.6209,1.5651,1.4885,1.4247,1.4154,1.3958,1.3778,1.3798,1.3789,1.3234,1.2526,1.1991,1.1568,4.588,4.588,4.588,4.588,4.588,4.588,4.588,4.588,4.588,4.588,4.588,4.588,4.588,4.588,4.588,4.588,4.588,4.588,4.588,4.588,4.588,4.588,4.588,4.588,4.588,4.588,4.588,4.588,4.588,4.588,4.588,4.588,4.588,4.588,4.5776,4.588,4.5888,4.5729,4.516,4.4321,4.3258,4.1922,4.0711,3.9939,3.8556,3.7566,3.6988,3.6471,3.6383,3.6332,3.6081,3.583,3.5592,3.5278,3.4939,3.4399,3.3859,3.3432,3.3144,3.3093,3.2918,3.2654,3.2519,3.2311,3.1945,3.1608,3.073,2.916,2.8407,2.7559,2.6752,2.6256,2.6123,2.6113,2.6123,2.602,2.5978,2.5774,2.5671,2.5694,2.5665,2.5198,2.4795,2.4635,2.4424,2.3857,2.3424,2.311,2.2204,2.1303,2.1194,2.1096,1.9992,1.8943,1.8763,1.8388,1.8183,1.8023,1.8237,1.8011,1.7774,1.7272,1.6504,1.5577,1.4844,1.4294,1.3925,1.389,1.3832,1.3768,1.3602,1.2916,1.2318,1.1887,1.1459,4.588,4.588,4.588,4.588,4.588,4.588,4.588,4.588,4.588,4.588,4.588,4.588,4.588,4.588,4.588,4.588,4.588,4.588,4.588,4.588,4.588,4.588,4.588,4.588,4.588,4.588,4.588,4.588,4.588,4.588,4.588,4.588,4.588,4.5685,4.5489,4.5321,4.5267,4.472,4.3355,4.2639,4.2101,4.0854,4.0037,3.9303,3.824,3.7123,3.6935,3.6621,3.6383,3.6358,3.6332,3.6119,3.5855,3.5755,3.5341,3.4801,3.4261,3.3759,3.3332,3.3031,3.2742,3.2294,3.1754,3.1466,3.1243,3.1109,3.0461,2.8811,2.8174,2.7721,2.7285,2.6589,2.6579,2.6558,2.6506,2.633,2.6227,2.6218,2.6187,2.6115,2.6072,2.5795,2.5438,2.5325,2.4881,2.4335,2.3969,2.3594,2.2627,2.1469,2.0925,2.0889,2.0119,1.896,1.848,1.8266,1.8015,1.805,1.8269,1.8367,1.8275,1.7516,1.6484,1.5621,1.4821,1.4155,1.3693,1.3895,1.3975,1.3599,1.3136,1.2625,1.211,1.1791,1.1358,4.588,4.588,4.588,4.588,4.588,4.588,4.588,4.588,4.588,4.588,4.588,4.588,4.588,4.588,4.588,4.588,4.588,4.588,4.588,4.588,4.588,4.588,4.588,4.588,4.588,4.588,4.588,4.588,4.588,4.588,4.588,4.588,4.5595,4.5187,4.4741,4.4518,4.3912,4.3108,4.1544,4.0937,4.0798,4.0002,3.8956,3.8326,3.7635,3.696,3.6483,3.6408,3.637,3.637,3.637,3.6358,3.6182,3.6169,3.573,3.5177,3.4688,3.4135,3.3583,3.3131,3.2729,3.2,3.1245,3.0652,3.0525,2.9116,2.847,2.8533,2.7764,2.7474,2.7274,2.7179,2.7013,2.6972,2.69,2.6785,2.6764,2.6919,2.6886,2.6662,2.6295,2.5924,2.5724,2.554,2.5391,2.4771,2.4006,2.3712,2.3038,2.1942,2.101,2.052,1.9998,1.9171,1.8431,1.8262,1.8299,1.843,1.8628,1.8862,1.906,1.795,1.6507,1.6033,1.5223,1.4341,1.3527,1.3423,1.3315,1.3098,1.2767,1.2219,1.1704,1.1397,1.1067,4.588,4.588,4.588,4.588,4.588,4.588,4.588,4.588,4.588,4.588,4.588,4.588,4.588,4.588,4.588,4.588,4.588,4.588,4.588,4.588,4.588,4.588,4.588,4.588,4.588,4.588,4.588,4.588,4.588,4.5685,4.5307,4.5201,4.4897,4.4698,4.4261,4.3561,4.2717,4.1815,4.0588,4.0033,3.988,3.9563,3.8755,3.8542,3.7575,3.7161,3.686,3.6521,3.6408,3.637,3.6383,3.637,3.637,3.637,3.6081,3.5529,3.5052,3.4347,3.3821,3.327,3.2496,3.1088,3.0422,2.9914,2.9493,2.8276,2.7877,2.7742,2.7296,2.7024,2.7231,2.7251,2.722,2.7251,2.7167,2.7071,2.7112,2.7088,2.6972,2.6466,2.6137,2.5759,2.5712,2.5771,2.5498,2.5188,2.4441,2.3644,2.2835,2.2092,2.1012,2.0215,1.9649,1.9224,1.8544,1.8533,1.8642,1.8796,1.8957,1.8993,1.9034,1.7765,1.6554,1.6086,1.5458,1.4283,1.3423,1.2985,1.2767,1.2663,1.2223,1.1678,1.1274,1.1007,1.0933,4.588,4.588,4.588,4.588,4.588,4.588,4.588,4.588,4.588,4.588,4.588,4.588,4.588,4.588,4.588,4.588,4.588,4.588,4.588,4.588,4.588,4.588,4.588,4.588,4.588,4.588,4.5489,4.5398,4.5293,4.511,4.4527,4.3937,4.3531,4.3341,4.3039,4.2391,4.1471,4.0745,4.0173,3.9697,3.9622,3.917,3.8868,3.8718,3.7927,3.7538,3.7299,3.6985,3.6697,3.6596,3.6508,3.6383,3.637,3.632,3.6182,3.5742,3.524,3.4547,3.3705,3.2822,3.1589,3.0265,2.9196,2.8498,2.7875,2.7463,2.7024,2.7148,2.6794,2.6722,2.7061,2.6976,2.6976,2.688,2.688,2.6794,2.6825,2.6876,2.6547,2.6294,2.5984,2.5674,2.5382,2.5323,2.4846,2.4528,2.3822,2.2975,2.218,2.1313,2.0536,1.9837,1.9235,1.8981,1.8628,1.8789,1.8935,1.8986,1.9118,1.8858,1.8527,1.7364,1.6518,1.5879,1.5137,1.4078,1.335,1.2845,1.2488,1.2232,1.17,1.1173,1.1151,1.0999,1.1081,4.579,4.588,4.579,4.579,4.579,4.5895,4.588,4.588,4.588,4.588,4.588,4.588,4.5895,4.588,4.588,4.588,4.579,4.5805,4.579,4.579,4.5776,4.579,4.5743,4.5758,4.535,4.5504,4.4805,4.4205,4.4219,4.3654,4.3067,4.2585,4.1985,4.1505,4.1219,4.0364,3.98,3.98,3.9697,3.9697,3.9584,3.9157,3.8919,3.8705,3.8216,3.7839,3.7701,3.7161,3.6885,3.6948,3.6433,3.6295,3.6345,3.6358,3.5994,3.5098,3.4873,3.3838,3.1966,3.0954,3.0078,2.9353,2.8285,2.742,2.7376,2.6868,2.6286,2.6597,2.6441,2.6471,2.6572,2.6592,2.6592,2.6592,2.6592,2.6506,2.6526,2.645,2.6237,2.6024,2.583,2.5625,2.5216,2.4805,2.4097,2.3565,2.2976,2.2248,2.1492,2.0726,2.0007,1.9687,1.9169,1.9074,1.8957,1.9111,1.922,1.925,1.9138,1.8945,1.8318,1.7364,1.6518,1.5785,1.478,1.3769,1.3137,1.2505,1.2187,1.1762,1.1347,1.0925,1.0903,1.1017,1.1126,4.4233,4.4805,4.4139,4.4233,4.4897,4.558,4.588,4.588,4.588,4.588,4.588,4.588,4.579,4.57,4.579,4.5685,4.5398,4.5609,4.5609,4.5307,4.5307,4.5502,4.536,4.4818,4.4345,4.3903,4.3231,4.2724,4.2724,4.2266,4.1985,4.1392,4.073,4.0262,4.016,3.9788,3.9697,3.9697,3.9697,3.9685,3.9622,3.9195,3.8881,3.8856,3.8316,3.7953,3.7939,3.7236,3.6948,3.7023,3.6376,3.6094,3.6257,3.6332,3.6063,3.5401,3.5146,3.372,3.1402,2.9791,2.8833,2.8215,2.7711,2.6921,2.6958,2.6337,2.6134,2.6295,2.6179,2.622,2.6416,2.6476,2.6496,2.6486,2.639,2.6294,2.6207,2.6033,2.5839,2.583,2.5732,2.5011,2.4501,2.3609,2.2915,2.2426,2.1841,2.164,2.0963,2.0254,1.9479,1.9487,1.9295,1.9228,1.9279,1.9294,1.9381,1.9433,1.924,1.8945,1.8206,1.7138,1.6132,1.5144,1.4307,1.3462,1.2791,1.2203,1.1759,1.1293,1.1167,1.1029,1.1098,1.1228,1.1362,4.3163,4.364,4.3081,4.3067,4.3735,4.4513,4.4819,4.4712,4.4897,4.5095,4.5095,4.5398,4.5518,4.5413,4.5504,4.5187,4.4606,4.4698,4.4805,4.4513,4.4111,4.4569,4.4629,4.3725,4.2848,4.2329,4.1809,4.1353,4.1366,4.1193,4.0705,4.0122,3.9659,3.9453,3.9465,3.9478,3.9697,3.9697,3.9697,3.9697,3.9597,3.9256,3.8968,3.8641,3.8329,3.7954,3.7629,3.7117,3.6605,3.663,3.6318,3.5744,3.5931,3.5986,3.5685,3.4985,3.3446,3.2045,3.011,2.8547,2.7855,2.7585,2.717,2.6784,2.6274,2.5968,2.5988,2.6028,2.5879,2.5978,2.6147,2.6304,2.6207,2.6197,2.61,2.6004,2.5917,2.5742,2.545,2.544,2.4932,2.4214,2.3456,2.2367,2.1449,2.1067,2.0682,2.0573,2.0584,1.9866,1.9367,1.9367,1.9374,1.9403,1.9381,1.9338,1.944,1.9594,1.9218,1.8696,1.7561,1.6508,1.5551,1.4584,1.375,1.3046,1.2396,1.1893,1.1554,1.1483,1.1419,1.1386,1.1338,1.1407,1.152,4.2682,4.2695,4.2695,4.2474,4.2461,4.2571,4.2461,4.2558,4.3218,4.3517,4.3504,4.4513,4.4634,4.4833,4.4926,4.4326,4.3517,4.3409,4.3422,4.3122,4.2641,4.3547,4.3642,4.273,4.1426,4.0733,4.0259,4.0084,4.0211,3.9815,3.9221,3.9025,3.9037,3.8945,3.905,3.927,3.9478,3.9478,3.949,3.949,3.9415,3.9299,3.886,3.8587,3.8249,3.7839,3.7381,3.6862,3.6541,3.6478,3.6301,3.5685,3.5429,3.5519,3.4292,3.2721,3.0743,2.9859,2.909,2.7992,2.7222,2.7012,2.63,2.5869,2.5859,2.582,2.5868,2.5781,2.5712,2.5751,2.5732,2.583,2.583,2.583,2.583,2.5732,2.5742,2.545,2.5058,2.4557,2.3845,2.3073,2.207,2.1067,2.0809,2.0529,2.0354,2.0188,2.0197,1.9971,1.9564,1.955,1.9557,1.9564,1.9542,1.9586,1.9681,1.9886,1.8867,1.8164,1.7017,1.5899,1.4783,1.3906,1.3293,1.2596,1.216,1.1887,1.1684,1.1614,1.163,1.161,1.152,1.1512,1.1602,4.1045,4.1518,4.0743,4.0617,4.108,4.0109,4.049,4.1945,4.2323,4.2323,4.242,4.2627,4.2944,4.2585,4.2738,4.2447,4.2155,4.1972,4.1985,4.169,4.1392,4.1821,4.1699,4.1038,3.9752,3.9175,3.8822,3.8896,3.8792,3.8409,3.8631,3.8841,3.8736,3.8736,3.8841,3.8945,3.905,3.905,3.9062,3.9166,3.9166,3.905,3.8588,3.8267,3.7931,3.7599,3.7059,3.6357,3.6051,3.6235,3.563,3.4957,3.4932,3.4607,3.3711,3.2261,3.0777,2.9642,2.9302,2.7913,2.6957,2.6777,2.6201,2.6074,2.6006,2.5908,2.5742,2.5732,2.5732,2.5732,2.5732,2.5732,2.5732,2.5732,2.5645,2.5674,2.5517,2.5149,2.4653,2.3743,2.3028,2.21,2.1073,2.0719,2.0524,2.0229,2.0135,2.0113,2.0011,1.9894,1.9798,1.9784,1.9828,1.9864,1.9959,2.0011,2.0077,1.9932,1.8796,1.7578,1.6428,1.5269,1.4063,1.3221,1.2615,1.2259,1.203,1.1827,1.1683,1.1711,1.1727,1.1723,1.1715,1.1675,1.1658,3.9297,3.9699,3.9233,3.9331,3.9584,3.8699,3.9183,4.0363,4.0767,4.0967,4.1067,4.1465,4.1578,4.1591,4.1578,4.1267,4.0604,4.0692,4.0692,4.0604,4.0211,4.0722,4.04,3.9744,3.8828,3.8185,3.7974,3.8173,3.808,3.8092,3.8303,3.8409,3.8526,3.8514,3.8514,3.8514,3.8514,3.8514,3.8619,3.8736,3.8736,3.8699,3.8203,3.7653,3.7433,3.688,3.6431,3.5526,3.5489,3.5502,3.4679,3.3971,3.341,3.2529,3.166,3.0338,2.9808,2.8897,2.8438,2.7667,2.7074,2.665,2.6152,2.5967,2.5918,2.585,2.5771,2.5732,2.5732,2.5732,2.5732,2.5732,2.5732,2.5732,2.5674,2.5517,2.5178,2.4857,2.4086,2.3083,2.2212,2.1262,2.0612,2.0471,2.0442,2.0486,2.0589,2.0684,2.0501,2.0267,2.0142,2.0062,2.0135,2.0201,2.0194,2.0171,1.9875,1.9341,1.8104,1.6869,1.5864,1.4682,1.3274,1.2544,1.2034,1.1856,1.1872,1.1885,1.1756,1.1776,1.1776,1.176,1.1752,1.1744,1.174,3.7817,3.768,3.8088,3.8349,3.8384,3.8092,3.808,3.808,3.9092,3.9494,3.9699,4.0516,4.0705,4.0503,4.0503,4.0185,3.9699,3.9494,3.9494,3.9494,3.8896,3.921,3.9611,3.9118,3.8315,3.808,3.7974,3.7974,3.7974,3.808,3.808,3.7974,3.808,3.808,3.808,3.808,3.8185,3.8185,3.8311,3.8472,3.8594,3.8392,3.7922,3.6885,3.6251,3.5557,3.5065,3.4631,3.4485,3.4268,3.3829,3.2908,3.1412,3.0166,2.92,2.8633,2.8425,2.8024,2.7633,2.7094,2.6859,2.6416,2.5996,2.584,2.5791,2.5801,2.5742,2.5732,2.5732,2.5859,2.5898,2.5732,2.5693,2.5535,2.5362,2.5067,2.4527,2.3962,2.3114,2.2209,2.147,2.0708,2.0711,2.0552,2.0757,2.0823,2.0896,2.105,2.0841,2.0536,2.0419,2.0296,2.0508,2.0485,2.041,2.0258,1.9611,1.8724,1.7455,1.6223,1.5078,1.3774,1.2466,1.2113,1.1864,1.1877,1.1772,1.1776,1.1776,1.1776,1.1776,1.1776,1.1776,1.1776,1.1776,3.7606,3.7368,3.7694,3.791,3.8056,3.808,3.795,3.7974,3.8291,3.8384,3.8489,3.8699,3.8896,3.8988,3.9092,3.8792,3.8582,3.8582,3.8384,3.8489,3.808,3.8234,3.8753,3.8469,3.7974,3.7974,3.7974,3.7974,3.7974,3.7974,3.7974,3.7974,3.7974,3.7974,3.7974,3.7974,3.7974,3.7962,3.7839,3.8049,3.8089,3.8028,3.7597,3.6826,3.6134,3.5541,3.5014,3.4618,3.392,3.3352,3.3348,3.1995,3.0066,2.8974,2.8106,2.756,2.7432,2.7329,2.6973,2.6709,2.6514,2.6318,2.6016,2.583,2.5732,2.5732,2.5732,2.5742,2.582,2.5977,2.5966,2.5869,2.5554,2.5367,2.5052,2.441,2.3852,2.3034,2.2081,2.1456,2.0803,2.0656,2.064,2.0801,2.102,2.1108,2.1115,2.1174,2.0923,2.075,2.0714,2.0641,2.0841,2.0914,2.0779,2.0039,1.9118,1.8102,1.6827,1.5595,1.4232,1.3186,1.213,1.2014,1.1772,1.1776,1.1776,1.1776,1.1776,1.1776,1.1776,1.1776,1.1776,1.1776,1.1776,3.6591,3.6369,3.6581,3.691,3.7228,3.7276,3.7397,3.7589,3.7625,3.7769,3.7962,3.7974,3.7974,3.7974,3.7974,3.7974,3.7974,3.7974,3.808,3.808,3.7974,3.7974,3.7974,3.7974,3.7974,3.7974,3.7974,3.7974,3.7974,3.7974,3.7974,3.7974,3.7974,3.7974,3.7974,3.7974,3.7974,3.7962,3.7625,3.7601,3.7721,3.7553,3.7433,3.6807,3.5812,3.5212,3.4363,3.3744,3.2792,3.1892,3.1551,3.0017,2.851,2.7794,2.7262,2.693,2.6846,2.706,2.665,2.6416,2.6279,2.6094,2.5967,2.5752,2.581,2.582,2.5889,2.5908,2.6064,2.6221,2.6029,2.5891,2.5522,2.521,2.4459,2.373,2.2979,2.2087,2.1616,2.1391,2.0837,2.0742,2.0852,2.0991,2.1159,2.0916,2.096,2.0852,2.073,2.0737,2.0737,2.0737,2.0744,2.0744,2.0437,1.9591,1.8429,1.7301,1.6144,1.4604,1.3186,1.2483,1.1776,1.1776,1.1776,1.1776,1.1776,1.1776,1.1776,1.1776,1.1776,1.1776,1.1776,1.1772,1.1651,3.5502,3.5296,3.5547,3.5942,3.6374,3.6423,3.6663,3.6884,3.7072,3.7336,3.7685,3.7793,3.7902,3.7974,3.7974,3.7974,3.7974,3.7974,3.7974,3.7974,3.7974,3.7974,3.7974,3.7974,3.7974,3.7974,3.7974,3.7974,3.7974,3.7974,3.7974,3.7974,3.7974,3.7974,3.7974,3.7974,3.7974,3.7926,3.7745,3.7601,3.7433,3.718,3.6944,3.6149,3.5128,3.397,3.3175,3.2342,3.1403,3.0445,2.9785,2.8471,2.7613,2.7088,2.6753,2.6465,2.6631,2.6572,2.626,2.6172,2.6016,2.5869,2.5801,2.584,2.5918,2.5996,2.6064,2.6182,2.6328,2.6332,2.6136,2.5665,2.531,2.4624,2.3819,2.3005,2.2127,2.142,2.1294,2.1189,2.1094,2.0962,2.0921,2.1067,2.0967,2.0723,2.0608,2.0493,2.0378,2.027,2.0277,2.0277,2.0162,2.0162,1.9917,1.908,1.7898,1.6138,1.4847,1.343,1.2247,1.2014,1.1776,1.1776,1.1776,1.1776,1.1776,1.1776,1.1776,1.1772,1.1647,1.1647,1.1526,1.1526,1.1402,3.5381,3.5584,3.5581,3.5918,3.6338,3.6386,3.6471,3.6531,3.6543,3.6639,3.6855,3.7228,3.7541,3.7962,3.7974,3.7974,3.7974,3.7974,3.7974,3.7974,3.7974,3.7974,3.7974,3.7974,3.7974,3.7974,3.7974,3.7974,3.7974,3.7974,3.7974,3.7974,3.7974,3.7974,3.7974,3.7974,3.7962,3.7914,3.7709,3.7505,3.7508,3.7056,3.5975,3.514,3.4277,3.3175,3.2261,3.1768,3.0772,2.9722,2.8706,2.7637,2.7084,2.6875,2.667,2.6396,2.6553,2.6435,2.624,2.6113,2.5977,2.6016,2.6025,2.6133,2.6211,2.6299,2.6387,2.6504,2.6507,2.6332,2.6126,2.5372,2.4843,2.357,2.2466,2.2035,2.1466,2.1269,2.113,2.1089,2.106,2.088,2.0773,2.073,2.0737,2.05,2.0385,2.027,2.0155,2.004,1.9931,1.9815,1.9707,1.8984,1.85,1.826,1.7196,1.5316,1.3784,1.284,1.2251,1.1893,1.1776,1.1776,1.1772,1.1772,1.1772,1.1651,1.1651,1.1526,1.1398,1.1394,1.1398,1.1277,1.1156]},{"header":{"parameterUnit":"m.s-1","parameterCategory":1,"la1":31.0,"la2":29.5877,"lo1":-88.7671,"lo2":-86.6584,"dy":0.0162,"dx":0.0185,"nx":115,"ny":88,"refTime":"2023-03-03T18:00:00:Z","depth":0,"parameterNumber":3,"parameterNumberName":"V-component_of_WINDS"},"data":[0.0,0.0,0.0,0.0,0.0,0.0,0.0,0.0,0.0,0.0,0.0,0.0,0.0,0.0,0.0,0.0,0.0,0.0,0.0,0.0,0.0,0.0,0.0,0.0,0.0,0.0,0.0,0.0,0.0,0.0,0.0,0.0,0.0,0.0,0.0,0.0,0.0,0.0,0.0,0.0,0.0,0.0,0.0,0.0,0.0,0.0,0.0,0.0,0.0,0.0,0.0,0.0,0.0,0.0,0.0,0.0,0.0,0.0,0.0,0.0,0.0,0.0,0.0,0.0,0.0,0.0,0.0,0.0,0.0,0.0,0.0,0.0,0.0,0.0,0.0,0.0,0.0,0.0,0.0,0.0,0.0,0.0,0.0,0.0,0.0,0.0,0.0,0.0,0.0,0.0,0.0,0.0,0.0,0.0,0.0,0.0,0.0,0.0,0.0,0.0,0.0,0.0,0.0,0.0,0.0,0.0,0.0,0.0,0.0,0.0,0.0,0.0,0.0,0.0,0.0,0.0,0.0,0.0,0.0,0.0,0.0,0.0,0.0,0.0,0.0,0.0,0.0,0.0,0.0,0.0,0.0,0.0,0.0,0.0,0.0,0.0,0.0,0.0,0.0,0.0,0.0,0.0,0.0,0.0,0.0,0.0,0.0,0.0,0.0,0.0,0.0,0.0,0.0,0.0,0.0,0.0,0.0,0.0,0.0,0.0,0.0,0.0,0.0,0.0,0.0,0.0,0.0,0.0,0.0,0.0,0.0,0.0,0.0,0.0,0.0,0.0,0.0,0.0,0.0,0.0,0.0,0.0,0.0,0.0,0.0,0.0,0.0,0.0,0.0,0.0,0.0,0.0,0.0,0.0,0.0,0.0,0.0,0.0,0.0,0.0,0.0,0.0,0.0,0.0,0.0,0.0,0.0,0.0,0.0,0.0,0.0,0.0,0.0,0.0,0.0,0.0,0.0,0.0,0.0,0.0,0.0,0.0,0.0,0.0,0.0,0.0,0.0,0.0,0.0,0.0,0.0,0.0,0.0,0.0,0.0,0.0,0.0,0.0,0.0,0.0,0.0,0.0,0.0,0.0,0.0,0.0,0.0,0.0,0.0,0.0,0.0,0.0,0.0,0.0,0.0,0.0,0.0,0.0,0.0,0.0,0.0,0.0,0.0,0.0,0.0,0.0,0.0,0.0,0.0,0.0,0.0,0.0,0.0,0.0,0.0,0.0,0.0,0.0,0.0,0.0,0.0,0.0,0.0,0.0,0.0,0.0,0.0,0.0,0.0,0.0,0.0,0.0,0.0,0.0,0.0,0.0,0.0,0.0,0.0,0.0,0.0,0.0,0.0,0.0,0.0,0.0,0.0,0.0,0.0,0.0,0.0,0.0,0.0,0.0,0.0,0.0,0.0,0.0,0.0,0.0,0.0,0.0,0.0,0.0,0.0,0.0,0.0,0.0,0.0,0.0,0.0,0.0,0.0,0.0,0.0,0.0,0.0,0.0,0.0,0.0,0.0,0.0,0.0,0.0,0.0,0.0,0.0,0.0,0.0,0.0,0.0,0.0,0.0,0.0,0.0,0.0,0.0,0.0,0.0,0.0,0.0,0.0,0.0,0.0,0.0,0.0,0.0,0.0,0.0,0.0,0.0,0.0,0.0,0.0,0.0,0.0,0.0,0.0,0.0,0.0,0.0,0.0,0.0,0.0,0.0,0.0,0.0,0.0,0.0,0.0,0.0,0.0,0.0,0.0,0.0,0.0,0.0,0.0,0.0,0.0,0.0,0.0,0.0,0.0,0.0,0.0,0.0,0.0,0.0,0.0,0.0,0.0,0.0,0.0,0.0,0.0,0.0,0.0,0.0,0.0,0.0,0.0,0.0,0.0,0.0,0.0,0.0,0.0,0.0,0.0,0.0,0.0,0.0,0.0,0.0,0.0,0.0,0.0,0.0,0.0,0.0,0.0,0.0,0.0,0.0,0.0,0.0,0.0,0.0,0.0,0.0,0.0,0.0,0.0,0.0,0.0,0.0,0.0,0.0,0.0,0.0,0.0,0.0,0.0,0.0,0.0,0.0,0.0,0.0,0.0,0.0,0.0,0.0,0.0,0.0,0.0,0.0,0.0,0.0,0.0,0.0,0.0,0.0,0.0,0.0,0.0,0.0,0.0,0.0,0.0,0.0,0.0,0.0,0.0,0.0,0.0,0.0,0.0,0.0,0.0,0.0,0.0,0.0,0.0,0.0,0.0,0.0,0.0,0.0,0.0,0.0,0.0,0.0,0.0,0.0,0.0,0.0,0.0,0.0,0.0,0.0,0.0,0.0,0.0,0.0,0.0,0.0,0.0,0.0,0.0,0.0,0.0,0.0,0.0,0.0,0.0,0.0,0.0,0.0,0.0,0.0,0.0,0.0,0.0,0.0,0.0,0.0,0.0,0.0,0.0,0.0,0.0,0.0,0.0,0.0,0.0,0.0,0.0,0.0,0.0,0.0,0.0,0.0,0.0,0.0,0.0,0.0,0.0,0.0,0.0,0.0,0.0,0.0,0.0,0.0,0.0,0.0,0.0,0.0,0.0,0.0,0.0,0.0,0.0,0.0,0.0,0.0,0.0,0.0,0.0,0.0,0.0,0.0,0.0,0.0,0.0,0.0,0.0,0.0,0.0,0.0,0.0,0.0,0.0,0.0,0.0,0.0,0.0,0.0,0.0,0.0,0.0,0.0,0.0,0.0,0.0,0.0,0.0,0.0,0.0,0.0,0.0,0.0,0.0,0.0,0.0,0.0,0.0,0.0,0.0,0.0,0.0,0.0,0.0,0.0,0.0,0.0,0.0,0.0,0.0,0.0,0.0,0.0,0.0,0.0,0.0,0.0,0.0,0.0,0.0,0.0,0.0,0.0,0.0,0.0,0.0,0.0,0.0,0.0,0.0,0.0,0.0,0.0,0.0,0.0,0.0,0.0,0.0,0.0,0.0,0.0,0.0,0.0,0.0,0.0,0.0,0.0,0.0,0.0,0.0,0.0,0.0,0.0,0.0,0.0,0.0,0.0,0.0,0.0,0.0,0.0,0.0,0.0,0.0,0.0,0.0,0.0,0.0,0.0,0.0,0.0,0.0,0.0,0.0,0.0,0.0,0.0,0.0,0.0,0.0,0.0,0.0,0.0,0.0,0.0,0.0,0.0,0.0,0.0,0.0,0.0,0.0,0.0,0.0,0.0,0.0,0.0,0.0,0.0,0.0,0.0,0.0,0.0,0.0,0.0,0.0,0.0,0.0,0.0,0.0,0.0,0.0,0.0,0.0,0.0,0.0,0.0,0.0,0.0,0.0,0.0,0.0,0.0,0.0,0.0,0.0,0.0,0.0,0.0,0.0,0.0,0.0,0.0,0.0,0.0,0.0,0.0,0.0,0.0,0.0,0.0,0.0,0.0,0.0,0.0,0.0,0.0,0.0,0.0,0.0,0.0,0.0,0.0,0.0,0.0,0.0,0.0,0.0,0.0,0.0,0.0,0.0,0.0,0.0,0.0,0.0,0.0,0.0,0.0,0.0,0.0,0.0,0.0,0.0,0.0,0.0,0.0,0.0,0.0,0.0,0.0,0.0,0.0,0.0,0.0,0.0,0.0,0.0,0.0,0.0,0.0,0.0,0.0,0.0,0.0,0.0,0.0,0.0,0.0,0.0,0.0,0.0,0.0,0.0,0.0,0.0,0.0,0.0,0.0,0.0,0.0,0.0,0.0,0.0,0.0,0.0,0.0,0.0,0.0,0.0,0.0,0.0,0.0,0.0,0.0,0.0,0.0,0.0,0.0,0.0,0.0,0.0,0.0,0.0,0.0,0.0,0.0,0.0,0.0,0.0,0.0,0.0,0.0,0.0,0.0,0.0,0.0,0.0,0.0,0.0,0.0,0.0,0.0,0.0,0.0,0.0,0.0,0.0,0.0,0.0,0.0,0.0,0.0,0.0,0.0,0.0,0.0,0.0,0.0,0.0,0.0,0.0,0.0,0.0,0.0,0.0,0.0,0.0,0.0,0.0,0.0,0.0,0.0,0.0,0.0,0.0,0.0,0.0,0.0,0.0,0.0,0.0,0.0,0.0,0.0,0.0,0.0,0.0,0.0,0.0,0.0,0.0,0.0,0.0,0.0,0.0,0.0,0.0,0.0,0.0,0.0,0.0,0.0,0.0,0.0,0.0,0.0,0.0,0.0,0.0,0.0,0.0,0.0,0.0,0.0,0.0,0.0,0.0,0.0,0.0,0.0,0.0,0.0,0.0,0.0,0.0,-1.6924,0.0,0.0,0.0,0.0,0.0,0.0,0.0,0.0,0.0,0.0,0.0,0.0,0.0,0.0,0.0,0.0,0.0,0.0,0.0,0.0,0.0,0.0,0.0,0.0,0.0,0.0,0.0,0.0,0.0,0.0,0.0,0.0,0.0,0.0,0.0,0.0,0.0,0.0,0.0,0.0,0.0,0.0,0.0,0.0,0.0,0.0,0.0,0.0,0.0,0.0,0.0,0.0,0.0,0.0,0.0,0.0,0.0,0.0,0.0,0.0,0.0,0.0,0.0,0.0,0.0,0.0,0.0,0.0,0.0,0.0,0.0,0.0,0.0,0.0,0.0,0.0,0.0,0.0,0.0,0.0,0.0,0.0,0.0,0.0,0.0,0.0,0.0,0.0,0.0,0.0,0.0,0.0,0.0,0.0,0.0,0.0,0.0,0.0,0.0,0.0,0.0,0.0,0.0,0.0,0.0,0.0,0.0,0.0,0.0,0.0,-1.689,-1.7256,-1.6074,-1.597,-1.7133,0.0,0.0,0.0,0.0,0.0,0.0,0.0,0.0,0.0,0.0,0.0,0.0,0.0,0.0,0.0,0.0,0.0,0.0,0.0,0.0,0.0,0.0,0.0,0.0,0.0,0.0,0.0,0.0,0.0,0.0,0.0,0.0,0.0,0.0,0.0,0.0,0.0,0.0,0.0,0.0,0.0,0.0,0.0,0.0,0.0,0.0,0.0,0.0,0.0,0.0,0.0,0.0,0.0,0.0,0.0,0.0,0.0,0.0,0.0,0.0,0.0,0.0,0.0,0.0,0.0,0.0,0.0,0.0,0.0,0.0,0.0,0.0,0.0,0.0,0.0,0.0,0.0,0.0,0.0,0.0,0.0,0.0,0.0,0.0,0.0,0.0,0.0,0.0,0.0,0.0,0.0,0.0,0.0,0.0,0.0,0.0,0.0,0.0,0.0,0.0,0.0,0.0,0.0,0.0,0.0,0.0,0.0,0.0,0.0,0.0,0.0,0.0,-1.593,-1.5813,-1.712,0.0,0.0,0.0,0.0,0.0,0.0,0.0,0.0,0.0,0.0,0.0,0.0,0.0,0.0,0.0,0.0,0.0,0.0,0.0,0.0,0.0,0.0,0.0,0.0,0.0,0.0,0.0,0.0,0.0,0.0,0.0,0.0,0.0,0.0,0.0,0.0,0.0,0.0,0.0,0.0,0.0,0.0,0.0,0.0,0.0,0.0,0.0,0.0,0.0,0.0,0.0,0.0,0.0,0.0,0.0,0.0,0.0,0.0,0.0,0.0,0.0,0.0,0.0,0.0,0.0,0.0,0.0,0.0,0.0,0.0,0.0,0.0,0.0,0.0,0.0,0.0,0.0,0.0,0.0,0.0,0.0,0.0,0.0,0.0,0.0,0.0,0.0,0.0,0.0,0.0,0.0,0.0,0.0,0.0,0.0,0.0,0.0,0.0,0.0,0.0,0.0,0.0,0.0,0.0,0.0,0.0,0.0,0.0,0.0,0.0,-1.7422,-1.7475,-1.7152,0.0,-1.7186,0.0,0.0,0.0,0.0,0.0,0.0,0.0,0.0,0.0,0.0,0.0,0.0,0.0,0.0,0.0,0.0,0.0,0.0,0.0,0.0,0.0,0.0,0.0,0.0,0.0,0.0,0.0,0.0,0.0,0.0,0.0,0.0,0.0,0.0,0.0,0.0,0.0,0.0,0.0,0.0,0.0,0.0,0.0,0.0,0.0,0.0,0.0,0.0,0.0,0.0,0.0,0.0,0.0,0.0,0.0,0.0,0.0,0.0,0.0,0.0,0.0,0.0,0.0,0.0,0.0,0.0,0.0,0.0,0.0,0.0,0.0,0.0,0.0,0.0,0.0,0.0,0.0,0.0,0.0,0.0,0.0,0.0,0.0,0.0,0.0,0.0,0.0,0.0,0.0,0.0,0.0,0.0,0.0,0.0,0.0,0.0,0.0,0.0,0.0,0.0,0.0,0.0,0.0,0.0,0.0,0.0,0.0,0.0,0.0,0.0,-1.8153,-1.7461,-1.7282,-1.7212,0.0,0.0,0.0,0.0,0.0,0.0,0.0,0.0,0.0,0.0,0.0,0.0,0.0,0.0,0.0,0.0,0.0,0.0,0.0,0.0,0.0,0.0,0.0,0.0,0.0,0.0,0.0,0.0,0.0,0.0,0.0,0.0,0.0,0.0,0.0,0.0,0.0,0.0,0.0,0.0,0.0,0.0,0.0,0.0,0.0,0.0,0.0,0.0,0.0,0.0,0.0,0.0,0.0,0.0,0.0,0.0,0.0,0.0,0.0,0.0,0.0,0.0,0.0,0.0,0.0,0.0,0.0,0.0,0.0,0.0,0.0,0.0,0.0,0.0,0.0,0.0,0.0,0.0,0.0,0.0,0.0,0.0,0.0,0.0,0.0,0.0,0.0,0.0,0.0,0.0,0.0,0.0,0.0,0.0,0.0,0.0,0.0,0.0,0.0,0.0,0.0,0.0,0.0,0.0,0.0,0.0,0.0,0.0,0.0,0.0,-1.9279,-1.8438,-1.7431,-1.7295,-1.724,-1.7212,0.0,0.0,0.0,0.0,0.0,0.0,0.0,0.0,0.0,0.0,0.0,0.0,0.0,0.0,0.0,0.0,0.0,0.0,0.0,0.0,0.0,0.0,0.0,0.0,0.0,0.0,0.0,0.0,0.0,0.0,0.0,0.0,0.0,0.0,0.0,0.0,0.0,0.0,0.0,0.0,0.0,0.0,0.0,0.0,0.0,0.0,0.0,0.0,0.0,0.0,0.0,0.0,0.0,0.0,0.0,0.0,0.0,0.0,0.0,0.0,0.0,0.0,0.0,0.0,0.0,0.0,0.0,0.0,0.0,0.0,0.0,0.0,0.0,0.0,0.0,0.0,0.0,0.0,0.0,0.0,0.0,0.0,0.0,0.0,0.0,0.0,0.0,0.0,0.0,0.0,0.0,0.0,0.0,0.0,0.0,0.0,0.0,0.0,0.0,0.0,0.0,0.0,0.0,0.0,0.0,0.0,0.0,0.0,-1.9955,-1.8962,-1.8073,-1.7225,-1.7308,-1.7337,0.0,0.0,0.0,0.0,0.0,0.0,0.0,0.0,0.0,0.0,0.0,0.0,0.0,0.0,0.0,0.0,0.0,0.0,0.0,0.0,0.0,0.0,0.0,0.0,0.0,0.0,0.0,0.0,0.0,0.0,0.0,0.0,0.0,0.0,0.0,0.0,0.0,0.0,0.0,0.0,0.0,0.0,0.0,0.0,0.0,0.0,0.0,0.0,0.0,0.0,0.0,0.0,0.0,0.0,0.0,0.0,0.0,0.0,0.0,0.0,0.0,0.0,0.0,0.0,0.0,0.0,0.0,0.0,0.0,0.0,0.0,0.0,0.0,0.0,0.0,0.0,0.0,0.0,0.0,0.0,0.0,0.0,0.0,0.0,0.0,0.0,0.0,0.0,0.0,0.0,0.0,0.0,0.0,0.0,0.0,0.0,0.0,0.0,0.0,0.0,0.0,0.0,0.0,0.0,0.0,0.0,0.0,0.0,0.0,-2.1264,-1.9403,-1.8031,-1.7238,-1.7253,-1.7096,0.0,0.0,0.0,0.0,0.0,0.0,0.0,0.0,0.0,0.0,0.0,0.0,0.0,0.0,0.0,0.0,0.0,0.0,0.0,0.0,0.0,0.0,0.0,0.0,0.0,0.0,0.0,0.0,0.0,0.0,0.0,0.0,0.0,0.0,0.0,0.0,0.0,0.0,0.0,0.0,0.0,0.0,0.0,0.0,0.0,0.0,0.0,0.0,0.0,0.0,0.0,0.0,0.0,0.0,0.0,0.0,0.0,0.0,0.0,0.0,0.0,0.0,0.0,0.0,0.0,0.0,0.0,0.0,0.0,0.0,0.0,0.0,0.0,0.0,0.0,0.0,0.0,0.0,0.0,0.0,0.0,0.0,0.0,0.0,0.0,0.0,0.0,0.0,0.0,0.0,0.0,0.0,0.0,0.0,0.0,0.0,0.0,0.0,0.0,0.0,0.0,0.0,0.0,0.0,0.0,0.0,0.0,0.0,0.0,-2.1111,0.0,-1.719,-1.6718,-1.6842,-1.6764,0.0,0.0,0.0,0.0,0.0,0.0,0.0,0.0,0.0,0.0,0.0,0.0,0.0,0.0,0.0,0.0,0.0,0.0,0.0,0.0,0.0,0.0,0.0,0.0,0.0,0.0,0.0,0.0,0.0,0.0,0.0,0.0,0.0,0.0,0.0,0.0,0.0,0.0,0.0,0.0,0.0,0.0,0.0,0.0,0.0,0.0,0.0,0.0,0.0,0.0,0.0,0.0,0.0,0.0,0.0,0.0,0.0,0.0,0.0,0.0,0.0,0.0,0.0,0.0,0.0,0.0,0.0,0.0,0.0,0.0,0.0,0.0,0.0,0.0,0.0,0.0,0.0,0.0,0.0,0.0,0.0,0.0,0.0,0.0,0.0,0.0,0.0,0.0,0.0,0.0,0.0,0.0,0.0,0.0,0.0,0.0,0.0,0.0,0.0,0.0,0.0,0.0,0.0,0.0,0.0,0.0,0.0,0.0,-2.2161,-1.935,-1.6928,-1.575,-1.564,-1.6175,-1.6447,0.0,0.0,0.0,0.0,0.0,0.0,0.0,0.0,0.0,0.0,0.0,0.0,0.0,0.0,0.0,0.0,0.0,0.0,0.0,0.0,0.0,0.0,0.0,0.0,0.0,0.0,0.0,0.0,0.0,0.0,0.0,0.0,0.0,0.0,0.0,0.0,0.0,0.0,0.0,0.0,0.0,0.0,0.0,0.0,0.0,0.0,0.0,0.0,0.0,0.0,0.0,0.0,0.0,0.0,0.0,0.0,0.0,0.0,0.0,0.0,0.0,0.0,0.0,0.0,0.0,0.0,0.0,0.0,0.0,0.0,0.0,0.0,0.0,0.0,0.0,0.0,0.0,0.0,0.0,0.0,0.0,0.0,0.0,0.0,0.0,0.0,0.0,0.0,0.0,0.0,0.0,0.0,0.0,0.0,0.0,0.0,0.0,0.0,0.0,0.0,0.0,0.0,0.0,0.0,0.0,0.0,0.0,0.0,0.0,-2.1931,-1.8284,-1.6646,-1.7345,-1.6397,-1.5878,0.0,0.0,0.0,0.0,0.0,0.0,0.0,0.0,0.0,0.0,0.0,0.0,0.0,0.0,0.0,0.0,0.0,0.0,0.0,0.0,0.0,0.0,0.0,0.0,0.0,0.0,0.0,0.0,0.0,0.0,0.0,0.0,0.0,0.0,0.0,0.0,0.0,0.0,0.0,0.0,0.0,0.0,0.0,0.0,0.0,0.0,0.0,0.0,0.0,0.0,0.0,0.0,0.0,0.0,0.0,0.0,0.0,0.0,0.0,0.0,0.0,0.0,0.0,0.0,0.0,0.0,0.0,0.0,0.0,0.0,0.0,0.0,0.0,0.0,0.0,0.0,0.0,0.0,0.0,0.0,0.0,0.0,0.0,0.0,0.0,0.0,0.0,0.0,0.0,0.0,0.0,0.0,0.0,0.0,0.0,0.0,0.0,0.0,0.0,0.0,0.0,0.0,0.0,0.0,0.0,0.0,0.0,0.0,0.0,-2.2615,-1.8318,-1.6323,-1.7226,-1.6064,-1.5593,-1.5856,0.0,0.0,0.0,0.0,0.0,0.0,0.0,0.0,0.0,0.0,0.0,0.0,0.0,0.0,0.0,0.0,0.0,0.0,0.0,0.0,0.0,0.0,0.0,0.0,0.0,0.0,0.0,0.0,0.0,0.0,0.0,0.0,0.0,0.0,0.0,0.0,0.0,0.0,0.0,0.0,0.0,0.0,0.0,0.0,0.0,0.0,0.0,0.0,0.0,0.0,0.0,0.0,0.0,0.0,0.0,0.0,0.0,0.0,0.0,0.0,0.0,0.0,0.0,0.0,0.0,0.0,0.0,0.0,0.0,0.0,0.0,0.0,0.0,0.0,0.0,0.0,0.0,0.0,0.0,0.0,0.0,0.0,0.0,0.0,0.0,0.0,0.0,0.0,0.0,0.0,0.0,0.0,0.0,0.0,0.0,0.0,0.0,0.0,0.0,0.0,0.0,0.0,0.0,0.0,0.0,0.0,0.0,0.0,-2.2048,-1.7325,-1.5222,-1.5837,-1.5507,-1.5579,0.0,0.0,0.0,0.0,0.0,0.0,0.0,0.0,0.0,0.0,0.0,0.0,0.0,0.0,0.0,0.0,0.0,0.0,0.0,0.0,0.0,0.0,0.0,0.0,0.0,0.0,0.0,0.0,0.0,0.0,0.0,0.0,0.0,0.0,0.0,0.0,0.0,0.0,0.0,0.0,0.0,0.0,0.0,0.0,0.0,0.0,0.0,0.0,0.0,0.0,0.0,0.0,0.0,0.0,0.0,0.0,0.0,0.0,0.0,0.0,0.0,0.0,0.0,0.0,0.0,0.0,0.0,0.0,0.0,0.0,0.0,0.0,0.0,0.0,0.0,0.0,0.0,0.0,0.0,0.0,0.0,0.0,0.0,0.0,0.0,0.0,0.0,0.0,0.0,0.0,0.0,0.0,0.0,0.0,0.0,0.0,0.0,0.0,0.0,0.0,0.0,0.0,0.0,0.0,0.0,0.0,0.0,0.0,0.0,-2.1444,-1.9202,-1.7996,-1.7936,-1.6818,-1.6053,0.0,0.0,0.0,0.0,0.0,0.0,0.0,0.0,0.0,0.0,0.0,0.0,0.0,0.0,0.0,0.0,0.0,0.0,0.0,0.0,0.0,0.0,0.0,0.0,0.0,0.0,0.0,0.0,0.0,0.0,0.0,0.0,0.0,0.0,0.0,0.0,0.0,0.0,0.0,0.0,0.0,0.0,0.0,0.0,0.0,0.0,0.0,0.0,0.0,0.0,0.0,0.0,0.0,0.0,0.0,0.0,0.0,0.0,0.0,0.0,0.0,0.0,0.0,0.0,0.0,0.0,0.0,0.0,0.0,0.0,0.0,0.0,0.0,0.0,0.0,0.0,0.0,0.0,0.0,0.0,0.0,0.0,0.0,0.0,0.0,0.0,0.0,0.0,0.0,0.0,0.0,0.0,0.0,0.0,0.0,0.0,0.0,0.0,0.0,0.0,0.0,0.0,0.0,0.0,0.0,0.0,0.0,0.0,-2.2857,-2.0685,-2.0132,-1.9621,-1.9094,-1.7748,-1.671,0.0,0.0,0.0,0.0,0.0,0.0,0.0,0.0,0.0,0.0,0.0,0.0,0.0,0.0,0.0,0.0,0.0,0.0,0.0,0.0,0.0,0.0,0.0,0.0,0.0,0.0,0.0,0.0,0.0,0.0,0.0,0.0,0.0,0.0,0.0,0.0,0.0,0.0,0.0,0.0,0.0,0.0,0.0,0.0,0.0,0.0,0.0,0.0,0.0,0.0,0.0,0.0,0.0,0.0,0.0,0.0,0.0,0.0,0.0,0.0,0.0,0.0,0.0,0.0,0.0,0.0,0.0,0.0,0.0,0.0,0.0,0.0,0.0,0.0,0.0,0.0,0.0,0.0,0.0,0.0,0.0,0.0,0.0,0.0,0.0,0.0,0.0,0.0,0.0,0.0,0.0,0.0,0.0,0.0,0.0,0.0,0.0,0.0,0.0,0.0,0.0,0.0,0.0,0.0,0.0,0.0,0.0,0.0,-2.2829,-2.0088,-2.0614,-2.0517,-1.9615,-1.8353,-1.7448,0.0,0.0,0.0,0.0,0.0,0.0,0.0,0.0,0.0,0.0,0.0,0.0,0.0,0.0,0.0,0.0,0.0,0.0,0.0,0.0,0.0,0.0,0.0,0.0,0.0,0.0,0.0,0.0,0.0,0.0,0.0,0.0,0.0,0.0,0.0,0.0,0.0,0.0,0.0,0.0,0.0,0.0,0.0,0.0,0.0,0.0,0.0,0.0,0.0,0.0,0.0,0.0,0.0,0.0,0.0,0.0,0.0,0.0,0.0,0.0,0.0,0.0,0.0,0.0,0.0,0.0,0.0,0.0,0.0,0.0,0.0,0.0,0.0,0.0,0.0,0.0,0.0,0.0,0.0,0.0,0.0,0.0,0.0,0.0,0.0,0.0,0.0,0.0,0.0,0.0,0.0,0.0,0.0,0.0,0.0,0.0,0.0,0.0,0.0,0.0,0.0,0.0,0.0,0.0,0.0,0.0,0.0,0.0,-2.2893,-2.1458,-2.2147,-2.1984,-2.0875,-1.8765,-1.7656,0.0,0.0,0.0,0.0,0.0,0.0,0.0,0.0,0.0,0.0,0.0,0.0,0.0,0.0,0.0,0.0,0.0,0.0,0.0,0.0,0.0,0.0,0.0,0.0,0.0,0.0,0.0,0.0,0.0,0.0,0.0,0.0,0.0,0.0,0.0,0.0,0.0,0.0,0.0,0.0,0.0,0.0,0.0,0.0,0.0,0.0,0.0,0.0,-1.8927,0.0,0.0,0.0,0.0,0.0,0.0,0.0,0.0,0.0,0.0,0.0,0.0,0.0,0.0,0.0,0.0,0.0,0.0,0.0,0.0,0.0,0.0,0.0,0.0,0.0,0.0,0.0,0.0,0.0,0.0,0.0,0.0,0.0,0.0,0.0,0.0,0.0,0.0,0.0,0.0,0.0,0.0,0.0,0.0,0.0,0.0,0.0,0.0,0.0,0.0,0.0,0.0,0.0,0.0,0.0,0.0,0.0,0.0,0.0,-2.2398,-2.1366,-2.1984,-2.1881,-2.0963,-1.8659,-1.7502,0.0,0.0,0.0,0.0,0.0,0.0,0.0,0.0,0.0,0.0,0.0,0.0,0.0,0.0,0.0,0.0,0.0,0.0,0.0,0.0,0.0,0.0,0.0,0.0,0.0,0.0,0.0,0.0,0.0,0.0,0.0,0.0,0.0,0.0,0.0,0.0,0.0,0.0,0.0,0.0,0.0,0.0,0.0,0.0,0.0,0.0,0.0,0.0,0.0,0.0,0.0,0.0,0.0,0.0,0.0,0.0,0.0,0.0,0.0,0.0,0.0,0.0,0.0,0.0,0.0,0.0,0.0,0.0,0.0,0.0,0.0,0.0,0.0,0.0,0.0,0.0,0.0,0.0,0.0,0.0,0.0,0.0,0.0,0.0,0.0,0.0,0.0,0.0,0.0,0.0,0.0,0.0,0.0,0.0,0.0,0.0,0.0,0.0,0.0,0.0,0.0,0.0,0.0,0.0,0.0,0.0,0.0,-2.2744,-2.192,-2.1072,-2.1425,-2.1422,-2.0907,-1.8564,-1.745,-1.8061,0.0,0.0,0.0,0.0,0.0,0.0,0.0,0.0,0.0,0.0,0.0,0.0,0.0,0.0,0.0,0.0,0.0,0.0,0.0,0.0,0.0,0.0,0.0,0.0,0.0,0.0,0.0,0.0,0.0,0.0,0.0,0.0,0.0,0.0,0.0,0.0,0.0,0.0,-1.7709,-1.7827,0.0,0.0,0.0,0.0,0.0,0.0,0.0,0.0,-1.8811,0.0,0.0,0.0,0.0,0.0,0.0,0.0,0.0,0.0,0.0,0.0,0.0,0.0,0.0,0.0,0.0,0.0,0.0,0.0,0.0,0.0,0.0,0.0,0.0,0.0,0.0,0.0,0.0,0.0,0.0,0.0,0.0,0.0,0.0,0.0,0.0,0.0,0.0,0.0,0.0,0.0,0.0,0.0,0.0,0.0,0.0,0.0,0.0,0.0,0.0,0.0,0.0,0.0,0.0,0.0,0.0,-2.2683,-2.2322,-2.221,-2.2375,-2.2073,-2.1874,-2.167,-1.9404,-1.8371,-1.8799,0.0,0.0,0.0,0.0,0.0,0.0,0.0,0.0,0.0,0.0,0.0,0.0,0.0,0.0,0.0,0.0,0.0,0.0,0.0,0.0,0.0,0.0,0.0,0.0,0.0,0.0,0.0,0.0,0.0,0.0,0.0,0.0,0.0,0.0,0.0,0.0,0.0,0.0,0.0,-1.8044,-1.8057,0.0,0.0,0.0,0.0,0.0,0.0,0.0,0.0,-1.9436,0.0,0.0,0.0,0.0,0.0,0.0,0.0,0.0,0.0,0.0,0.0,0.0,0.0,0.0,0.0,0.0,0.0,0.0,0.0,0.0,0.0,0.0,0.0,0.0,0.0,0.0,0.0,0.0,0.0,0.0,0.0,0.0,0.0,0.0,0.0,0.0,0.0,0.0,0.0,0.0,0.0,0.0,0.0,0.0,0.0,0.0,0.0,0.0,0.0,0.0,0.0,0.0,0.0,0.0,0.0,-2.3055,-2.1987,-2.169,-2.2278,-2.1933,-2.1713,-2.1445,-1.9264,-1.8361,0.0,0.0,0.0,0.0,0.0,0.0,0.0,0.0,0.0,0.0,0.0,0.0,0.0,0.0,0.0,0.0,0.0,0.0,0.0,0.0,0.0,0.0,0.0,0.0,0.0,0.0,0.0,0.0,0.0,0.0,0.0,0.0,0.0,0.0,0.0,0.0,0.0,0.0,0.0,0.0,-1.8778,-1.8537,-1.7199,0.0,0.0,0.0,0.0,0.0,0.0,-1.8833,-1.8965,0.0,0.0,0.0,0.0,0.0,0.0,0.0,0.0,0.0,0.0,0.0,0.0,0.0,0.0,0.0,0.0,0.0,0.0,0.0,0.0,0.0,0.0,0.0,0.0,0.0,0.0,0.0,0.0,0.0,0.0,0.0,0.0,0.0,0.0,0.0,0.0,0.0,0.0,0.0,0.0,0.0,0.0,0.0,0.0,0.0,0.0,0.0,0.0,0.0,0.0,0.0,0.0,0.0,0.0,0.0,-2.3594,-2.191,-2.129,-2.1839,-2.1705,-2.1376,-2.1049,-1.8878,-1.8154,0.0,0.0,0.0,0.0,0.0,0.0,0.0,0.0,0.0,0.0,0.0,0.0,0.0,0.0,0.0,0.0,0.0,0.0,0.0,0.0,0.0,0.0,0.0,0.0,0.0,0.0,0.0,0.0,0.0,0.0,0.0,0.0,0.0,0.0,0.0,0.0,0.0,0.0,0.0,0.0,0.0,-1.9049,-1.7404,-1.8046,0.0,0.0,0.0,0.0,-1.8339,-1.8403,0.0,0.0,0.0,0.0,0.0,0.0,0.0,0.0,0.0,0.0,0.0,0.0,0.0,0.0,0.0,0.0,0.0,0.0,0.0,0.0,0.0,0.0,0.0,0.0,0.0,0.0,0.0,0.0,0.0,0.0,0.0,0.0,0.0,0.0,0.0,0.0,0.0,0.0,0.0,0.0,0.0,0.0,0.0,0.0,0.0,0.0,0.0,0.0,0.0,0.0,0.0,0.0,0.0,0.0,0.0,0.0,-2.3664,-2.2538,-2.1918,-2.189,-2.1596,-2.1325,-2.1049,-1.8867,-1.8154,0.0,0.0,0.0,0.0,0.0,0.0,0.0,0.0,0.0,0.0,0.0,0.0,0.0,0.0,0.0,0.0,0.0,0.0,0.0,0.0,0.0,0.0,0.0,0.0,0.0,0.0,0.0,0.0,0.0,0.0,0.0,0.0,0.0,0.0,0.0,0.0,0.0,0.0,0.0,0.0,0.0,-1.9469,-1.7989,-1.8657,-1.9136,0.0,0.0,-1.9214,-1.9011,-1.9041,0.0,0.0,0.0,0.0,0.0,0.0,0.0,0.0,0.0,0.0,0.0,0.0,0.0,0.0,0.0,0.0,0.0,0.0,0.0,0.0,0.0,0.0,0.0,0.0,0.0,0.0,0.0,0.0,0.0,0.0,0.0,0.0,0.0,0.0,0.0,0.0,0.0,0.0,0.0,0.0,0.0,0.0,0.0,0.0,0.0,0.0,0.0,0.0,0.0,0.0,0.0,0.0,0.0,0.0,0.0,-2.271,-2.3001,-2.1917,-2.1496,-2.1907,-2.2004,-2.1741,-2.1123,-1.923,-1.8628,0.0,0.0,0.0,0.0,0.0,0.0,0.0,0.0,0.0,0.0,0.0,0.0,0.0,0.0,0.0,0.0,0.0,0.0,0.0,0.0,0.0,0.0,0.0,0.0,0.0,0.0,0.0,0.0,0.0,0.0,0.0,0.0,0.0,0.0,0.0,0.0,0.0,0.0,0.0,0.0,0.0,0.0,-1.8632,-1.907,0.0,0.0,0.0,-1.9915,-1.9489,0.0,0.0,0.0,0.0,0.0,0.0,0.0,0.0,0.0,0.0,0.0,0.0,0.0,0.0,0.0,0.0,0.0,0.0,0.0,0.0,0.0,0.0,0.0,0.0,0.0,0.0,0.0,0.0,0.0,0.0,0.0,0.0,0.0,0.0,0.0,0.0,0.0,0.0,0.0,0.0,0.0,0.0,0.0,0.0,0.0,0.0,0.0,0.0,0.0,0.0,0.0,0.0,0.0,0.0,0.0,0.0,0.0,-2.2564,-2.134,-2.1108,-2.1882,-2.2359,-2.2113,-2.1112,-1.9649,0.0,0.0,0.0,0.0,0.0,0.0,0.0,0.0,0.0,0.0,0.0,0.0,0.0,0.0,0.0,0.0,0.0,0.0,0.0,0.0,0.0,0.0,0.0,0.0,0.0,0.0,0.0,-1.8919,0.0,0.0,0.0,0.0,0.0,0.0,0.0,0.0,0.0,0.0,0.0,0.0,0.0,0.0,-2.094,-1.9375,-1.9554,-1.9642,0.0,0.0,-2.0305,-1.9737,-1.9429,-1.9651,0.0,0.0,0.0,0.0,0.0,0.0,0.0,0.0,0.0,0.0,0.0,0.0,0.0,0.0,0.0,0.0,0.0,0.0,0.0,0.0,0.0,0.0,0.0,0.0,0.0,0.0,0.0,0.0,0.0,0.0,0.0,0.0,0.0,0.0,0.0,0.0,0.0,0.0,0.0,0.0,0.0,0.0,0.0,0.0,0.0,0.0,0.0,0.0,0.0,0.0,0.0,0.0,0.0,0.0,-2.1527,-2.2511,-2.134,-2.1121,-2.1869,-2.2359,-2.2101,-2.1112,-1.9972,-1.9469,0.0,0.0,0.0,0.0,0.0,0.0,0.0,0.0,0.0,0.0,0.0,0.0,0.0,0.0,0.0,0.0,0.0,0.0,0.0,0.0,0.0,0.0,0.0,0.0,0.0,0.0,0.0,0.0,0.0,0.0,0.0,0.0,0.0,0.0,0.0,0.0,0.0,0.0,0.0,0.0,0.0,-2.2088,-2.0357,-2.0125,-2.0007,0.0,-2.0024,-2.018,-1.962,-2.0306,-2.1069,-2.1423,0.0,0.0,0.0,0.0,0.0,0.0,0.0,0.0,0.0,0.0,0.0,0.0,0.0,0.0,0.0,0.0,0.0,0.0,0.0,0.0,0.0,0.0,0.0,0.0,0.0,0.0,0.0,0.0,0.0,0.0,0.0,0.0,0.0,0.0,0.0,0.0,0.0,0.0,0.0,0.0,0.0,0.0,0.0,0.0,0.0,0.0,0.0,0.0,0.0,0.0,0.0,0.0,0.0,-2.2547,-2.2469,-2.1642,-2.1419,-2.1895,-2.2736,-2.2567,-2.1123,-2.0381,-1.9951,0.0,0.0,0.0,0.0,0.0,0.0,0.0,0.0,0.0,0.0,0.0,0.0,0.0,0.0,0.0,0.0,0.0,0.0,0.0,0.0,0.0,0.0,0.0,0.0,0.0,0.0,0.0,0.0,-1.8873,-1.9169,-1.9749,0.0,0.0,0.0,0.0,0.0,0.0,0.0,0.0,0.0,0.0,-2.1813,-2.0547,-2.069,0.0,0.0,-2.0852,-2.1193,-2.0508,-2.0716,-2.1262,-2.1977,-2.2469,0.0,0.0,0.0,0.0,0.0,0.0,0.0,0.0,0.0,0.0,0.0,0.0,0.0,0.0,0.0,0.0,0.0,0.0,0.0,0.0,0.0,0.0,0.0,0.0,0.0,0.0,0.0,0.0,0.0,0.0,0.0,0.0,0.0,0.0,0.0,0.0,0.0,0.0,0.0,0.0,0.0,0.0,0.0,0.0,0.0,0.0,0.0,0.0,0.0,0.0,0.0,0.0,-2.32,-2.291,-2.2165,-2.1887,-2.2206,-2.307,-2.2871,-2.1491,-2.0892,-2.0426,0.0,0.0,0.0,0.0,0.0,0.0,0.0,0.0,0.0,0.0,0.0,0.0,0.0,0.0,0.0,0.0,0.0,0.0,0.0,0.0,0.0,0.0,0.0,0.0,0.0,0.0,0.0,0.0,-1.96,-2.0302,-2.1469,0.0,0.0,0.0,0.0,0.0,0.0,0.0,0.0,0.0,0.0,-2.2173,-2.1232,-2.145,-2.1582,-2.1095,-2.1856,-2.2389,-2.2025,-2.1801,-2.1945,-2.2772,0.0,0.0,0.0,0.0,0.0,0.0,0.0,0.0,0.0,0.0,0.0,0.0,0.0,0.0,0.0,0.0,0.0,0.0,0.0,0.0,0.0,0.0,0.0,0.0,0.0,0.0,0.0,0.0,0.0,0.0,-2.767,0.0,0.0,0.0,0.0,0.0,0.0,0.0,0.0,0.0,0.0,0.0,0.0,0.0,0.0,0.0,0.0,0.0,0.0,0.0,0.0,0.0,0.0,-2.3131,-2.4034,-2.2923,-2.2512,-2.2744,-2.3334,-2.3113,-2.2113,-2.1416,-2.0967,-2.0749,0.0,0.0,0.0,0.0,0.0,0.0,0.0,0.0,0.0,0.0,0.0,0.0,0.0,0.0,0.0,0.0,0.0,0.0,0.0,0.0,0.0,0.0,0.0,0.0,0.0,0.0,-2.1163,-2.1276,-2.1686,0.0,0.0,0.0,0.0,0.0,0.0,0.0,0.0,0.0,0.0,-2.3911,-2.3371,-2.2583,-2.2487,-2.2498,-2.2525,-2.2959,-2.355,-2.4,-2.3713,-2.3455,0.0,0.0,0.0,0.0,0.0,0.0,0.0,0.0,0.0,0.0,0.0,0.0,0.0,0.0,0.0,0.0,0.0,0.0,0.0,0.0,0.0,0.0,0.0,0.0,0.0,0.0,0.0,-2.8419,-2.8814,0.0,0.0,0.0,0.0,0.0,0.0,0.0,0.0,0.0,0.0,0.0,-2.7223,-2.6857,0.0,0.0,0.0,0.0,0.0,0.0,0.0,0.0,0.0,0.0,0.0,0.0,-2.4236,-2.406,-2.3228,-2.2803,-2.2795,-2.3216,-2.3005,-2.2113,-2.1428,-2.0783,-2.0139,0.0,0.0,0.0,0.0,0.0,0.0,0.0,0.0,0.0,0.0,0.0,0.0,0.0,0.0,0.0,0.0,0.0,0.0,0.0,0.0,0.0,0.0,0.0,0.0,0.0,-2.2001,0.0,0.0,0.0,0.0,0.0,0.0,0.0,0.0,0.0,0.0,0.0,-2.5372,-2.4593,-2.3926,-2.3302,-2.2723,-2.2588,-2.2485,0.0,0.0,0.0,0.0,0.0,0.0,0.0,0.0,0.0,0.0,0.0,0.0,0.0,0.0,-2.5954,-2.5917,-2.641,-2.6926,-2.7029,0.0,0.0,0.0,0.0,0.0,0.0,0.0,0.0,0.0,0.0,0.0,0.0,0.0,0.0,-2.8208,0.0,-2.8677,0.0,0.0,0.0,0.0,0.0,0.0,0.0,0.0,-2.713,-2.6908,-2.7077,-2.6713,-2.6661,0.0,-2.7232,-2.7037,0.0,0.0,0.0,0.0,0.0,0.0,0.0,0.0,-2.49,-2.4387,-2.3975,-2.3593,-2.3398,-2.3815,-2.3703,-2.3069,-2.2424,-2.1459,-2.0228,-2.0881,-2.1403,0.0,0.0,0.0,0.0,0.0,0.0,0.0,0.0,0.0,0.0,0.0,0.0,0.0,0.0,0.0,0.0,0.0,0.0,0.0,0.0,0.0,0.0,0.0,-2.2454,0.0,0.0,0.0,0.0,0.0,0.0,0.0,0.0,0.0,-2.6734,-2.5903,-2.5173,-2.4894,-2.3999,-2.3275,-2.292,0.0,0.0,0.0,0.0,0.0,0.0,0.0,-2.5126,-2.4875,-2.6019,-2.697,-2.7113,-2.6903,-2.6856,-2.7255,0.0,0.0,-2.6344,-2.6916,-2.7486,-2.7503,-2.7706,-2.7807,-2.7554,-2.7266,-2.7012,0.0,0.0,0.0,0.0,0.0,0.0,0.0,0.0,-2.7126,-2.7301,0.0,-2.8745,0.0,0.0,0.0,0.0,0.0,-2.7902,0.0,0.0,-2.6116,-2.591,-2.6452,-2.6334,-2.6229,-2.6176,-2.6845,-2.6873,-2.6531,-2.6661,0.0,0.0,0.0,0.0,0.0,0.0,-2.5014,-2.504,-2.5001,-2.4806,-2.4438,-2.5012,-2.5103,-2.473,-2.4108,-2.2866,-2.0983,-2.1793,-2.233,-2.2291,-2.2197,0.0,0.0,0.0,0.0,0.0,0.0,0.0,0.0,0.0,0.0,0.0,0.0,0.0,0.0,0.0,0.0,0.0,0.0,0.0,0.0,-2.2267,0.0,0.0,0.0,0.0,0.0,0.0,0.0,0.0,0.0,0.0,-2.7364,-2.6166,-2.5305,-2.5351,0.0,0.0,0.0,0.0,-2.4309,-2.4807,-2.5334,-2.6085,-2.7281,-2.6533,-2.595,-2.646,0.0,0.0,-2.8854,-2.8225,-2.7798,-2.8902,-2.8329,-2.7494,-2.6782,-2.7869,-2.889,-2.8924,-2.9414,-2.9753,-2.911,-2.8315,-2.7672,-2.8214,0.0,0.0,0.0,0.0,-2.8762,-2.8715,-2.8132,-2.8638,-2.8805,-2.889,-2.9379,0.0,0.0,0.0,0.0,0.0,0.0,-2.9145,-2.8905,-2.8666,-2.8389,-2.8004,-2.7934,-2.7864,-2.7864,-2.803,-2.7895,-2.7413,-2.7095,-2.732,-2.8098,0.0,0.0,0.0,0.0,-2.6177,-2.6164,-2.5534,-2.5252,-2.5277,-2.523,-2.4911,-2.4486,-2.4641,-2.376,-2.1652,-2.2194,-2.2324,-2.1934,-2.2164,0.0,0.0,0.0,0.0,0.0,0.0,0.0,0.0,0.0,0.0,0.0,0.0,0.0,0.0,0.0,0.0,0.0,0.0,0.0,-2.5023,-2.4055,-2.4008,0.0,0.0,0.0,0.0,0.0,0.0,0.0,0.0,0.0,-2.7444,-2.6189,-2.5482,0.0,0.0,-2.484,-2.5785,-2.5503,-2.5217,-2.536,-2.5585,0.0,-2.613,-2.6753,-2.7076,-2.6677,-2.7188,-2.7902,-2.8514,-2.8606,-2.8715,-2.9058,-2.9022,-2.882,-2.8662,-2.8791,-2.9008,-2.9028,-2.9161,-2.9245,-2.9025,-2.8789,-2.8602,-2.9164,-2.8505,-2.8578,-2.8426,-2.8333,-2.9081,-2.9043,-2.8473,-2.8816,-2.8969,-2.9068,-2.9202,-2.9391,-2.967,-2.9788,0.0,0.0,0.0,-2.9775,-2.9323,-2.925,-2.901,-2.8545,-2.8448,-2.8375,-2.8388,-2.8591,-2.8486,-2.8023,-2.7921,-2.8049,-2.8477,0.0,0.0,-2.7465,-2.6948,-2.6556,-2.627,-2.6012,-2.5909,-2.5922,-2.5884,-2.561,-2.5109,-2.5507,-2.4913,-2.3097,-2.3156,-2.2921,-2.2295,-2.2126,-2.2736,0.0,0.0,0.0,0.0,0.0,0.0,0.0,0.0,0.0,0.0,0.0,-2.6916,-2.7087,0.0,0.0,0.0,-2.5843,-2.5526,-2.5779,-2.4978,0.0,0.0,0.0,0.0,0.0,0.0,0.0,-2.8083,-2.7927,-2.7876,-2.7897,-2.6864,-2.6282,-2.6717,-2.5941,-2.5625,-2.6423,0.0,-2.5704,-2.5959,-2.6051,-2.6189,-2.6363,-2.715,-2.759,-2.7214,-2.7618,-2.8186,-2.8605,-2.892,-2.9212,-2.9553,-2.9721,-2.9912,-3.0106,-2.9989,-2.9736,-2.9499,-2.9668,-2.9854,-2.9854,-2.9854,-2.9871,-3.0407,-2.998,-3.02,-2.9782,-2.9076,-2.9252,-2.8987,-2.8373,-2.8386,-2.8434,-2.8606,-2.8642,-2.8931,-2.9561,-3.0289,0.0,-2.9535,-2.9709,-2.9452,-2.872,-2.8613,-2.8553,-2.848,-2.8333,-2.8247,-2.826,-2.875,-2.8799,-2.8455,-2.8959,-2.9007,-2.8592,-2.7275,-2.6464,-2.6281,-2.657,-2.6349,-2.5728,-2.6349,-2.6622,-2.6505,-2.6809,-2.678,-2.6334,-2.6595,-2.6108,-2.4908,-2.4425,-2.3913,-2.3139,-2.2402,-2.2692,-2.4154,0.0,0.0,0.0,0.0,0.0,0.0,0.0,0.0,0.0,0.0,0.0,0.0,0.0,0.0,-2.7142,-2.5458,0.0,-2.5854,-2.5548,0.0,0.0,0.0,-2.9391,-2.7883,-2.9256,-2.9899,-2.8924,0.0,0.0,-2.8644,-2.7979,-2.7442,-2.7354,-2.6609,-2.606,-2.6042,-2.5916,-2.5989,-2.6587,-2.6662,-2.6886,-2.7385,-2.758,-2.771,-2.7894,-2.802,-2.8284,-2.8904,-2.9182,-2.9512,-3.0309,-3.0502,-3.0716,-3.1179,-3.1241,-3.1089,-3.0531,-3.0869,-3.1275,-3.1343,-3.1376,-3.1433,-3.1373,-3.1625,-3.1719,-3.1085,-3.0244,-3.0712,-3.08,-3.062,-3.0608,-3.0608,-3.0662,-3.0416,-2.9986,-2.9561,-3.02,-3.0136,-2.9548,-3.0033,-3.0099,-2.9757,-2.9682,-2.9618,-2.9479,-2.9402,-2.939,-2.9402,-2.9515,-2.9289,-2.8837,-2.8938,-2.8724,-2.8255,-2.8007,-2.7742,-2.7447,-2.7092,-2.7113,-2.7498,-2.7113,-2.702,-2.7074,-2.7271,-2.7338,-2.7194,-2.7191,-2.6705,-2.579,-2.5414,-2.4909,-2.4131,-2.3768,-2.4292,-2.5781,-2.5984,0.0,0.0,0.0,0.0,0.0,0.0,0.0,0.0,0.0,-2.8719,-2.8812,0.0,-2.8451,0.0,-2.6677,-2.6798,-2.8412,-2.7592,0.0,0.0,-2.9714,-3.0395,-3.0553,-3.0623,-3.06,-3.0543,-2.9219,-2.8532,-2.8966,-2.8459,-2.8151,-2.8369,-2.7399,-2.706,-2.7921,-2.751,-2.7156,-2.734,-2.7355,-2.7395,-2.758,-2.769,-2.779,-2.7955,-2.8088,-2.8365,-2.8997,-2.9409,-2.9837,-3.0393,-3.0781,-3.1257,-3.1884,-3.2059,-3.2188,-3.2459,-3.2324,-3.2205,-3.2747,-3.2865,-3.3141,-3.3056,-3.3332,-3.3332,-3.298,-3.2416,-3.1951,-3.1763,-3.1738,-3.1499,-3.1386,-3.1373,-3.1246,-3.0846,-3.0341,-3.056,-3.0355,-2.9999,-3.019,-3.0152,-2.9934,-2.9934,-2.9946,-2.9779,-2.9779,-2.9779,-2.9779,-2.9779,-2.9628,-2.934,-2.9327,-2.9026,-2.8486,-2.8547,-2.8429,-2.8015,-2.7755,-2.7919,-2.8343,-2.7887,-2.7717,-2.7767,-2.76,-2.7654,-2.7889,-2.7533,-2.7169,-2.6974,-2.6111,-2.5525,-2.5313,-2.4757,-2.5043,-2.6203,-2.6516,-2.7101,0.0,0.0,0.0,0.0,0.0,0.0,0.0,0.0,0.0,0.0,0.0,-2.8243,-2.7687,-2.7311,-2.7639,-2.8899,-2.8606,-2.8652,-2.9306,-3.0239,-3.0782,-3.0647,-3.0679,-3.0845,-3.1413,-3.0031,-2.9385,-3.0227,-2.9599,-2.8961,-2.8824,-2.8181,-2.7854,-2.812,-2.79,-2.756,-2.756,-2.756,-2.756,-2.756,-2.7675,-2.784,-2.8171,-2.835,-2.8654,-2.9483,-2.9908,-3.0267,-3.0699,-3.1015,-3.1309,-3.1715,-3.2127,-3.251,-3.3194,-3.3546,-3.3755,-3.4114,-3.4199,-3.4569,-3.4763,-3.4826,-3.4826,-3.4864,-3.4813,-3.3282,-3.2604,-3.2491,-3.1938,-3.1625,-3.1499,-3.1499,-3.1461,-3.1361,-3.1069,-3.0855,-3.0696,-3.0441,-3.0136,-3.0005,-2.993,-2.9892,-2.9905,-2.9842,-2.9779,-2.9779,-2.9779,-2.9779,-2.9779,-2.9779,-2.9528,-2.9063,-2.9026,-2.88,-2.8409,-2.8664,-2.8741,-2.8757,-2.8667,-2.8539,-2.849,-2.802,-2.7941,-2.8333,-2.7767,-2.7647,-2.7967,-2.6596,-2.607,-2.6441,-2.5742,-2.5678,-2.6408,-2.6844,-2.7423,0.0,-2.8521,0.0,0.0,0.0,0.0,0.0,0.0,0.0,0.0,-2.8339,-2.7924,-2.7947,-2.7864,-2.805,-2.8728,-2.9214,-2.955,-2.9654,-3.0706,-3.102,-3.0263,-3.0474,-3.1105,-3.2098,-3.1014,-3.0646,-3.1905,-3.1066,-3.0075,-2.9417,-2.926,-2.8907,-2.806,-2.7775,-2.756,-2.756,-2.756,-2.756,-2.7625,-2.7625,-2.7875,-2.8367,-2.8606,-2.9104,-3.0107,-3.0492,-3.0792,-3.124,-3.1495,-3.163,-3.1698,-3.229,-3.2865,-3.3829,-3.4805,-3.5439,-3.5514,-3.5596,-3.6023,-3.4977,-3.5378,-3.5299,-3.5642,-3.5981,-3.524,-3.4663,-3.4211,-3.3658,-3.2918,-3.2064,-3.2064,-3.18,-3.1399,-3.1367,-3.1235,-3.1235,-3.1216,-3.1085,-3.1072,-3.0658,-3.0457,-3.0432,-3.0005,-2.9779,-2.9779,-2.9779,-2.9779,-2.9779,-2.9779,-2.9741,-2.9628,-2.9628,-2.9642,-2.9694,0.0,0.0,0.0,-2.9494,-2.9554,-2.9144,-2.9013,-2.8765,-2.8399,-2.8281,0.0,-2.7639,-2.7172,-2.7037,-2.7152,-2.71,0.0,0.0,0.0,0.0,0.0,0.0,0.0,0.0,0.0,0.0,0.0,-2.9297,-2.9441,-2.9969,-2.936,-2.9413,-3.0427,-2.9631,-2.9466,-3.0593,-3.0274,-3.0383,-3.153,-3.1803,-3.2289,-3.3206,-3.2582,-3.2527,-3.38,-3.246,-3.1826,-3.2945,-3.2586,-3.1882,-3.1046,-3.0956,-3.0492,-2.9355,-2.8344,-2.7604,-2.756,-2.756,-2.756,-2.756,-2.7675,-2.8024,-2.8511,-2.8795,-2.9319,-3.0323,-3.1023,-3.1541,-3.2006,-3.2577,-3.3355,-3.4438,-3.4421,-3.4438,-3.5859,-3.6627,-3.7051,-3.7076,-3.7311,-3.8081,-3.5692,0.0,-3.5956,-3.6107,0.0,-3.6069,-3.5793,-3.5466,-3.4663,-3.3822,-3.3031,-3.2754,-3.2478,-3.2202,-3.1926,-3.18,-3.1788,-3.1512,-3.1386,-3.1373,-3.1122,-3.0997,-3.0997,-3.0721,-3.0583,-3.0583,-3.0583,-3.0583,-3.057,-3.0583,-3.0457,-3.0193,-3.0193,-3.0133,-2.9946,-3.0139,-3.0074,-2.9831,-2.998,-2.9925,-2.9719,-2.9431,-2.9261,-2.9235,-2.8974,0.0,0.0,0.0,0.0,0.0,0.0,0.0,0.0,0.0,0.0,-3.0219,-3.0147,-3.0268,-3.0516,-3.0281,-3.0137,-3.0124,-3.0137,-3.002,-2.9794,-2.9487,-2.9544,-3.0213,-2.9936,-2.9966,-3.0659,-3.0873,-3.1366,-3.2079,-3.2469,-3.3003,-3.3575,-3.3212,-3.3213,-3.4053,-3.3303,-3.2896,-3.3901,-3.3471,-3.2811,-3.2138,-3.2018,-3.1659,-3.0612,-2.9131,-2.7993,-2.77,-2.756,-2.756,-2.761,-2.7845,-2.8391,-2.9186,-2.9736,-3.0474,-3.158,-3.21,-3.2479,-3.2823,-3.3169,-3.3795,-3.4759,-3.5013,-3.5419,-3.6576,-3.7644,-3.8442,-3.8841,-3.9282,-4.0024,-3.6558,-3.6634,-3.6546,-3.6508,-3.6508,-3.6395,-3.637,-3.6295,0.0,0.0,0.0,-3.3571,-3.3307,-3.3194,-3.2729,-3.2453,-3.234,-3.1888,-3.17,-3.1687,-3.1574,-3.1537,-3.1537,-3.1449,-3.1386,-3.1386,-3.1386,-3.1386,-3.1386,-3.1386,-3.1173,-3.0796,-3.0746,-3.052,-3.0249,-3.0471,-3.0724,-3.0903,-3.0454,-3.0245,-3.0281,-2.9823,-2.9758,-3.0064,-2.968,-2.9601,-2.9954,-2.9366,-2.9256,-2.9697,-2.9181,-2.9108,-2.9484,-2.9421,-2.952,-2.9921,-3.0121,-3.049,-3.0947,-3.0986,-3.0986,-3.0986,-3.0986,-3.0581,-2.964,-2.9588,-2.9575,-2.9575,-3.0006,-3.0294,-3.0281,-3.1236,-3.2015,-3.2232,-3.2861,-3.3283,-3.3575,-3.3575,-3.3919,-3.4336,-3.4083,-3.3956,-3.4558,-3.4218,-3.3604,-3.3036,-3.2916,-3.2482,-3.1524,-2.9924,-2.8472,-2.7754,-2.756,-2.761,-2.7745,-2.8027,-2.8776,-2.9878,-3.0642,-3.1511,-3.2584,-3.3168,-3.3448,-3.355,-3.3761,-3.4387,-3.5013,-3.5707,-3.6265,-3.7009,-3.839,-3.9585,-4.0285,-4.0961,-4.1686,-3.7337,-3.7739,-3.7262,-3.7073,-3.7036,-3.6558,-3.637,-3.6307,-3.5692,-3.5115,-3.46,-3.4525,-3.4223,-3.3784,-3.3696,-3.3407,-3.2968,-3.288,-3.2842,0.0,-3.2328,-3.2102,-3.2077,-3.1612,-3.1386,-3.1386,-3.1386,-3.1386,-3.1386,-3.1399,-3.1348,-3.1298,-3.1286,-3.141,-3.1698,-3.146,-3.1428,-3.1628,-3.112,-3.0846,-3.0869,-3.0777,-3.0542,-3.015,-3.0059,-2.981,-2.9418,-2.9327,-2.9314,-2.9405,-2.9554,-2.9654,-2.9744,-3.0206,-3.0491,-3.0568,-3.0794,-3.0908,-3.0973,-3.0986,-3.0986,-3.0986,-3.0986,-3.0908,-3.0764,-3.0751,-3.0751,-3.0738,-3.079,-3.0869,-3.0869,-3.1071,-3.175,-3.2861,-3.3157,-3.3713,-3.492,-3.5082,-3.5133,-3.5279,-3.527,-3.5165,-3.5265,-3.519,-3.4846,-3.4337,-3.3993,-3.3544,-3.1913,-3.0342,-2.8996,-2.7904,-2.756,-2.7745,-2.8076,-2.8255,-2.8842,-2.9819,-3.0689,-3.1517,-3.2387,-3.3395,-3.4155,-3.437,-3.5284,-3.6332,-3.7161,-3.7499,-3.7821,-3.8461,-3.9531,-4.027,-4.0489,-4.1556,-4.2625,-3.7776,-3.7965,-3.7726,-3.7462,-3.7136,-3.6596,-3.637,-3.6345,-3.6094,-3.5667,-3.5165,-3.4851,-3.4575,-3.4361,-3.4349,-3.4211,-3.3972,-3.3972,-3.3972,-3.3922,-3.3395,-3.3131,-3.3081,-3.2566,-3.2303,-3.2315,-3.2303,-3.2303,-3.2315,-3.2303,-3.2152,-3.1838,-3.1713,-3.1818,-3.2047,-3.2019,-3.211,-3.228,-3.1431,-3.0986,-3.0986,-3.0986,-3.0869,-3.0607,-3.0594,-3.0477,-3.0215,-3.0202,-3.0202,-3.0202,-3.0077,-3.0108,-3.042,-3.0407,-3.0524,-3.081,-3.0911,-3.0986,-3.0986,-3.0986,-3.0856,-3.0555,-3.0529,-3.0529,-3.0529,-3.0803,-3.0986,-3.0986,-3.0986,-3.0986,-3.1061,-3.169,-3.2448,-3.3157,-3.3934,-3.4721,-3.5359,-3.5489,-3.5489,-3.5489,-3.5489,-3.5489,-3.5489,-3.5489,-3.525,-3.4622,-3.4472,-3.3948,-3.2751,-3.1764,-3.0417,-2.8659,-2.8354,-2.8423,-2.8396,-2.881,-2.943,-3.034,-3.1396,-3.2299,-3.3108,-3.4219,-3.5015,-3.5656,-3.6383,-3.7178,-3.821,-3.8497,-3.8819,-3.9476,-4.0377,-4.0885,-4.1173,-4.2065,-4.2808,-3.8278,-3.8379,-3.8253,-3.7877,-3.7337,-3.691,-3.6734,-3.6722,-3.6609,-3.6307,-3.5868,-3.5341,-3.5027,-3.4914,-3.4901,-3.4851,-3.4738,-3.4726,-3.4726,-3.4675,-3.4286,-3.4048,-3.4073,-3.3608,-3.3431,-3.3293,-3.3431,-3.3382,-3.3294,-3.3395,-3.3232,-3.2852,-3.2491,-3.2472,-3.2731,-3.2623,-3.2655,-3.2829,-3.1888,-3.1365,-3.1365,-3.1248,-3.1169,-3.1182,-3.1052,-3.0986,-3.0986,-3.0986,-3.0986,-3.096,-3.0438,-3.0333,-3.0738,-3.0372,-3.0281,-3.0581,-3.0725,-3.0738,-3.0607,-3.0594,-3.0464,-3.0163,-3.0019,-3.0059,-3.032,-3.0594,-3.079,-3.0803,-3.1106,-3.1259,-3.1394,-3.2376,-3.3283,-3.3506,-3.4491,-3.5213,-3.5424,-3.5489,-3.5489,-3.5489,-3.5489,-3.5489,-3.5489,-3.5489,-3.522,-3.4651,-3.4472,-3.4218,-3.3589,-3.2931,-3.1569,-3.0187,-2.9556,-2.9404,-2.8964,-2.9496,-3.017,-3.0803,-3.177,-3.2707,-3.365,-3.4723,-3.5756,-3.6518,-3.7077,-3.7736,-3.8734,-3.914,-3.946,-4.0133,-4.0886,-4.1534,-4.1817,-4.2364,-4.29,-3.9069,-3.9421,-3.8994,-3.8467,-3.7939,-3.7852,-3.7801,-3.7739,-3.7324,-3.7086,-3.691,-3.6458,-3.5918,-3.5516,-3.5466,-3.5215,-3.4801,-3.4738,-3.4763,-3.4776,-3.4675,-3.4627,-3.4641,-3.4564,-3.4338,-3.3931,-3.4249,-3.4236,-3.3872,-3.4286,-3.4614,-3.4705,-3.4286,-3.4117,-3.4469,-3.3662,-3.3264,-3.3509,-3.2868,-3.2542,-3.2502,-3.2032,-3.1757,-3.1757,-3.1261,-3.0986,-3.0986,-3.0986,-3.0986,-3.0947,-3.0438,-3.0163,-3.0215,-3.009,-2.9941,-2.9536,-2.9941,-2.9993,-2.9536,-2.9431,-2.9666,-3.0032,-2.9666,-2.9797,-3.0686,-3.0451,-3.0215,-3.0315,-3.1269,-3.1928,-3.2015,-3.2791,-3.3492,-3.4027,-3.4394,-3.4677,-3.5344,-3.5489,-3.5489,-3.5489,-3.5489,-3.5489,-3.5489,-3.5459,-3.5205,-3.4681,-3.4517,-3.4292,-3.3709,-3.3171,-3.2672,-3.1931,-3.1173,-3.0595,-3.0559,-3.0674,-3.0875,-3.0803,-3.1364,-3.2443,-3.3477,-3.4606,-3.5807,-3.6891,-3.7787,-3.8565,-3.9056,-3.9511,-4.0118,-4.0542,-4.1139,-4.1743,-4.248,-4.2844,-4.29,-3.9484,-3.9672,-3.9446,-3.9032,-3.8517,-3.8153,-3.7826,-3.7525,-3.7651,-3.7487,-3.7186,-3.6935,-3.6546,-3.6044,-3.6031,-3.5893,-3.5705,-3.5692,-3.5692,-3.5655,-3.5378,-3.5206,-3.5133,-3.4866,-3.4575,-3.4374,-3.4625,-3.4613,-3.4462,-3.4728,-3.5085,-3.5341,-3.5173,-3.5079,-3.4917,-3.4575,-3.434,-3.4071,-3.3822,-3.3692,-3.36,-3.2803,-3.2176,-3.1849,-3.1614,-3.1326,-3.1026,-3.0986,-3.0986,-3.0947,-3.0438,-3.0281,-3.0607,-2.9993,-2.968,-2.9745,-2.968,-2.968,-2.9784,-2.947,-2.9523,-3.0025,-2.9601,-2.951,-2.9974,-3.0103,-3.0107,-2.9907,-3.1172,-3.2232,-3.2706,-3.3422,-3.3959,-3.4298,-3.4677,-3.5118,-3.5424,-3.5489,-3.5489,-3.5489,-3.5489,-3.5489,-3.5429,-3.5145,-3.4981,-3.4921,-3.4786,-3.4367,-3.413,-3.4167,-3.402,-3.359,-3.324,-3.2666,-3.1915,-3.1831,-3.1891,-3.2044,-3.265,-3.345,-3.3805,-3.4728,-3.5966,-3.7178,-3.8041,-3.887,-3.9563,-4.0029,-4.0628,-4.0972,-4.1455,-4.2098,-4.275,-4.2882,-4.29,-3.9697,-3.9697,-3.9697,-3.9459,-3.9069,-3.8655,-3.8241,-3.7914,-3.814,-3.8002,-3.7626,-3.7337,-3.696,-3.6609,-3.6433,-3.637,-3.637,-3.637,-3.637,-3.632,-3.5943,-3.573,-3.5697,-3.542,-3.519,-3.5044,-3.5307,-3.5373,-3.5347,-3.5542,-3.5826,-3.6058,-3.6005,-3.5898,-3.5509,-3.5539,-3.5234,-3.4698,-3.4646,-3.4567,-3.4306,-3.3587,-3.2894,-3.2372,-3.2163,-3.1797,-3.1261,-3.1222,-3.1143,-3.0986,-3.0451,-3.032,-3.0673,-2.981,-2.9392,-2.9562,-2.9118,-2.9052,-2.9601,-2.9261,-2.9424,-3.0256,-2.9932,-2.9817,-3.0298,-3.054,-3.0568,-3.074,-3.1557,-3.2472,-3.2928,-3.3671,-3.4069,-3.4149,-3.4664,-3.4951,-3.4921,-3.4966,-3.4981,-3.5175,-3.516,-3.531,-3.5385,-3.5115,-3.4951,-3.504,-3.4936,-3.4622,-3.4643,-3.4927,-3.5146,-3.4801,-3.4974,-3.4295,-3.2898,-3.2722,-3.3006,-3.2929,-3.3362,-3.3795,-3.4398,-3.5194,-3.6231,-3.7483,-3.8024,-3.8798,-3.991,-4.0542,-4.1019,-4.1276,-4.1803,-4.2458,-4.2844,-4.29,-4.29,-3.9697,-3.9697,-3.9697,-3.9672,-3.9634,-3.9584,-3.9559,-3.9308,-3.9019,-3.8793,-3.858,-3.7663,-3.7186,-3.7098,-3.6634,-3.637,-3.637,-3.637,-3.637,-3.6358,-3.6345,-3.632,-3.6414,-3.6564,-3.64,-3.6049,-3.665,-3.6913,-3.69,-3.7006,-3.7137,-3.7363,-3.6845,-3.6651,-3.6674,-3.6305,-3.5809,-3.5312,-3.5247,-3.5012,-3.4515,-3.4371,-3.4031,-3.3522,-3.2947,-3.2385,-3.1849,-3.1707,-3.1548,-3.0999,-3.0438,-3.0163,-3.0163,-2.964,-2.9104,-2.8608,-2.802,-2.7954,-2.8543,-2.8651,-2.931,-3.0737,-3.073,-3.1048,-3.2347,-3.1898,-3.1853,-3.3013,-3.2486,-3.2407,-3.255,-3.3191,-3.3615,-3.36,-3.3602,-3.3694,-3.3664,-3.3799,-3.3903,-3.4412,-3.4681,-3.4951,-3.5429,-3.5489,-3.5145,-3.4951,-3.5085,-3.519,-3.4748,-3.5049,-3.5605,-3.577,-3.5556,-3.4803,-3.3964,-3.3694,-3.3442,-3.3383,-3.3645,-3.36,-3.4494,-3.5492,-3.6726,-3.7838,-3.8751,-3.9625,-4.0439,-4.099,-4.1383,-4.1778,-4.2338,-4.2824,-4.29,-4.29,-4.2938,-3.9697,-3.9697,-3.9697,-3.9697,-3.9697,-3.9697,-3.9496,-3.9195,-3.9346,-3.9195,-3.8781,-3.804,-3.7713,-3.7676,-3.7136,-3.6684,-3.6383,-3.637,-3.637,-3.6502,-3.6925,-3.7204,-3.721,-3.7738,-3.7948,-3.7877,-3.8056,-3.8088,-3.7968,-3.7942,-3.7855,-3.7729,-3.7508,-3.73,-3.7024,-3.6789,-3.6397,-3.5874,-3.5809,-3.5704,-3.5443,-3.5155,-3.4868,-3.4646,-3.377,-3.2816,-3.1798,-3.1759,-3.1575,-3.1013,-3.0438,-3.0294,-3.0581,-3.0137,-2.9732,-2.9483,-2.8974,-2.9065,-2.9882,-2.9807,-3.0223,-3.1544,-3.1695,-3.1914,-3.2537,-3.2649,-3.2731,-3.2809,-3.2676,-3.2446,-3.2581,-3.3108,-3.3499,-3.3499,-3.3484,-3.3455,-3.3499,-3.3514,-3.3754,-3.4382,-3.4831,-3.5265,-3.5385,-3.5489,-3.54,-3.5205,-3.5355,-3.516,-3.4931,-3.5676,-3.6397,-3.6077,-3.6405,-3.6633,-3.5332,-3.475,-3.4449,-3.4409,-3.4497,-3.4684,-3.5295,-3.6021,-3.7094,-3.7787,-3.8903,-3.9993,-4.0676,-4.1499,-4.1864,-4.2338,-4.2862,-4.29,-4.29,-4.2957,-4.3032,-3.9697,-3.9697,-3.9697,-3.9697,-3.9697,-3.9697,-3.9484,-3.9195,-3.9624,-3.9574,-3.9082,-3.8642,-3.839,-3.8191,-3.7811,-3.7358,-3.7114,-3.7102,-3.7089,-3.7127,-3.7673,-3.7954,-3.8108,-3.864,-3.891,-3.891,-3.8981,-3.8981,-3.8739,-3.8626,-3.834,-3.82,-3.8004,-3.7717,-3.7351,-3.7299,-3.6998,-3.6515,-3.6397,-3.6319,-3.607,-3.5574,-3.5299,-3.5155,-3.4358,-3.3404,-3.245,-3.2411,-3.2032,-3.1339,-3.0882,-3.0699,-3.0673,-3.0346,-3.0045,-2.9836,-2.9497,-2.9823,-3.0877,-3.0788,-3.1294,-3.2638,-3.2903,-3.3072,-3.3355,-3.3609,-3.3519,-3.3225,-3.2657,-3.2527,-3.2542,-3.2721,-3.2856,-3.2856,-3.2856,-3.2856,-3.2871,-3.2856,-3.326,-3.4038,-3.4936,-3.54,-3.5489,-3.5489,-3.5489,-3.5489,-3.5489,-3.5265,-3.5187,-3.5999,-3.6939,-3.6226,-3.697,-3.7301,-3.6604,-3.5926,-3.5065,-3.4911,-3.4914,-3.5253,-3.5748,-3.6494,-3.7293,-3.7936,-3.887,-3.9954,-4.0941,-4.1835,-4.2418,-4.2806,-4.2938,-4.292,-4.2957,-4.305,-4.3232,-3.9697,-3.9697,-3.9697,-3.9697,-3.9697,-3.9697,-3.9697,-3.975,-3.9968,-3.984,-3.9586,-3.9373,-3.8982,-3.8818,-3.8538,-3.8396,-3.8358,-3.8383,-3.8345,-3.8269,-3.8651,-3.8774,-3.8858,-3.9207,-3.9406,-3.9344,-3.9511,-3.9568,-3.9586,-3.9047,-3.8841,-3.8645,-3.82,-3.7978,-3.79,-3.7835,-3.7573,-3.7129,-3.6998,-3.6737,-3.6149,-3.5717,-3.5469,-3.5365,-3.4763,-3.4162,-3.3613,-3.3522,-3.2934,-3.198,-3.1771,-3.1198,-3.0503,-3.0272,-3.0019,-2.968,-2.9405,-2.9984,-3.105,-3.133,-3.2208,-3.3679,-3.4201,-3.4522,-3.494,-3.4763,-3.4468,-3.4274,-3.3378,-3.2647,-3.2602,-3.2258,-3.1854,-3.1511,-3.1749,-3.1764,-3.1689,-3.1601,-3.2093,-3.344,-3.4681,-3.5429,-3.5489,-3.5489,-3.5489,-3.5489,-3.5489,-3.5474,-3.5419,-3.6134,-3.6676,-3.7105,-3.7576,-3.7793,-3.7477,-3.7019,-3.6009,-3.5245,-3.5218,-3.5404,-3.5984,-3.6649,-3.7661,-3.8435,-3.9893,-4.0941,-4.1472,-4.2279,-4.2595,-4.29,-4.292,-4.2995,-4.3105,-4.325,-4.3552,-3.9697,-3.9697,-3.9697,-3.9697,-3.9697,-3.9697,-3.9697,-3.9697,-3.9788,-3.9725,-3.9663,-3.9272,-3.9083,-3.9158,-3.9081,-3.9104,-3.9328,-3.9835,-3.9655,-3.8992,-3.9406,-3.9646,-3.9783,-4.0356,-4.0655,-4.0685,-4.078,-4.0566,-4.0187,-3.9952,-3.9716,-3.9298,-3.8736,-3.8475,-3.841,-3.8096,-3.7782,-3.7665,-3.7625,-3.7521,-3.7299,-3.6763,-3.6475,-3.6371,-3.5534,-3.4933,-3.475,-3.4018,-3.3234,-3.245,-3.2058,-3.1589,-3.1444,-3.1679,-3.1601,-3.113,-3.1052,-3.1154,-3.173,-3.2288,-3.3044,-3.4134,-3.4758,-3.5198,-3.5439,-3.531,-3.516,-3.51,-3.4367,-3.3858,-3.3754,-3.3275,-3.2512,-3.1571,-3.1467,-3.1497,-3.1571,-3.2287,-3.2991,-3.3514,-3.4681,-3.5415,-3.5489,-3.5489,-3.5489,-3.5489,-3.5489,-3.5489,-3.5653,-3.6306,-3.7055,-3.7365,-3.7842,-3.829,-3.8058,-3.7733,-3.707,-3.6205,-3.59,-3.5907,-3.6404,-3.7195,-3.8146,-3.9313,-4.0734,-4.1594,-4.2121,-4.2498,-4.2806,-4.2995,-4.3069,-4.3178,-4.3286,-4.3605,-4.3992,-3.9697,-3.9697,-3.9697,-3.9697,-3.9697,-3.9697,-3.9697,-3.9697,-3.9775,-3.9815,-3.974,-3.9576,-3.9588,-3.979,-3.9891,-3.9979,-4.0205,-4.0754,-4.0608,-3.984,-4.0257,-4.0538,-4.065,-4.1089,-4.1311,-4.1311,-4.1311,-4.1115,-4.0749,-4.0514,-4.0239,-3.986,-3.9324,-3.8906,-3.8723,-3.8383,-3.8135,-3.7939,-3.7887,-3.79,-3.7782,-3.7312,-3.6998,-3.6867,-3.6096,-3.5534,-3.5273,-3.458,-3.3849,-3.3104,-3.2476,-3.2176,-3.2189,-3.2463,-3.2437,-3.198,-3.2077,-3.2278,-3.253,-3.3171,-3.3919,-3.4691,-3.5213,-3.5504,-3.5489,-3.5489,-3.5489,-3.5415,-3.4846,-3.4472,-3.4367,-3.3873,-3.3021,-3.2033,-3.1928,-3.1721,-3.1721,-3.2467,-3.3021,-3.335,-3.4277,-3.4951,-3.513,-3.5415,-3.5474,-3.5489,-3.5489,-3.5439,-3.5589,-3.6107,-3.6635,-3.715,-3.7688,-3.81,-3.859,-3.833,-3.8018,-3.7336,-3.6683,-3.6745,-3.7026,-3.8061,-3.9088,-4.0306,-4.1704,-4.2026,-4.2498,-4.2673,-4.292,-4.3032,-4.3196,-4.3373,-4.36,-4.4206,-4.4642,-3.9697,-3.9697,-3.9697,-3.9697,-3.9697,-3.9697,-3.9697,-3.98,-3.9981,-4.0122,-4.016,-4.03,-4.0453,-4.0567,-4.0604,-4.0792,-4.0997,-4.1071,-4.1185,-4.108,-4.1232,-4.1219,-4.1232,-4.1285,-4.1311,-4.1311,-4.1311,-4.1285,-4.1193,-4.0775,-4.0461,-4.0409,-3.9926,-3.9403,-3.9024,-3.8776,-3.8436,-3.8083,-3.7952,-3.79,-3.7887,-3.7403,-3.7103,-3.709,-3.6502,-3.5966,-3.5613,-3.5273,-3.4659,-3.3679,-3.3064,-3.2829,-3.2764,-3.2751,-3.2659,-3.2305,-3.2707,-3.3257,-3.3466,-3.4151,-3.4806,-3.5502,-3.5618,-3.5534,-3.5519,-3.5489,-3.5489,-3.5474,-3.4981,-3.4592,-3.4502,-3.4143,-3.3455,-3.2781,-3.2407,-3.2048,-3.1601,-3.2168,-3.2632,-3.2886,-3.3679,-3.4517,-3.47,-3.5209,-3.5439,-3.5589,-3.5657,-3.5596,-3.5569,-3.5882,-3.6064,-3.6637,-3.74,-3.804,-3.8562,-3.8952,-3.862,-3.8472,-3.7818,-3.7715,-3.7905,-3.8922,-4.0013,-4.1251,-4.2109,-4.2462,-4.2711,-4.2882,-4.3032,-4.3178,-4.3373,-4.3612,-4.4161,-4.4822,-4.5593,-3.9697,-3.9697,-3.9697,-3.9697,-3.9697,-3.9697,-3.9697,-3.9697,-3.9981,-4.0147,-4.0122,-4.0377,-4.0593,-4.0795,-4.0896,-4.0997,-4.1211,-4.1211,-4.1311,-4.1311,-4.1311,-4.1311,-4.1311,-4.1311,-4.1311,-4.1311,-4.1311,-4.1311,-4.1311,-4.1128,-4.105,-4.1063,-4.0501,-4.0122,-3.9899,-3.9141,-3.8671,-3.8449,-3.8083,-3.7913,-3.7874,-3.7756,-3.7665,-3.7612,-3.7077,-3.6711,-3.6462,-3.5717,-3.4763,-3.3744,-3.3862,-3.3744,-3.343,-3.3747,-3.3898,-3.3963,-3.4167,-3.4685,-3.5282,-3.5621,-3.6006,-3.6343,-3.6312,-3.6013,-3.5534,-3.5504,-3.5504,-3.5474,-3.5295,-3.5205,-3.519,-3.5011,-3.4577,-3.3933,-3.2796,-3.1898,-3.1735,-3.2108,-3.2677,-3.3185,-3.3574,-3.425,-3.4991,-3.5334,-3.5614,-3.5951,-3.5999,-3.5929,-3.5759,-3.5758,-3.5943,-3.6496,-3.7229,-3.7992,-3.86,-3.9122,-3.9359,-3.9479,-3.9127,-3.8754,-3.9058,-3.9692,-4.0815,-4.1997,-4.2404,-4.275,-4.2882,-4.3032,-4.3178,-4.3429,-4.407,-4.4573,-4.5127,-4.5767,-4.6644,-3.9993,-3.989,-3.989,-3.9788,-3.9697,-3.9788,-3.989,-3.9878,-4.0185,-4.0351,-4.0414,-4.0567,-4.0795,-4.0997,-4.1097,-4.1097,-4.1311,-4.1311,-4.1311,-4.1311,-4.1311,-4.1311,-4.1311,-4.1311,-4.1311,-4.1311,-4.1311,-4.1311,-4.1311,-4.1311,-4.1311,-4.1259,-4.0971,-4.0684,-4.0344,-3.9821,-3.9141,-3.8749,-3.837,-3.8148,-3.7926,-3.79,-3.7887,-3.7848,-3.7521,-3.7299,-3.692,-3.59,-3.4959,-3.4463,-3.4371,-3.4241,-3.4088,-3.46,-3.4915,-3.4841,-3.5397,-3.6014,-3.6259,-3.6541,-3.6872,-3.7022,-3.6926,-3.6701,-3.6357,-3.6103,-3.5908,-3.5938,-3.5684,-3.5519,-3.5444,-3.5265,-3.4906,-3.4352,-3.32,-3.2377,-3.2362,-3.2721,-3.3171,-3.3698,-3.4152,-3.4638,-3.5706,-3.5796,-3.5947,-3.616,-3.5904,-3.578,-3.5617,-3.568,-3.5857,-3.6313,-3.6997,-3.7751,-3.8554,-3.9125,-3.9412,-3.9598,-3.9946,-3.9589,-4.0117,-4.0612,-4.1432,-4.236,-4.2673,-4.2975,-4.3069,-4.3287,-4.3664,-4.4125,-4.4883,-4.5556,-4.6071,-4.678,-4.7639,-4.0287,-4.0173,-4.0185,-3.9981,-3.989,-3.9981,-4.0173,-4.0147,-4.0377,-4.0655,-4.0805,-4.0958,-4.1097,-4.1311,-4.1211,-4.1311,-4.1311,-4.1311,-4.1311,-4.1311,-4.1311,-4.1311,-4.1311,-4.1311,-4.1311,-4.1311,-4.1311,-4.1311,-4.1311,-4.1311,-4.1311,-4.1298,-4.1272,-4.1036,-4.0657,-4.0396,-3.9834,-3.9141,-3.8736,-3.8436,-3.8109,-3.7978,-3.79,-3.7887,-3.7861,-3.7599,-3.7037,-3.6175,-3.5568,-3.5549,-3.4834,-3.4494,-3.4607,-3.5345,-3.5598,-3.5609,-3.6481,-3.707,-3.6864,-3.7445,-3.7635,-3.7719,-3.7629,-3.7494,-3.73,-3.6896,-3.6507,-3.6372,-3.5938,-3.5684,-3.5429,-3.4981,-3.4898,-3.4781,-3.4194,-3.3862,-3.3848,-3.3758,-3.3849,-3.4417,-3.5074,-3.5673,-3.62,-3.6384,-3.6337,-3.6495,-3.6182,-3.5792,-3.5554,-3.5473,-3.5613,-3.586,-3.6638,-3.7502,-3.8355,-3.916,-3.9362,-3.9562,-4.0143,-4.0337,-4.1086,-4.1633,-4.2172,-4.2691,-4.2862,-4.3032,-4.3214,-4.3573,-4.411,-4.4874,-4.5637,-4.6277,-4.6915,-4.7763,-4.8641,-4.0287,-4.0402,-4.0389,-4.0402,-4.03,-4.0402,-4.0389,-4.0491,-4.0694,-4.0883,-4.0971,-4.1084,-4.1211,-4.1311,-4.1311,-4.1311,-4.1311,-4.1311,-4.1311,-4.1311,-4.1311,-4.1311,-4.1311,-4.1311,-4.1311,-4.1311,-4.1311,-4.1311,-4.1311,-4.1311,-4.1311,-4.1311,-4.1311,-4.1259,-4.1076,-4.0657,-4.0344,-3.9913,-3.9207,-3.8749,-3.8514,-3.8135,-3.7939,-3.79,-3.79,-3.7861,-3.7639,-3.7024,-3.6788,-3.6511,-3.5518,-3.4948,-3.5359,-3.5669,-3.629,-3.7139,-3.7627,-3.8179,-3.8602,-3.8728,-3.896,-3.8826,-3.8422,-3.8108,-3.7943,-3.7524,-3.7,-3.6626,-3.6342,-3.6013,-3.5614,-3.537,-3.551,-3.5766,-3.5814,-3.5891,-3.6162,-3.5149,-3.4693,-3.5146,-3.5435,-3.5859,-3.6996,-3.6557,-3.6532,-3.6803,-3.6421,-3.5889,-3.558,-3.5251,-3.5396,-3.5635,-3.6332,-3.7164,-3.7864,-3.887,-3.964,-4.0048,-4.0596,-4.1086,-4.1806,-4.2157,-4.2516,-4.2729,-4.29,-4.3069,-4.3303,-4.4134,-4.4709,-4.5579,-4.6445,-4.7185,-4.7961,-4.8802,-4.92,-4.0694,-4.0694,-4.0694,-4.0605,-4.0504,-4.0593,-4.0694,-4.0707,-4.0997,-4.1097,-4.111,-4.1211,-4.1311,-4.1311,-4.1311,-4.1311,-4.1311,-4.1311,-4.1311,-4.1311,-4.1311,-4.1311,-4.1311,-4.1311,-4.1311,-4.1311,-4.1311,-4.1311,-4.1311,-4.1311,-4.1311,-4.1311,-4.1311,-4.1311,-4.1311,-4.0971,-4.0697,-4.0344,-3.986,-3.9403,-3.9102,-3.8579,-3.8096,-3.7952,-3.79,-3.807,-3.8405,-3.7989,-3.7973,-3.7932,-3.6906,-3.6089,-3.6336,-3.6688,-3.7337,-3.7962,-3.8664,-3.8885,-3.9265,-3.9424,-3.9379,-3.9424,-3.9035,-3.8886,-3.8601,-3.8212,-3.7599,-3.703,-3.6678,-3.634,-3.6016,-3.6321,-3.6538,-3.6723,-3.6906,-3.7087,-3.7125,-3.644,-3.6052,-3.66,-3.6819,-3.7351,-3.763,-3.7166,-3.68,-3.6963,-3.5904,-3.5366,-3.5381,-3.5162,-3.5271,-3.5592,-3.6172,-3.6851,-3.7401,-3.8482,-3.995,-4.0613,-4.1367,-4.1795,-4.2404,-4.2537,-4.2634,-4.2806,-4.2957,-4.316,-4.3518,-4.4438,-4.5338,-4.6271,-4.7159,-4.8093,-4.8821,-4.9257,-4.9514,-4.1097,-4.0984,-4.0997,-4.0795,-4.0707,-4.0896,-4.0997,-4.0997,-4.1211,-4.1211,-4.1311,-4.1311,-4.1311,-4.1311,-4.1311,-4.1311,-4.1311,-4.1311,-4.1311,-4.1311,-4.1311,-4.1311,-4.1311,-4.1311,-4.1311,-4.1311,-4.1311,-4.1311,-4.1311,-4.1311,-4.1311,-4.1311,-4.1311,-4.1311,-4.1311,-4.1298,-4.1076,-4.0657,-4.037,-4.0095,-3.9703,-3.9155,-3.8712,-3.853,-3.8266,-3.8652,-3.9142,-3.9065,-3.9126,-3.98,-3.8837,-3.8054,-3.7748,-3.772,-3.8352,-3.8352,-3.8973,-3.928,-3.9352,-3.9424,-3.9424,-3.9424,-3.9394,-3.9394,-3.923,-3.8841,-3.8272,-3.7638,-3.7091,-3.6671,-3.66,-3.6906,-3.731,-3.7488,-3.7546,-3.7605,-3.7663,-3.7722,-3.7841,-3.7939,-3.8003,-3.8394,-3.8368,-3.8038,-3.7581,-3.6936,-3.5794,-3.5013,-3.5058,-3.5182,-3.5291,-3.5585,-3.6182,-3.7454,-3.8155,-3.8614,-4.0026,-4.1104,-4.1931,-4.2279,-4.275,-4.2864,-4.2902,-4.2957,-4.3105,-4.3339,-4.3766,-4.4535,-4.5549,-4.6735,-4.7642,-4.8348,-4.9001,-4.9598,-4.9788,-4.1097,-4.1211,-4.1224,-4.1211,-4.1211,-4.1211,-4.1211,-4.1211,-4.1311,-4.1311,-4.1311,-4.1311,-4.1311,-4.1311,-4.1311,-4.1311,-4.1311,-4.1311,-4.1311,-4.1311,-4.1311,-4.1311,-4.1311,-4.1311,-4.1311,-4.1311,-4.1311,-4.1311,-4.1311,-4.1311,-4.1311,-4.1311,-4.1311,-4.1311,-4.1311,-4.1311,-4.1272,-4.1023,-4.0723,-4.0422,-4.0213,-3.9856,-3.9534,-3.9489,-3.9137,-3.9502,-4.0173,-4.032,-4.0393,-4.0709,-4.0054,-3.9794,-3.9486,-3.8837,-3.8663,-3.8958,-3.9265,-3.9424,-3.9424,-3.9424,-3.9424,-3.9424,-3.9424,-3.9424,-3.9394,-3.9275,-3.8867,-3.8325,-3.7694,-3.7232,-3.727,-3.7551,-3.7722,-3.801,-3.8197,-3.8351,-3.8733,-3.8805,-3.8662,-3.8535,-3.8843,-3.9061,-3.8838,-3.8444,-3.7781,-3.7153,-3.6289,-3.544,-3.5152,-3.5291,-3.5429,-3.5807,-3.6224,-3.7712,-3.9066,-3.9422,-4.0224,-4.1442,-4.2198,-4.2418,-4.2788,-4.3087,-4.3214,-4.3451,-4.3522,-4.3695,-4.4206,-4.4865,-4.5867,-4.7121,-4.7838,-4.8536,-4.9173,-4.9788,-4.9925,-4.1211,-4.1311,-4.1311,-4.1311,-4.1311,-4.1311,-4.1311,-4.1311,-4.1311,-4.1311,-4.1311,-4.1311,-4.1311,-4.1311,-4.1311,-4.1311,-4.1311,-4.1311,-4.1311,-4.1311,-4.1311,-4.1311,-4.1311,-4.1311,-4.1311,-4.1311,-4.1311,-4.1311,-4.1311,-4.1311,-4.1311,-4.1311,-4.1311,-4.1311,-4.1311,-4.1311,-4.1311,-4.1232,-4.1023,-4.0867,-4.0861,-4.0539,-4.0414,-4.0069,-4.0109,-4.046,-4.1113,-4.1296,-4.1583,-4.1983,-4.1568,-4.1181,-4.0695,-4.0085,-3.9328,-3.9442,-3.9424,-3.9424,-3.9424,-3.9424,-3.9424,-3.9424,-3.9424,-3.9424,-3.9424,-3.9349,-3.9309,-3.8911,-3.8357,-3.823,-3.8958,-3.8608,-3.8723,-3.9142,-3.9122,-3.9051,-3.9235,-3.9322,-3.9193,-3.8975,-3.9193,-3.9268,-3.9086,-3.8609,-3.7965,-3.7302,-3.6654,-3.6085,-3.5496,-3.5602,-3.584,-3.626,-3.6837,-3.8122,-3.9534,-4.0141,-4.0771,-4.189,-4.258,-4.2814,-4.3043,-4.3451,-4.3868,-4.4209,-4.4239,-4.4502,-4.4967,-4.5791,-4.6651,-4.744,-4.8251,-4.898,-4.9485,-4.9871,-5.0005,-4.1311,-4.1311,-4.1311,-4.1311,-4.1311,-4.1311,-4.1311,-4.1311,-4.1311,-4.1311,-4.1311,-4.1311,-4.1311,-4.1311,-4.1311,-4.1311,-4.1311,-4.1311,-4.1311,-4.1311,-4.1311,-4.1311,-4.1311,-4.1311,-4.1311,-4.1311,-4.1311,-4.1311,-4.1311,-4.1311,-4.1311,-4.1311,-4.1311,-4.1311,-4.1311,-4.1311,-4.1311,-4.1311,-4.1311,-4.1311,-4.1518,-4.1504,-4.1366,-4.0852,-4.1022,-4.1537,-4.217,-4.2237,-4.2563,-4.2773,-4.2593,-4.2102,-4.1579,-4.095,-4.0292,-3.9723,-3.9514,-3.9439,-3.9424,-3.9424,-3.9424,-3.9424,-3.9424,-3.9424,-3.9481,-3.955,-3.9662,-3.9565,-3.9503,-3.9441,-4.0209,-4.0031,-4.004,-4.0227,-4.0062,-3.9752,-3.9852,-3.9972,-4.0022,-3.9885,-3.9723,-3.9594,-3.9478,-3.9146,-3.8515,-3.812,-3.7469,-3.7082,-3.6575,-3.64,-3.6574,-3.6933,-3.7614,-3.8684,-3.9792,-4.0665,-4.1552,-4.2701,-4.321,-4.3457,-4.3685,-4.3962,-4.4488,-4.51,-4.5793,-4.6126,-4.6432,-4.657,-4.7105,-4.7826,-4.8732,-4.934,-4.9693,-4.9933,-5.0057,-4.1311,-4.1311,-4.1311,-4.1311,-4.1311,-4.1311,-4.1311,-4.1311,-4.1311,-4.1311,-4.1311,-4.1311,-4.1311,-4.1311,-4.1311,-4.1311,-4.1311,-4.1311,-4.1311,-4.1311,-4.1311,-4.1311,-4.1311,-4.1311,-4.1311,-4.1311,-4.1311,-4.1311,-4.1311,-4.1311,-4.1311,-4.1311,-4.1311,-4.1311,-4.1311,-4.1311,-4.1311,-4.1324,-4.1324,-4.1782,-4.249,-4.292,-4.3088,-4.3053,-4.2938,-4.2792,-4.2998,-4.3055,-4.317,-4.319,-4.2731,-4.2372,-4.2147,-4.1624,-4.098,-4.0337,-3.9813,-3.9424,-3.9439,-3.9424,-3.9334,-3.932,-3.9334,-3.9409,-3.9535,-3.9945,-4.0269,-4.0303,-4.0655,-4.1075,-4.1287,-4.1147,-4.121,-4.1177,-4.1044,-4.0945,-4.0978,-4.0586,-4.0636,-4.0768,-4.0724,-4.0284,-3.9971,-3.9551,-3.9204,-3.8773,-3.8371,-3.8017,-3.7576,-3.7381,-3.7572,-3.8003,-3.8608,-3.9651,-4.0644,-4.1457,-4.2271,-4.3466,-4.3833,-4.4134,-4.4376,-4.471,-4.5458,-4.6107,-4.6852,-4.7336,-4.7404,-4.7503,-4.7658,-4.8119,-4.8893,-4.939,-4.9776,-4.9948,-5.0108,-4.1311,-4.1311,-4.1311,-4.1311,-4.1311,-4.1311,-4.1311,-4.1311,-4.1311,-4.1311,-4.1311,-4.1311,-4.1311,-4.1311,-4.1311,-4.1311,-4.1311,-4.1311,-4.1311,-4.1311,-4.1311,-4.1311,-4.1311,-4.1311,-4.1311,-4.1311,-4.1311,-4.1311,-4.1311,-4.1311,-4.1311,-4.1311,-4.1311,-4.1311,-4.1398,-4.1311,-4.1681,-4.2087,-4.2668,-4.3176,-4.3637,-4.3984,-4.4234,-4.4356,-4.3965,-4.379,-4.3692,-4.3464,-4.3359,-4.3299,-4.3,-4.2701,-4.2417,-4.2043,-4.1639,-4.0995,-4.0352,-3.9843,-3.9499,-3.9439,-3.923,-3.8916,-3.8927,-3.9023,-3.9449,-4.0094,-4.0966,-4.1645,-4.1526,-4.1836,-4.2195,-4.1815,-4.1806,-4.1789,-4.1806,-4.164,-4.1574,-4.1448,-4.1282,-4.1521,-4.1677,-4.1321,-4.1063,-4.1,-4.0648,-4.01,-3.9766,-3.943,-3.8848,-3.8235,-3.8631,-3.9261,-3.9879,-4.0624,-4.1652,-4.2544,-4.3098,-4.4053,-4.4578,-4.4859,-4.5122,-4.5588,-4.6286,-4.6895,-4.7439,-4.7872,-4.8164,-4.8438,-4.8638,-4.8818,-4.9047,-4.9495,-4.9868,-4.9993,-5.0133,-4.1311,-4.1311,-4.1311,-4.1311,-4.1311,-4.1311,-4.1311,-4.1311,-4.1311,-4.1311,-4.1311,-4.1311,-4.1311,-4.1311,-4.1311,-4.1311,-4.1311,-4.1311,-4.1311,-4.1311,-4.1311,-4.1311,-4.1311,-4.1311,-4.1311,-4.1311,-4.1311,-4.1311,-4.1311,-4.1311,-4.1311,-4.1311,-4.1311,-4.1498,-4.1683,-4.1895,-4.2212,-4.3185,-4.4118,-4.4541,-4.4755,-4.4977,-4.5055,-4.4817,-4.4576,-4.4242,-4.4018,-4.3643,-4.3359,-4.3329,-4.3299,-4.3045,-4.2731,-4.2611,-4.2117,-4.1474,-4.0831,-4.0232,-3.9723,-3.9364,-3.902,-3.8657,-3.8521,-3.8857,-3.9809,-4.0359,-4.1166,-4.2314,-4.2366,-4.2687,-4.3036,-4.2551,-4.2535,-4.2502,-4.2419,-4.2137,-4.1972,-4.2161,-4.2318,-4.2615,-4.2756,-4.2718,-4.2546,-4.2567,-4.224,-4.1519,-4.11,-4.0865,-4.0404,-3.9748,-4.0412,-4.122,-4.171,-4.2335,-4.3014,-4.3826,-4.431,-4.4675,-4.5218,-4.5747,-4.6099,-4.6539,-4.7204,-4.7723,-4.81,-4.8565,-4.8961,-4.9269,-4.9551,-4.9453,-4.9457,-4.9711,-4.9959,-5.0076,-5.0196,-4.1311,-4.1311,-4.1311,-4.1311,-4.1311,-4.1311,-4.1311,-4.1311,-4.1311,-4.1311,-4.1311,-4.1311,-4.1311,-4.1311,-4.1311,-4.1311,-4.1311,-4.1311,-4.1311,-4.1311,-4.1311,-4.1311,-4.1311,-4.1311,-4.1311,-4.1311,-4.1311,-4.1311,-4.1311,-4.1311,-4.1311,-4.1311,-4.1597,-4.1954,-4.2457,-4.2803,-4.3341,-4.4251,-4.514,-4.5665,-4.571,-4.5814,-4.5813,-4.5272,-4.4654,-4.4047,-4.3479,-4.3389,-4.3344,-4.3344,-4.3344,-4.3329,-4.312,-4.3105,-4.2581,-4.1923,-4.1339,-4.0681,-4.0023,-3.9484,-3.9005,-3.8647,-3.8584,-3.9057,-4.0142,-4.1008,-4.1814,-4.2502,-4.2752,-4.3125,-4.3436,-4.3495,-4.323,-4.3164,-4.3048,-4.3074,-4.3041,-4.3289,-4.3448,-4.3723,-4.3762,-4.3574,-4.367,-4.3575,-4.3322,-4.2689,-4.243,-4.2125,-4.243,-4.215,-4.284,-4.3509,-4.3881,-4.4354,-4.4773,-4.52,-4.5291,-4.5617,-4.6106,-4.6685,-4.7174,-4.7691,-4.7941,-4.8266,-4.865,-4.9202,-4.9615,-4.9663,-4.9692,-4.975,-4.9816,-4.9933,-5.0196,-5.0367,-5.0441,-4.1311,-4.1311,-4.1311,-4.1311,-4.1311,-4.1311,-4.1311,-4.1311,-4.1311,-4.1311,-4.1311,-4.1311,-4.1311,-4.1311,-4.1311,-4.1311,-4.1311,-4.1311,-4.1311,-4.1311,-4.1311,-4.1311,-4.1311,-4.1311,-4.1311,-4.1311,-4.1311,-4.1311,-4.1311,-4.1498,-4.1881,-4.1967,-4.2235,-4.2417,-4.2929,-4.3943,-4.4818,-4.5235,-4.6079,-4.6666,-4.6694,-4.6322,-4.6187,-4.5933,-4.4781,-4.4287,-4.3928,-4.3524,-4.3389,-4.3344,-4.3359,-4.3344,-4.3344,-4.3344,-4.3,-4.2342,-4.1773,-4.1115,-4.0486,-3.9826,-3.9073,-3.8735,-3.8939,-3.9698,-4.0593,-4.1142,-4.2118,-4.272,-4.3053,-4.3247,-4.3578,-4.3611,-4.3562,-4.3611,-4.3687,-4.3747,-4.3813,-4.3988,-4.4014,-4.4047,-4.4152,-4.417,-4.4311,-4.4412,-4.4164,-4.3847,-4.3642,-4.3546,-4.3865,-4.4069,-4.4551,-4.4876,-4.519,-4.5288,-4.5612,-4.587,-4.6142,-4.6522,-4.692,-4.7306,-4.771,-4.8155,-4.842,-4.8783,-4.9027,-4.9402,-4.9663,-4.9759,-4.9816,-4.9862,-4.9952,-5.0082,-5.0335,-5.0694,-5.0889,-4.1311,-4.1311,-4.1311,-4.1311,-4.1311,-4.1311,-4.1311,-4.1311,-4.1311,-4.1311,-4.1311,-4.1311,-4.1311,-4.1311,-4.1311,-4.1311,-4.1311,-4.1311,-4.1311,-4.1311,-4.1311,-4.1311,-4.1311,-4.1311,-4.1311,-4.1311,-4.1683,-4.1782,-4.1868,-4.2065,-4.2625,-4.3177,-4.3531,-4.3721,-4.4181,-4.526,-4.6261,-4.6461,-4.6829,-4.7309,-4.7219,-4.6681,-4.6322,-4.6142,-4.52,-4.4736,-4.4451,-4.4077,-4.3733,-4.3614,-4.3509,-4.3359,-4.3344,-4.3284,-4.312,-4.2596,-4.1998,-4.1355,-4.0887,-4.0172,-3.9535,-3.98,-3.9818,-4.0511,-4.1132,-4.1689,-4.2624,-4.3446,-4.3298,-4.3182,-4.373,-4.3805,-4.3805,-4.3864,-4.3864,-4.3939,-4.3989,-4.4073,-4.4181,-4.4196,-4.4333,-4.4468,-4.4635,-4.4759,-4.4824,-4.471,-4.4803,-4.4848,-4.5225,-4.5446,-4.5588,-4.5896,-4.6152,-4.6109,-4.6106,-4.6504,-4.6866,-4.6993,-4.7319,-4.757,-4.7951,-4.8364,-4.866,-4.8872,-4.9127,-4.9502,-4.9824,-5.0118,-5.0088,-4.999,-5.0177,-5.0397,-5.0822,-5.1195,-5.1577,-4.1411,-4.1311,-4.1411,-4.1411,-4.1411,-4.1324,-4.1311,-4.1311,-4.1311,-4.1311,-4.1311,-4.1311,-4.1324,-4.1311,-4.1311,-4.1311,-4.1411,-4.1424,-4.1411,-4.1411,-4.1398,-4.1411,-4.155,-4.1563,-4.1921,-4.1696,-4.2333,-4.2875,-4.2889,-4.3464,-4.4017,-4.4485,-4.5024,-4.5494,-4.5779,-4.6638,-4.7222,-4.7222,-4.7309,-4.7309,-4.7174,-4.6666,-4.6381,-4.6127,-4.5544,-4.5095,-4.493,-4.4287,-4.3958,-4.4032,-4.3419,-4.3254,-4.3314,-4.3329,-4.2895,-4.2015,-4.1745,-4.1232,-4.0731,-4.0158,-4.0648,-4.1342,-4.1349,-4.1624,-4.2561,-4.2999,-4.3106,-4.3831,-4.3788,-4.3839,-4.4006,-4.4039,-4.4039,-4.4039,-4.4039,-4.4114,-4.4147,-4.4239,-4.432,-4.44,-4.4514,-4.4609,-4.4797,-4.4981,-4.532,-4.5511,-4.5833,-4.6125,-4.6354,-4.6551,-4.6568,-4.6661,-4.6855,-4.6915,-4.692,-4.7301,-4.7572,-4.7645,-4.7669,-4.7788,-4.8032,-4.8364,-4.866,-4.8943,-4.9501,-5.0075,-5.0345,-5.0627,-5.0764,-5.0945,-5.0659,-5.0851,-5.1295,-5.183,-5.2346,-4.2902,-4.2333,-4.2999,-4.2902,-4.2235,-4.1584,-4.1311,-4.1311,-4.1311,-4.1311,-4.1311,-4.1311,-4.1411,-4.1511,-4.1411,-4.1498,-4.1782,-4.161,-4.161,-4.1881,-4.1881,-4.2246,-4.2484,-4.2717,-4.3011,-4.3712,-4.4185,-4.4242,-4.4242,-4.4734,-4.5024,-4.557,-4.624,-4.6726,-4.6814,-4.7207,-4.7309,-4.7309,-4.7309,-4.7294,-4.7219,-4.6711,-4.6337,-4.6307,-4.5663,-4.5432,-4.5214,-4.4377,-4.4032,-4.4122,-4.3543,-4.3015,-4.321,-4.3299,-4.3169,-4.2754,-4.2635,-4.2582,-4.2827,-4.2944,-4.2747,-4.2831,-4.2671,-4.2874,-4.3564,-4.3189,-4.3494,-4.3762,-4.3786,-4.3853,-4.3963,-4.4064,-4.4097,-4.408,-4.4138,-4.4196,-4.427,-4.4417,-4.453,-4.4514,-4.457,-4.4889,-4.5125,-4.584,-4.6213,-4.6495,-4.6838,-4.6673,-4.6809,-4.7142,-4.7319,-4.7337,-4.7458,-4.7591,-4.7717,-4.7753,-4.7971,-4.8098,-4.7922,-4.7788,-4.8053,-4.8734,-4.9282,-4.9922,-5.031,-5.0684,-5.13,-5.1825,-5.1967,-5.2011,-5.1978,-5.1888,-5.2212,-5.2824,-5.3454,-4.3923,-4.345,-4.4031,-4.4017,-4.3355,-4.2612,-4.2346,-4.2431,-4.2235,-4.2052,-4.2052,-4.1782,-4.171,-4.1796,-4.1696,-4.1954,-4.2514,-4.2417,-4.2333,-4.2612,-4.2971,-4.3228,-4.3476,-4.3917,-4.4177,-4.4997,-4.5427,-4.5526,-4.5541,-4.575,-4.6211,-4.677,-4.7264,-4.7437,-4.7452,-4.7467,-4.7309,-4.7309,-4.7309,-4.7309,-4.7189,-4.6991,-4.6646,-4.6461,-4.6085,-4.5838,-4.5244,-4.4629,-4.4013,-4.4043,-4.3668,-4.2977,-4.3202,-4.3461,-4.3482,-4.3396,-4.3785,-4.3905,-4.443,-4.4595,-4.4362,-4.4577,-4.4121,-4.3923,-4.4162,-4.3866,-4.39,-4.3967,-4.3715,-4.3883,-4.4169,-4.4212,-4.427,-4.4253,-4.431,-4.4367,-4.444,-4.4587,-4.4754,-4.4737,-4.4978,-4.5302,-4.5787,-4.6632,-4.734,-4.7597,-4.785,-4.7599,-4.734,-4.7666,-4.7935,-4.7935,-4.7953,-4.8025,-4.7971,-4.7862,-4.8116,-4.8496,-4.8478,-4.8389,-4.9248,-5.0063,-5.0471,-5.086,-5.1315,-5.1841,-5.2642,-5.3098,-5.3213,-5.3448,-5.3722,-5.3569,-5.3339,-5.3664,-5.4199,-4.4392,-4.4406,-4.4406,-4.4563,-4.4549,-4.447,-4.4549,-4.4456,-4.3787,-4.3517,-4.3504,-4.2612,-4.2541,-4.236,-4.2262,-4.2806,-4.3517,-4.3598,-4.3612,-4.3882,-4.4349,-4.4313,-4.4411,-4.4832,-4.5407,-4.5638,-4.6109,-4.6725,-4.6667,-4.7031,-4.7578,-4.7764,-4.7779,-4.788,-4.7794,-4.7639,-4.7467,-4.7467,-4.7482,-4.7482,-4.7392,-4.7463,-4.7141,-4.681,-4.6607,-4.6312,-4.5753,-4.4916,-4.4724,-4.4448,-4.4037,-4.3482,-4.3363,-4.3667,-4.3499,-4.3818,-4.4731,-4.5326,-4.5662,-4.5679,-4.5757,-4.5858,-4.5098,-4.4807,-4.4564,-4.4497,-4.4356,-4.4429,-4.4311,-4.4378,-4.457,-4.4514,-4.4514,-4.4514,-4.4514,-4.457,-4.4587,-4.4754,-4.4975,-4.5228,-4.5563,-4.6025,-4.6795,-4.7597,-4.8434,-4.8659,-4.8838,-4.8738,-4.846,-4.8215,-4.8424,-4.8387,-4.8405,-4.8424,-4.8369,-4.8478,-4.8713,-4.922,-4.9474,-4.957,-5.0491,-5.1202,-5.1555,-5.19,-5.2342,-5.2976,-5.3739,-5.418,-5.4384,-5.4639,-5.4715,-5.4619,-5.4199,-5.4161,-5.4581,-4.5987,-4.5508,-4.6255,-4.6314,-4.5825,-4.6755,-4.6373,-4.4981,-4.4599,-4.4599,-4.4507,-4.4335,-4.4083,-4.4485,-4.4256,-4.4535,-4.4812,-4.501,-4.5024,-4.5298,-4.557,-4.584,-4.6109,-4.6385,-4.6957,-4.7312,-4.7728,-4.7819,-4.7904,-4.8286,-4.8133,-4.7964,-4.8049,-4.8049,-4.7964,-4.788,-4.7794,-4.7794,-4.781,-4.7724,-4.7724,-4.7794,-4.744,-4.7046,-4.6841,-4.6431,-4.5763,-4.4698,-4.4519,-4.4747,-4.3804,-4.3168,-4.3138,-4.4096,-4.4736,-4.5649,-4.6499,-4.7207,-4.7121,-4.6686,-4.6456,-4.638,-4.5382,-4.5162,-4.5043,-4.4874,-4.4587,-4.457,-4.457,-4.457,-4.457,-4.457,-4.457,-4.457,-4.4643,-4.4694,-4.4873,-4.5371,-4.5642,-4.61,-4.644,-4.7126,-4.7893,-4.8812,-4.955,-4.9756,-4.9836,-4.9782,-4.9528,-4.9238,-4.9003,-4.8967,-4.9075,-4.9166,-4.9401,-4.9528,-4.9691,-4.996,-5.0273,-5.0691,-5.1321,-5.1963,-5.2484,-5.3025,-5.3574,-5.4177,-5.4828,-5.5052,-5.4963,-5.5097,-5.5174,-5.5154,-5.5116,-5.4925,-5.4849,-4.6215,-4.587,-4.6756,-4.7081,-4.7174,-4.8003,-4.7533,-4.6432,-4.6078,-4.59,-4.581,-4.545,-4.5374,-4.5389,-4.5374,-4.5631,-4.63,-4.6196,-4.6196,-4.63,-4.6667,-4.6845,-4.7302,-4.7575,-4.7949,-4.8438,-4.8604,-4.8423,-4.8521,-4.8537,-4.837,-4.8286,-4.8218,-4.8202,-4.8202,-4.8202,-4.8202,-4.8202,-4.8118,-4.8049,-4.8049,-4.8003,-4.76,-4.6915,-4.6641,-4.6158,-4.5392,-4.4264,-4.4219,-4.4833,-4.399,-4.3676,-4.3738,-4.4567,-4.5426,-4.6273,-4.7472,-4.7621,-4.7328,-4.6969,-4.6659,-4.616,-4.5297,-4.4976,-4.4891,-4.4773,-4.4637,-4.457,-4.457,-4.457,-4.457,-4.457,-4.457,-4.457,-4.4694,-4.4873,-4.5422,-4.602,-4.6517,-4.7066,-4.7634,-4.8322,-4.9154,-5.0037,-5.0597,-5.0705,-5.0959,-5.1194,-5.0741,-5.0162,-4.9854,-4.9655,-4.9836,-4.9999,-5.0297,-5.0558,-5.078,-5.1049,-5.148,-5.1918,-5.2295,-5.2943,-5.3736,-5.4332,-5.4848,-5.5186,-5.5262,-5.532,-5.5307,-5.5403,-5.5403,-5.5326,-5.5288,-5.525,-5.5231,-4.547,-4.571,-4.6411,-4.7357,-4.8256,-4.8537,-4.8521,-4.8521,-4.7634,-4.7276,-4.7103,-4.6403,-4.6211,-4.6388,-4.6388,-4.6637,-4.7103,-4.7276,-4.7276,-4.7276,-4.7819,-4.7991,-4.7839,-4.8092,-4.8385,-4.8521,-4.8604,-4.8604,-4.8604,-4.8521,-4.8521,-4.8604,-4.8521,-4.8521,-4.8521,-4.8521,-4.8438,-4.8438,-4.8164,-4.7935,-4.8088,-4.805,-4.7675,-4.6578,-4.5984,-4.5511,-4.468,-4.4127,-4.3745,-4.4458,-4.4892,-4.4676,-4.4861,-4.4934,-4.5615,-4.6271,-4.7541,-4.7575,-4.7147,-4.6693,-4.6287,-4.5754,-4.5026,-4.4756,-4.4671,-4.4688,-4.4587,-4.457,-4.457,-4.479,-4.4857,-4.4795,-4.4727,-4.5133,-4.5521,-4.5929,-4.6617,-4.7283,-4.792,-4.8453,-4.9084,-4.9686,-5.0001,-5.0868,-5.1375,-5.1538,-5.1719,-5.21,-5.191,-5.1149,-5.0859,-5.055,-5.076,-5.1022,-5.1157,-5.1427,-5.1761,-5.2151,-5.2548,-5.3064,-5.3461,-5.4235,-5.5091,-5.521,-5.5224,-5.5281,-5.5384,-5.5403,-5.5403,-5.5403,-5.5403,-5.5403,-5.5403,-5.5403,-5.5403,-4.5619,-4.594,-4.6757,-4.766,-4.849,-4.8521,-4.8573,-4.8604,-4.8355,-4.8256,-4.8172,-4.8003,-4.7819,-4.7719,-4.7634,-4.7904,-4.8072,-4.8072,-4.8256,-4.8172,-4.8521,-4.8499,-4.8286,-4.8363,-4.8604,-4.8604,-4.8604,-4.8604,-4.8604,-4.8604,-4.8604,-4.8604,-4.8604,-4.8604,-4.8604,-4.8604,-4.8604,-4.8589,-4.8214,-4.8048,-4.8315,-4.8239,-4.7907,-4.6923,-4.6249,-4.5696,-4.5018,-4.4509,-4.4406,-4.4664,-4.5274,-4.5693,-4.6078,-4.592,-4.6091,-4.6555,-4.7038,-4.7098,-4.6718,-4.6261,-4.5923,-4.5585,-4.506,-4.4739,-4.457,-4.457,-4.457,-4.4587,-4.4722,-4.4993,-4.5202,-4.5032,-4.5167,-4.5764,-4.6381,-4.7141,-4.784,-4.8564,-4.9305,-4.9941,-5.0534,-5.0805,-5.1086,-5.1484,-5.2027,-5.2245,-5.2263,-5.2408,-5.2445,-5.201,-5.1919,-5.1737,-5.191,-5.2091,-5.2082,-5.2204,-5.2527,-5.2948,-5.3367,-5.3943,-5.4541,-5.4924,-5.5286,-5.5332,-5.5384,-5.5403,-5.5403,-5.5403,-5.5403,-5.5403,-5.5403,-5.5403,-5.5403,-5.5403,-5.5403,-4.4986,-4.5315,-4.6196,-4.7031,-4.765,-4.7711,-4.7865,-4.8112,-4.8158,-4.8343,-4.8589,-4.8604,-4.8604,-4.8604,-4.8604,-4.8604,-4.8604,-4.8604,-4.8521,-4.8521,-4.8604,-4.8604,-4.8604,-4.8604,-4.8604,-4.8604,-4.8604,-4.8604,-4.8604,-4.8604,-4.8604,-4.8604,-4.8604,-4.8604,-4.8604,-4.8604,-4.8604,-4.8589,-4.8158,-4.8127,-4.8281,-4.8065,-4.7912,-4.7111,-4.6671,-4.6098,-4.5809,-4.5395,-4.5342,-4.5336,-4.5693,-4.5783,-4.6072,-4.6257,-4.6051,-4.6178,-4.6498,-4.687,-4.616,-4.5754,-4.5517,-4.5196,-4.4976,-4.4604,-4.4705,-4.4722,-4.484,-4.4874,-4.5145,-4.5415,-4.5773,-4.5762,-4.6281,-4.6918,-4.7489,-4.8119,-4.9,-4.9901,-5.0617,-5.1326,-5.1574,-5.1339,-5.1611,-5.1955,-5.2371,-5.2427,-5.2536,-5.2599,-5.2627,-5.2645,-5.2645,-5.2645,-5.2663,-5.2663,-5.2553,-5.2749,-5.3145,-5.3646,-5.4067,-5.4503,-5.4924,-5.5168,-5.5403,-5.5403,-5.5403,-5.5403,-5.5403,-5.5403,-5.5403,-5.5403,-5.5403,-5.5403,-5.5403,-5.5384,-5.5409,-4.4234,-4.4573,-4.5295,-4.6003,-4.6557,-4.6619,-4.6927,-4.7423,-4.745,-4.7788,-4.8235,-4.8373,-4.8512,-4.8604,-4.8604,-4.8604,-4.8604,-4.8604,-4.8604,-4.8604,-4.8604,-4.8604,-4.8604,-4.8604,-4.8604,-4.8604,-4.8604,-4.8604,-4.8604,-4.8604,-4.8604,-4.8604,-4.8604,-4.8604,-4.8604,-4.8604,-4.8604,-4.8543,-4.8312,-4.8127,-4.7912,-4.7588,-4.75,-4.7324,-4.7042,-4.6755,-4.6509,-4.6404,-4.6338,-4.6437,-4.6306,-4.6234,-4.6183,-4.6448,-4.5874,-4.5838,-4.6126,-4.6024,-4.5483,-4.5331,-4.506,-4.4807,-4.4688,-4.4756,-4.4891,-4.5026,-4.5145,-4.5348,-4.5602,-4.6072,-4.6431,-4.6781,-4.7351,-4.8327,-4.8837,-4.9333,-5.0288,-5.1081,-5.1726,-5.2444,-5.2208,-5.1882,-5.2109,-5.2472,-5.2554,-5.2608,-5.2654,-5.2698,-5.2743,-5.2806,-5.2824,-5.2824,-5.2868,-5.2868,-5.2919,-5.3143,-5.3491,-5.4048,-5.4458,-5.4884,-5.5241,-5.5332,-5.5403,-5.5403,-5.5403,-5.5403,-5.5403,-5.5403,-5.5403,-5.5384,-5.539,-5.539,-5.5415,-5.5415,-5.5421,-4.468,-4.5341,-4.5541,-4.5972,-4.6511,-4.6573,-4.668,-4.6757,-4.6773,-4.6896,-4.7173,-4.765,-4.805,-4.8589,-4.8604,-4.8604,-4.8604,-4.8604,-4.8604,-4.8604,-4.8604,-4.8604,-4.8604,-4.8604,-4.8604,-4.8604,-4.8604,-4.8604,-4.8604,-4.8604,-4.8604,-4.8604,-4.8604,-4.8604,-4.8604,-4.8604,-4.8589,-4.8527,-4.8266,-4.8004,-4.8224,-4.7858,-4.7309,-4.7058,-4.6748,-4.6725,-4.6721,-4.6657,-4.6713,-4.688,-4.7074,-4.6918,-4.6676,-4.6549,-4.6194,-4.572,-4.5991,-4.5788,-4.5449,-4.5229,-4.4993,-4.506,-4.5077,-4.5263,-4.5399,-4.5551,-4.5703,-4.5906,-4.6377,-4.7261,-4.7621,-4.7717,-4.8236,-4.9975,-5.1057,-5.1287,-5.1824,-5.1989,-5.2299,-5.2526,-5.2454,-5.2336,-5.24,-5.2627,-5.2645,-5.2717,-5.2761,-5.2806,-5.285,-5.2893,-5.2955,-5.2999,-5.306,-5.324,-5.3348,-5.341,-5.3721,-5.4307,-5.4776,-5.5066,-5.526,-5.5358,-5.5403,-5.5403,-5.5384,-5.5384,-5.5384,-5.5409,-5.5409,-5.5415,-5.5402,-5.5383,-5.5402,-5.5427,-5.5451]}]]